<?xml version="1.0" encoding="UTF-8" standalone="no" ?>
<gpx xmlns="http://www.topografix.com/GPX/1/1" xmlns:xsi="http://www.w3.org/2001/XMLSchema-instance" xsi:schemaLocation="http://www.topografix.com/GPX/1/1 http://www.topografix.com/GPX/1/1/gpx.xsd" version="1.1" creator="VisuGPX - https://www.visugpx.com">
  <metadata>
    <name>Ceyreste - 3 vallons</name>
    <desc><![CDATA[Pélengarri / Conquettes / Gendame]]></desc>
  </metadata>
  <trk>
    <name><![CDATA[2021-10-23 Ceyreste]]></name>
    <trkseg>
      <trkpt lat="43.22214" lon="5.6298">
        <ele>177.33984375</ele>
        <time>2021-10-23T07:05:12Z</time>
      </trkpt>
      <trkpt lat="43.22215" lon="5.6298">
        <ele>177.49609375</ele>
        <time>2021-10-23T07:05:18Z</time>
      </trkpt>
      <trkpt lat="43.22215" lon="5.6298">
        <ele>177.515625</ele>
        <time>2021-10-23T07:05:19Z</time>
      </trkpt>
      <trkpt lat="43.22213" lon="5.6298">
        <ele>177.27734375</ele>
        <time>2021-10-23T07:05:39Z</time>
      </trkpt>
      <trkpt lat="43.22211" lon="5.62979">
        <ele>176.99609375</ele>
        <time>2021-10-23T07:06:07Z</time>
      </trkpt>
      <trkpt lat="43.22212" lon="5.62979">
        <ele>177.1171875</ele>
        <time>2021-10-23T07:06:37Z</time>
      </trkpt>
      <trkpt lat="43.22211" lon="5.62982">
        <ele>176.82421875</ele>
        <time>2021-10-23T07:07:14Z</time>
      </trkpt>
      <trkpt lat="43.22209" lon="5.62984">
        <ele>176.5390625</ele>
        <time>2021-10-23T07:07:56Z</time>
      </trkpt>
      <trkpt lat="43.22208" lon="5.62985">
        <ele>176.3203125</ele>
        <time>2021-10-23T07:08:53Z</time>
      </trkpt>
      <trkpt lat="43.22207" lon="5.62985">
        <ele>176.2890625</ele>
        <time>2021-10-23T07:08:54Z</time>
      </trkpt>
      <trkpt lat="43.22202" lon="5.62984">
        <ele>175.5546875</ele>
        <time>2021-10-23T07:09:03Z</time>
      </trkpt>
      <trkpt lat="43.22204" lon="5.62985">
        <ele>175.75</ele>
        <time>2021-10-23T07:09:32Z</time>
      </trkpt>
      <trkpt lat="43.22201" lon="5.62985">
        <ele>175.37109375</ele>
        <time>2021-10-23T07:10:05Z</time>
      </trkpt>
      <trkpt lat="43.22201" lon="5.6299">
        <ele>175.08984375</ele>
        <time>2021-10-23T07:10:28Z</time>
      </trkpt>
      <trkpt lat="43.222" lon="5.62991">
        <ele>174.9609375</ele>
        <time>2021-10-23T07:10:52Z</time>
      </trkpt>
      <trkpt lat="43.22206" lon="5.63004">
        <ele>175.4453125</ele>
        <time>2021-10-23T07:10:58Z</time>
      </trkpt>
      <trkpt lat="43.22212" lon="5.6301">
        <ele>176.37890625</ele>
        <time>2021-10-23T07:11:03Z</time>
      </trkpt>
      <trkpt lat="43.22219" lon="5.63034">
        <ele>177.078125</ele>
        <time>2021-10-23T07:11:11Z</time>
      </trkpt>
      <trkpt lat="43.22228" lon="5.6303">
        <ele>178.57421875</ele>
        <time>2021-10-23T07:11:15Z</time>
      </trkpt>
      <trkpt lat="43.22229" lon="5.6301">
        <ele>179.15625</ele>
        <time>2021-10-23T07:11:22Z</time>
      </trkpt>
      <trkpt lat="43.22237" lon="5.62999">
        <ele>180.31640625</ele>
        <time>2021-10-23T07:11:28Z</time>
      </trkpt>
      <trkpt lat="43.22249" lon="5.63014">
        <ele>182.11328125</ele>
        <time>2021-10-23T07:11:37Z</time>
      </trkpt>
      <trkpt lat="43.2227" lon="5.63045">
        <ele>182.51953125</ele>
        <time>2021-10-23T07:11:51Z</time>
      </trkpt>
      <trkpt lat="43.22296" lon="5.63089">
        <ele>183.5625</ele>
        <time>2021-10-23T07:12:07Z</time>
      </trkpt>
      <trkpt lat="43.22319" lon="5.63129">
        <ele>183.8203125</ele>
        <time>2021-10-23T07:12:22Z</time>
      </trkpt>
      <trkpt lat="43.22338" lon="5.63164">
        <ele>185.80078125</ele>
        <time>2021-10-23T07:12:36Z</time>
      </trkpt>
      <trkpt lat="43.22354" lon="5.63223">
        <ele>191.64453125</ele>
        <time>2021-10-23T07:12:55Z</time>
      </trkpt>
      <trkpt lat="43.22367" lon="5.63257">
        <ele>196.41015625</ele>
        <time>2021-10-23T07:13:08Z</time>
      </trkpt>
      <trkpt lat="43.22383" lon="5.63278">
        <ele>200.39453125</ele>
        <time>2021-10-23T07:13:19Z</time>
      </trkpt>
      <trkpt lat="43.22408" lon="5.63289">
        <ele>201.62890625</ele>
        <time>2021-10-23T07:13:32Z</time>
      </trkpt>
      <trkpt lat="43.2243" lon="5.63309">
        <ele>203.69921875</ele>
        <time>2021-10-23T07:13:45Z</time>
      </trkpt>
      <trkpt lat="43.22461" lon="5.63332">
        <ele>207.25390625</ele>
        <time>2021-10-23T07:14:03Z</time>
      </trkpt>
      <trkpt lat="43.2248" lon="5.63348">
        <ele>208.88671875</ele>
        <time>2021-10-23T07:14:15Z</time>
      </trkpt>
      <trkpt lat="43.22503" lon="5.63366">
        <ele>209.8359375</ele>
        <time>2021-10-23T07:14:29Z</time>
      </trkpt>
      <trkpt lat="43.22526" lon="5.63383">
        <ele>209.8828125</ele>
        <time>2021-10-23T07:14:43Z</time>
      </trkpt>
      <trkpt lat="43.2255" lon="5.63415">
        <ele>212.83203125</ele>
        <time>2021-10-23T07:14:59Z</time>
      </trkpt>
      <trkpt lat="43.22578" lon="5.63438">
        <ele>209.8359375</ele>
        <time>2021-10-23T07:15:14Z</time>
      </trkpt>
      <trkpt lat="43.22587" lon="5.63491">
        <ele>217.109375</ele>
        <time>2021-10-23T07:15:30Z</time>
      </trkpt>
      <trkpt lat="43.22599" lon="5.63537">
        <ele>221.2421875</ele>
        <time>2021-10-23T07:15:45Z</time>
      </trkpt>
      <trkpt lat="43.22626" lon="5.6356">
        <ele>225.609375</ele>
        <time>2021-10-23T07:16:00Z</time>
      </trkpt>
      <trkpt lat="43.22632" lon="5.63565">
        <ele>227.0390625</ele>
        <time>2021-10-23T07:16:04Z</time>
      </trkpt>
      <trkpt lat="43.22646" lon="5.6358">
        <ele>231.05078125</ele>
        <time>2021-10-23T07:16:13Z</time>
      </trkpt>
      <trkpt lat="43.22656" lon="5.63608">
        <ele>235.8203125</ele>
        <time>2021-10-23T07:16:26Z</time>
      </trkpt>
      <trkpt lat="43.22664" lon="5.63642">
        <ele>240.30859375</ele>
        <time>2021-10-23T07:16:41Z</time>
      </trkpt>
      <trkpt lat="43.22672" lon="5.63674">
        <ele>244.03125</ele>
        <time>2021-10-23T07:16:54Z</time>
      </trkpt>
      <trkpt lat="43.22682" lon="5.63712">
        <ele>246.23046875</ele>
        <time>2021-10-23T07:17:09Z</time>
      </trkpt>
      <trkpt lat="43.22703" lon="5.63742">
        <ele>250.46875</ele>
        <time>2021-10-23T07:17:25Z</time>
      </trkpt>
      <trkpt lat="43.22709" lon="5.63749">
        <ele>251.26953125</ele>
        <time>2021-10-23T07:17:29Z</time>
      </trkpt>
      <trkpt lat="43.22729" lon="5.63775">
        <ele>254.1640625</ele>
        <time>2021-10-23T07:17:45Z</time>
      </trkpt>
      <trkpt lat="43.22752" lon="5.63792">
        <ele>258.4765625</ele>
        <time>2021-10-23T07:18:00Z</time>
      </trkpt>
      <trkpt lat="43.22771" lon="5.63808">
        <ele>260.94140625</ele>
        <time>2021-10-23T07:18:14Z</time>
      </trkpt>
      <trkpt lat="43.22792" lon="5.63829">
        <ele>264.48828125</ele>
        <time>2021-10-23T07:18:29Z</time>
      </trkpt>
      <trkpt lat="43.22809" lon="5.63852">
        <ele>269.62109375</ele>
        <time>2021-10-23T07:18:42Z</time>
      </trkpt>
      <trkpt lat="43.22821" lon="5.63891">
        <ele>272.94921875</ele>
        <time>2021-10-23T07:18:58Z</time>
      </trkpt>
      <trkpt lat="43.22819" lon="5.63914">
        <ele>270.890625</ele>
        <time>2021-10-23T07:19:07Z</time>
      </trkpt>
      <trkpt lat="43.22831" lon="5.63946">
        <ele>272.7890625</ele>
        <time>2021-10-23T07:19:21Z</time>
      </trkpt>
      <trkpt lat="43.22848" lon="5.63969">
        <ele>276.33203125</ele>
        <time>2021-10-23T07:19:34Z</time>
      </trkpt>
      <trkpt lat="43.22864" lon="5.64001">
        <ele>279.48046875</ele>
        <time>2021-10-23T07:19:49Z</time>
      </trkpt>
      <trkpt lat="43.2287" lon="5.64009">
        <ele>280.53515625</ele>
        <time>2021-10-23T07:19:54Z</time>
      </trkpt>
      <trkpt lat="43.22871" lon="5.64008">
        <ele>280.89453125</ele>
        <time>2021-10-23T07:19:55Z</time>
      </trkpt>
      <trkpt lat="43.22872" lon="5.64007">
        <ele>281.27734375</ele>
        <time>2021-10-23T07:19:56Z</time>
      </trkpt>
      <trkpt lat="43.22873" lon="5.64005">
        <ele>281.578125</ele>
        <time>2021-10-23T07:19:57Z</time>
      </trkpt>
      <trkpt lat="43.22873" lon="5.64002">
        <ele>281.7578125</ele>
        <time>2021-10-23T07:19:58Z</time>
      </trkpt>
      <trkpt lat="43.22872" lon="5.6396">
        <ele>283.58984375</ele>
        <time>2021-10-23T07:20:14Z</time>
      </trkpt>
      <trkpt lat="43.2288" lon="5.63917">
        <ele>287.33203125</ele>
        <time>2021-10-23T07:20:30Z</time>
      </trkpt>
      <trkpt lat="43.22883" lon="5.63886">
        <ele>287.99609375</ele>
        <time>2021-10-23T07:20:42Z</time>
      </trkpt>
      <trkpt lat="43.22884" lon="5.6388">
        <ele>288.25</ele>
        <time>2021-10-23T07:20:45Z</time>
      </trkpt>
      <trkpt lat="43.22886" lon="5.63879">
        <ele>288.4921875</ele>
        <time>2021-10-23T07:20:46Z</time>
      </trkpt>
      <trkpt lat="43.22888" lon="5.6388">
        <ele>288.90234375</ele>
        <time>2021-10-23T07:20:47Z</time>
      </trkpt>
      <trkpt lat="43.2289" lon="5.63881">
        <ele>289.30078125</ele>
        <time>2021-10-23T07:20:48Z</time>
      </trkpt>
      <trkpt lat="43.22892" lon="5.63883">
        <ele>289.60546875</ele>
        <time>2021-10-23T07:20:49Z</time>
      </trkpt>
      <trkpt lat="43.22893" lon="5.63885">
        <ele>289.81640625</ele>
        <time>2021-10-23T07:20:50Z</time>
      </trkpt>
      <trkpt lat="43.22893" lon="5.63888">
        <ele>289.91015625</ele>
        <time>2021-10-23T07:20:51Z</time>
      </trkpt>
      <trkpt lat="43.22894" lon="5.63891">
        <ele>290</ele>
        <time>2021-10-23T07:20:52Z</time>
      </trkpt>
      <trkpt lat="43.22907" lon="5.63929">
        <ele>292.34375</ele>
        <time>2021-10-23T07:21:07Z</time>
      </trkpt>
      <trkpt lat="43.2293" lon="5.63963">
        <ele>296.55078125</ele>
        <time>2021-10-23T07:21:25Z</time>
      </trkpt>
      <trkpt lat="43.22954" lon="5.63994">
        <ele>300.67578125</ele>
        <time>2021-10-23T07:21:42Z</time>
      </trkpt>
      <trkpt lat="43.22972" lon="5.64021">
        <ele>302.82421875</ele>
        <time>2021-10-23T07:21:56Z</time>
      </trkpt>
      <trkpt lat="43.2299" lon="5.64056">
        <ele>305.59765625</ele>
        <time>2021-10-23T07:22:12Z</time>
      </trkpt>
      <trkpt lat="43.23009" lon="5.64098">
        <ele>308.72265625</ele>
        <time>2021-10-23T07:22:30Z</time>
      </trkpt>
      <trkpt lat="43.23019" lon="5.64107">
        <ele>309.98828125</ele>
        <time>2021-10-23T07:22:37Z</time>
      </trkpt>
      <trkpt lat="43.23021" lon="5.64106">
        <ele>310.26953125</ele>
        <time>2021-10-23T07:22:38Z</time>
      </trkpt>
      <trkpt lat="43.23024" lon="5.64102">
        <ele>310.79296875</ele>
        <time>2021-10-23T07:22:40Z</time>
      </trkpt>
      <trkpt lat="43.23025" lon="5.64099">
        <ele>310.9609375</ele>
        <time>2021-10-23T07:22:41Z</time>
      </trkpt>
      <trkpt lat="43.23026" lon="5.64096">
        <ele>311.08984375</ele>
        <time>2021-10-23T07:22:42Z</time>
      </trkpt>
      <trkpt lat="43.23026" lon="5.64093">
        <ele>311.15234375</ele>
        <time>2021-10-23T07:22:43Z</time>
      </trkpt>
      <trkpt lat="43.23026" lon="5.6409">
        <ele>311.1796875</ele>
        <time>2021-10-23T07:22:44Z</time>
      </trkpt>
      <trkpt lat="43.23034" lon="5.64054">
        <ele>310.609375</ele>
        <time>2021-10-23T07:22:59Z</time>
      </trkpt>
      <trkpt lat="43.23037" lon="5.64053">
        <ele>310.609375</ele>
        <time>2021-10-23T07:23:01Z</time>
      </trkpt>
      <trkpt lat="43.2304" lon="5.64054">
        <ele>310.6953125</ele>
        <time>2021-10-23T07:23:02Z</time>
      </trkpt>
      <trkpt lat="43.23041" lon="5.64055">
        <ele>310.84765625</ele>
        <time>2021-10-23T07:23:03Z</time>
      </trkpt>
      <trkpt lat="43.23043" lon="5.64057">
        <ele>311.02734375</ele>
        <time>2021-10-23T07:23:04Z</time>
      </trkpt>
      <trkpt lat="43.23044" lon="5.64059">
        <ele>311.19921875</ele>
        <time>2021-10-23T07:23:05Z</time>
      </trkpt>
      <trkpt lat="43.23045" lon="5.64061">
        <ele>311.36328125</ele>
        <time>2021-10-23T07:23:06Z</time>
      </trkpt>
      <trkpt lat="43.23046" lon="5.64062">
        <ele>311.50390625</ele>
        <time>2021-10-23T07:23:07Z</time>
      </trkpt>
      <trkpt lat="43.23047" lon="5.64064">
        <ele>311.671875</ele>
        <time>2021-10-23T07:23:08Z</time>
      </trkpt>
      <trkpt lat="43.23048" lon="5.64066">
        <ele>311.87890625</ele>
        <time>2021-10-23T07:23:09Z</time>
      </trkpt>
      <trkpt lat="43.23067" lon="5.64099">
        <ele>314.171875</ele>
        <time>2021-10-23T07:23:24Z</time>
      </trkpt>
      <trkpt lat="43.23083" lon="5.64139">
        <ele>316.23828125</ele>
        <time>2021-10-23T07:23:39Z</time>
      </trkpt>
      <trkpt lat="43.23097" lon="5.6417">
        <ele>318.80078125</ele>
        <time>2021-10-23T07:23:52Z</time>
      </trkpt>
      <trkpt lat="43.23115" lon="5.64205">
        <ele>321.48046875</ele>
        <time>2021-10-23T07:24:07Z</time>
      </trkpt>
      <trkpt lat="43.23132" lon="5.64234">
        <ele>322.78125</ele>
        <time>2021-10-23T07:24:21Z</time>
      </trkpt>
      <trkpt lat="43.23146" lon="5.64268">
        <ele>326.91015625</ele>
        <time>2021-10-23T07:24:36Z</time>
      </trkpt>
      <trkpt lat="43.23154" lon="5.64305">
        <ele>330.1171875</ele>
        <time>2021-10-23T07:24:50Z</time>
      </trkpt>
      <trkpt lat="43.23165" lon="5.64344">
        <ele>331.58203125</ele>
        <time>2021-10-23T07:25:05Z</time>
      </trkpt>
      <trkpt lat="43.23183" lon="5.6438">
        <ele>331.41015625</ele>
        <time>2021-10-23T07:25:20Z</time>
      </trkpt>
      <trkpt lat="43.2321" lon="5.64433">
        <ele>336.09765625</ele>
        <time>2021-10-23T07:25:39Z</time>
      </trkpt>
      <trkpt lat="43.23226" lon="5.64475">
        <ele>340.75</ele>
        <time>2021-10-23T07:25:53Z</time>
      </trkpt>
      <trkpt lat="43.23231" lon="5.64498">
        <ele>343.28125</ele>
        <time>2021-10-23T07:25:59Z</time>
      </trkpt>
      <trkpt lat="43.23238" lon="5.64519">
        <ele>346.11328125</ele>
        <time>2021-10-23T07:26:05Z</time>
      </trkpt>
      <trkpt lat="43.23243" lon="5.6455">
        <ele>348.7578125</ele>
        <time>2021-10-23T07:26:18Z</time>
      </trkpt>
      <trkpt lat="43.23245" lon="5.64553">
        <ele>349.171875</ele>
        <time>2021-10-23T07:26:20Z</time>
      </trkpt>
      <trkpt lat="43.23266" lon="5.64562">
        <ele>352.83203125</ele>
        <time>2021-10-23T07:26:32Z</time>
      </trkpt>
      <trkpt lat="43.23278" lon="5.64588">
        <ele>356.16015625</ele>
        <time>2021-10-23T07:26:44Z</time>
      </trkpt>
      <trkpt lat="43.23297" lon="5.64636">
        <ele>361.42578125</ele>
        <time>2021-10-23T07:27:02Z</time>
      </trkpt>
      <trkpt lat="43.23305" lon="5.64657">
        <ele>364.1640625</ele>
        <time>2021-10-23T07:27:10Z</time>
      </trkpt>
      <trkpt lat="43.23325" lon="5.64701">
        <ele>370.265625</ele>
        <time>2021-10-23T07:27:28Z</time>
      </trkpt>
      <trkpt lat="43.23344" lon="5.6474">
        <ele>375.1796875</ele>
        <time>2021-10-23T07:27:43Z</time>
      </trkpt>
      <trkpt lat="43.23365" lon="5.64778">
        <ele>379.8671875</ele>
        <time>2021-10-23T07:27:59Z</time>
      </trkpt>
      <trkpt lat="43.23375" lon="5.6481">
        <ele>380.4765625</ele>
        <time>2021-10-23T07:28:11Z</time>
      </trkpt>
      <trkpt lat="43.23388" lon="5.6485">
        <ele>381.9921875</ele>
        <time>2021-10-23T07:28:26Z</time>
      </trkpt>
      <trkpt lat="43.23412" lon="5.64883">
        <ele>385.34375</ele>
        <time>2021-10-23T07:28:41Z</time>
      </trkpt>
      <trkpt lat="43.23442" lon="5.64906">
        <ele>392.96875</ele>
        <time>2021-10-23T07:28:56Z</time>
      </trkpt>
      <trkpt lat="43.23449" lon="5.64938">
        <ele>395.1171875</ele>
        <time>2021-10-23T07:29:09Z</time>
      </trkpt>
      <trkpt lat="43.23445" lon="5.64948">
        <ele>394.09375</ele>
        <time>2021-10-23T07:29:13Z</time>
      </trkpt>
      <trkpt lat="43.23448" lon="5.64984">
        <ele>394.8125</ele>
        <time>2021-10-23T07:29:26Z</time>
      </trkpt>
      <trkpt lat="43.2346" lon="5.65013">
        <ele>396.99609375</ele>
        <time>2021-10-23T07:29:38Z</time>
      </trkpt>
      <trkpt lat="43.23474" lon="5.65042">
        <ele>398.46875</ele>
        <time>2021-10-23T07:29:50Z</time>
      </trkpt>
      <trkpt lat="43.23488" lon="5.65064">
        <ele>400.92578125</ele>
        <time>2021-10-23T07:30:00Z</time>
      </trkpt>
      <trkpt lat="43.23512" lon="5.65097">
        <ele>403.51953125</ele>
        <time>2021-10-23T07:30:16Z</time>
      </trkpt>
      <trkpt lat="43.23532" lon="5.65129">
        <ele>405.64453125</ele>
        <time>2021-10-23T07:30:30Z</time>
      </trkpt>
      <trkpt lat="43.23539" lon="5.65141">
        <ele>405.30078125</ele>
        <time>2021-10-23T07:30:43Z</time>
      </trkpt>
      <trkpt lat="43.2354" lon="5.65142">
        <ele>405.23828125</ele>
        <time>2021-10-23T07:30:52Z</time>
      </trkpt>
      <trkpt lat="43.23541" lon="5.65142">
        <ele>405.5078125</ele>
        <time>2021-10-23T07:30:53Z</time>
      </trkpt>
      <trkpt lat="43.23543" lon="5.65142">
        <ele>405.79296875</ele>
        <time>2021-10-23T07:30:54Z</time>
      </trkpt>
      <trkpt lat="43.23544" lon="5.65143">
        <ele>406.0078125</ele>
        <time>2021-10-23T07:30:55Z</time>
      </trkpt>
      <trkpt lat="43.23545" lon="5.65143">
        <ele>406.19140625</ele>
        <time>2021-10-23T07:30:56Z</time>
      </trkpt>
      <trkpt lat="43.23547" lon="5.65143">
        <ele>406.3984375</ele>
        <time>2021-10-23T07:30:57Z</time>
      </trkpt>
      <trkpt lat="43.23548" lon="5.65143">
        <ele>406.67578125</ele>
        <time>2021-10-23T07:30:58Z</time>
      </trkpt>
      <trkpt lat="43.23549" lon="5.65143">
        <ele>406.94921875</ele>
        <time>2021-10-23T07:30:59Z</time>
      </trkpt>
      <trkpt lat="43.23552" lon="5.65143">
        <ele>407.46875</ele>
        <time>2021-10-23T07:31:17Z</time>
      </trkpt>
      <trkpt lat="43.23554" lon="5.65145">
        <ele>407.60546875</ele>
        <time>2021-10-23T07:31:51Z</time>
      </trkpt>
      <trkpt lat="43.23552" lon="5.65142">
        <ele>407.52734375</ele>
        <time>2021-10-23T07:32:10Z</time>
      </trkpt>
      <trkpt lat="43.23554" lon="5.65142">
        <ele>407.8515625</ele>
        <time>2021-10-23T07:32:14Z</time>
      </trkpt>
      <trkpt lat="43.23555" lon="5.65143">
        <ele>407.9609375</ele>
        <time>2021-10-23T07:32:15Z</time>
      </trkpt>
      <trkpt lat="43.23557" lon="5.65144">
        <ele>408.23828125</ele>
        <time>2021-10-23T07:32:28Z</time>
      </trkpt>
      <trkpt lat="43.23556" lon="5.65142">
        <ele>408.28515625</ele>
        <time>2021-10-23T07:32:44Z</time>
      </trkpt>
      <trkpt lat="43.2356" lon="5.65145">
        <ele>408.71875</ele>
        <time>2021-10-23T07:33:14Z</time>
      </trkpt>
      <trkpt lat="43.23556" lon="5.65146">
        <ele>407.91015625</ele>
        <time>2021-10-23T07:33:49Z</time>
      </trkpt>
      <trkpt lat="43.23555" lon="5.65145">
        <ele>407.8671875</ele>
        <time>2021-10-23T07:34:00Z</time>
      </trkpt>
      <trkpt lat="43.2358" lon="5.65136">
        <ele>413.8046875</ele>
        <time>2021-10-23T07:34:14Z</time>
      </trkpt>
      <trkpt lat="43.23606" lon="5.65133">
        <ele>420.609375</ele>
        <time>2021-10-23T07:34:29Z</time>
      </trkpt>
      <trkpt lat="43.23612" lon="5.65165">
        <ele>422.12109375</ele>
        <time>2021-10-23T07:34:42Z</time>
      </trkpt>
      <trkpt lat="43.23619" lon="5.65211">
        <ele>423.62890625</ele>
        <time>2021-10-23T07:34:58Z</time>
      </trkpt>
      <trkpt lat="43.23623" lon="5.65257">
        <ele>425.93359375</ele>
        <time>2021-10-23T07:35:13Z</time>
      </trkpt>
      <trkpt lat="43.23625" lon="5.65308">
        <ele>427.73046875</ele>
        <time>2021-10-23T07:35:29Z</time>
      </trkpt>
      <trkpt lat="43.23631" lon="5.6536">
        <ele>428.3359375</ele>
        <time>2021-10-23T07:35:45Z</time>
      </trkpt>
      <trkpt lat="43.23656" lon="5.65391">
        <ele>428.7265625</ele>
        <time>2021-10-23T07:35:59Z</time>
      </trkpt>
      <trkpt lat="43.2367" lon="5.65394">
        <ele>429.375</ele>
        <time>2021-10-23T07:36:05Z</time>
      </trkpt>
      <trkpt lat="43.23694" lon="5.6541">
        <ele>428.69140625</ele>
        <time>2021-10-23T07:36:20Z</time>
      </trkpt>
      <trkpt lat="43.23693" lon="5.65409">
        <ele>428.71875</ele>
        <time>2021-10-23T07:36:36Z</time>
      </trkpt>
      <trkpt lat="43.23695" lon="5.65411">
        <ele>428.625</ele>
        <time>2021-10-23T07:36:39Z</time>
      </trkpt>
      <trkpt lat="43.23696" lon="5.65408">
        <ele>428.84375</ele>
        <time>2021-10-23T07:36:41Z</time>
      </trkpt>
      <trkpt lat="43.23696" lon="5.65405">
        <ele>429.00390625</ele>
        <time>2021-10-23T07:36:42Z</time>
      </trkpt>
      <trkpt lat="43.23694" lon="5.65404">
        <ele>429.06640625</ele>
        <time>2021-10-23T07:36:43Z</time>
      </trkpt>
      <trkpt lat="43.23693" lon="5.65403">
        <ele>429.09375</ele>
        <time>2021-10-23T07:36:44Z</time>
      </trkpt>
      <trkpt lat="43.2369" lon="5.65403">
        <ele>429.07421875</ele>
        <time>2021-10-23T07:36:56Z</time>
      </trkpt>
      <trkpt lat="43.23679" lon="5.65399">
        <ele>429.24609375</ele>
        <time>2021-10-23T07:37:12Z</time>
      </trkpt>
      <trkpt lat="43.23642" lon="5.65386">
        <ele>428.29296875</ele>
        <time>2021-10-23T07:37:22Z</time>
      </trkpt>
      <trkpt lat="43.2364" lon="5.65387">
        <ele>428.04296875</ele>
        <time>2021-10-23T07:37:23Z</time>
      </trkpt>
      <trkpt lat="43.23633" lon="5.65391">
        <ele>427.078125</ele>
        <time>2021-10-23T07:37:26Z</time>
      </trkpt>
      <trkpt lat="43.23631" lon="5.65406">
        <ele>426.125</ele>
        <time>2021-10-23T07:37:31Z</time>
      </trkpt>
      <trkpt lat="43.23617" lon="5.65418">
        <ele>424.65234375</ele>
        <time>2021-10-23T07:37:37Z</time>
      </trkpt>
      <trkpt lat="43.23611" lon="5.65429">
        <ele>423.5234375</ele>
        <time>2021-10-23T07:37:40Z</time>
      </trkpt>
      <trkpt lat="43.23607" lon="5.65438">
        <ele>422.5078125</ele>
        <time>2021-10-23T07:37:42Z</time>
      </trkpt>
      <trkpt lat="43.23596" lon="5.6546">
        <ele>419.9296875</ele>
        <time>2021-10-23T07:37:46Z</time>
      </trkpt>
      <trkpt lat="43.23585" lon="5.6548">
        <ele>416.9921875</ele>
        <time>2021-10-23T07:37:52Z</time>
      </trkpt>
      <trkpt lat="43.23572" lon="5.65487">
        <ele>413.72265625</ele>
        <time>2021-10-23T07:37:56Z</time>
      </trkpt>
      <trkpt lat="43.23568" lon="5.65493">
        <ele>412.5703125</ele>
        <time>2021-10-23T07:37:58Z</time>
      </trkpt>
      <trkpt lat="43.23557" lon="5.65496">
        <ele>409.90625</ele>
        <time>2021-10-23T07:38:03Z</time>
      </trkpt>
      <trkpt lat="43.23549" lon="5.65504">
        <ele>407.73046875</ele>
        <time>2021-10-23T07:38:07Z</time>
      </trkpt>
      <trkpt lat="43.23546" lon="5.65516">
        <ele>406.54296875</ele>
        <time>2021-10-23T07:38:11Z</time>
      </trkpt>
      <trkpt lat="43.23539" lon="5.65533">
        <ele>403.9921875</ele>
        <time>2021-10-23T07:38:14Z</time>
      </trkpt>
      <trkpt lat="43.23532" lon="5.65556">
        <ele>402.296875</ele>
        <time>2021-10-23T07:38:18Z</time>
      </trkpt>
      <trkpt lat="43.23527" lon="5.65562">
        <ele>400.84765625</ele>
        <time>2021-10-23T07:38:20Z</time>
      </trkpt>
      <trkpt lat="43.2352" lon="5.65568">
        <ele>398.8671875</ele>
        <time>2021-10-23T07:38:23Z</time>
      </trkpt>
      <trkpt lat="43.23508" lon="5.65573">
        <ele>395.2734375</ele>
        <time>2021-10-23T07:38:29Z</time>
      </trkpt>
      <trkpt lat="43.23496" lon="5.65587">
        <ele>392.6796875</ele>
        <time>2021-10-23T07:38:34Z</time>
      </trkpt>
      <trkpt lat="43.23494" lon="5.6559">
        <ele>392.13671875</ele>
        <time>2021-10-23T07:38:35Z</time>
      </trkpt>
      <trkpt lat="43.23479" lon="5.65605">
        <ele>388.859375</ele>
        <time>2021-10-23T07:38:40Z</time>
      </trkpt>
      <trkpt lat="43.23478" lon="5.65608">
        <ele>388.9375</ele>
        <time>2021-10-23T07:38:55Z</time>
      </trkpt>
      <trkpt lat="43.23475" lon="5.6561">
        <ele>388.1171875</ele>
        <time>2021-10-23T07:39:08Z</time>
      </trkpt>
      <trkpt lat="43.23473" lon="5.65612">
        <ele>387.53125</ele>
        <time>2021-10-23T07:39:09Z</time>
      </trkpt>
      <trkpt lat="43.2347" lon="5.65615">
        <ele>386.8828125</ele>
        <time>2021-10-23T07:39:10Z</time>
      </trkpt>
      <trkpt lat="43.23467" lon="5.6562">
        <ele>386.26171875</ele>
        <time>2021-10-23T07:39:11Z</time>
      </trkpt>
      <trkpt lat="43.23464" lon="5.65626">
        <ele>385.56640625</ele>
        <time>2021-10-23T07:39:12Z</time>
      </trkpt>
      <trkpt lat="43.23454" lon="5.65639">
        <ele>383.5390625</ele>
        <time>2021-10-23T07:39:14Z</time>
      </trkpt>
      <trkpt lat="43.23445" lon="5.65656">
        <ele>381.88671875</ele>
        <time>2021-10-23T07:39:16Z</time>
      </trkpt>
      <trkpt lat="43.23437" lon="5.65675">
        <ele>380.47265625</ele>
        <time>2021-10-23T07:39:18Z</time>
      </trkpt>
      <trkpt lat="43.23414" lon="5.65722">
        <ele>375.4296875</ele>
        <time>2021-10-23T07:39:23Z</time>
      </trkpt>
      <trkpt lat="43.23408" lon="5.65729">
        <ele>374.24609375</ele>
        <time>2021-10-23T07:39:24Z</time>
      </trkpt>
      <trkpt lat="43.23402" lon="5.65733">
        <ele>372.890625</ele>
        <time>2021-10-23T07:39:25Z</time>
      </trkpt>
      <trkpt lat="43.23395" lon="5.65734">
        <ele>371.28125</ele>
        <time>2021-10-23T07:39:26Z</time>
      </trkpt>
      <trkpt lat="43.23389" lon="5.6573">
        <ele>370.203125</ele>
        <time>2021-10-23T07:39:27Z</time>
      </trkpt>
      <trkpt lat="43.23384" lon="5.65725">
        <ele>369.49609375</ele>
        <time>2021-10-23T07:39:28Z</time>
      </trkpt>
      <trkpt lat="43.23381" lon="5.6572">
        <ele>368.95703125</ele>
        <time>2021-10-23T07:39:29Z</time>
      </trkpt>
      <trkpt lat="43.23378" lon="5.65715">
        <ele>368.515625</ele>
        <time>2021-10-23T07:39:30Z</time>
      </trkpt>
      <trkpt lat="43.23374" lon="5.65704">
        <ele>367.6796875</ele>
        <time>2021-10-23T07:39:32Z</time>
      </trkpt>
      <trkpt lat="43.23374" lon="5.65699">
        <ele>367.46484375</ele>
        <time>2021-10-23T07:39:33Z</time>
      </trkpt>
      <trkpt lat="43.23376" lon="5.65694">
        <ele>367.4921875</ele>
        <time>2021-10-23T07:39:34Z</time>
      </trkpt>
      <trkpt lat="43.23379" lon="5.65691">
        <ele>367.7109375</ele>
        <time>2021-10-23T07:39:35Z</time>
      </trkpt>
      <trkpt lat="43.23382" lon="5.6569">
        <ele>368.00390625</ele>
        <time>2021-10-23T07:39:36Z</time>
      </trkpt>
      <trkpt lat="43.23384" lon="5.6569">
        <ele>368.2734375</ele>
        <time>2021-10-23T07:39:37Z</time>
      </trkpt>
      <trkpt lat="43.23386" lon="5.65691">
        <ele>368.48046875</ele>
        <time>2021-10-23T07:39:38Z</time>
      </trkpt>
      <trkpt lat="43.23388" lon="5.65692">
        <ele>368.66796875</ele>
        <time>2021-10-23T07:39:39Z</time>
      </trkpt>
      <trkpt lat="43.23389" lon="5.65694">
        <ele>368.92578125</ele>
        <time>2021-10-23T07:39:40Z</time>
      </trkpt>
      <trkpt lat="43.23392" lon="5.65695">
        <ele>369.2109375</ele>
        <time>2021-10-23T07:39:41Z</time>
      </trkpt>
      <trkpt lat="43.23394" lon="5.65695">
        <ele>369.53515625</ele>
        <time>2021-10-23T07:39:42Z</time>
      </trkpt>
      <trkpt lat="43.23396" lon="5.65693">
        <ele>370.1015625</ele>
        <time>2021-10-23T07:39:43Z</time>
      </trkpt>
      <trkpt lat="43.23398" lon="5.6569">
        <ele>370.45703125</ele>
        <time>2021-10-23T07:39:44Z</time>
      </trkpt>
      <trkpt lat="43.23399" lon="5.65688">
        <ele>370.59765625</ele>
        <time>2021-10-23T07:39:45Z</time>
      </trkpt>
      <trkpt lat="43.23401" lon="5.65682">
        <ele>371.06640625</ele>
        <time>2021-10-23T07:39:56Z</time>
      </trkpt>
      <trkpt lat="43.23401" lon="5.6568">
        <ele>370.85546875</ele>
        <time>2021-10-23T07:39:57Z</time>
      </trkpt>
      <trkpt lat="43.23401" lon="5.65676">
        <ele>370.5</ele>
        <time>2021-10-23T07:39:58Z</time>
      </trkpt>
      <trkpt lat="43.234" lon="5.65672">
        <ele>370.01953125</ele>
        <time>2021-10-23T07:39:59Z</time>
      </trkpt>
      <trkpt lat="43.23399" lon="5.65668">
        <ele>369.55078125</ele>
        <time>2021-10-23T07:40:00Z</time>
      </trkpt>
      <trkpt lat="43.23399" lon="5.65664">
        <ele>369.1328125</ele>
        <time>2021-10-23T07:40:01Z</time>
      </trkpt>
      <trkpt lat="43.23399" lon="5.65659">
        <ele>368.76171875</ele>
        <time>2021-10-23T07:40:02Z</time>
      </trkpt>
      <trkpt lat="43.23399" lon="5.65653">
        <ele>368.58984375</ele>
        <time>2021-10-23T07:40:03Z</time>
      </trkpt>
      <trkpt lat="43.234" lon="5.65647">
        <ele>368.5546875</ele>
        <time>2021-10-23T07:40:04Z</time>
      </trkpt>
      <trkpt lat="43.23401" lon="5.6564">
        <ele>368.42578125</ele>
        <time>2021-10-23T07:40:05Z</time>
      </trkpt>
      <trkpt lat="43.23402" lon="5.65632">
        <ele>368.3984375</ele>
        <time>2021-10-23T07:40:06Z</time>
      </trkpt>
      <trkpt lat="43.23406" lon="5.65611">
        <ele>367.40625</ele>
        <time>2021-10-23T07:40:09Z</time>
      </trkpt>
      <trkpt lat="43.23408" lon="5.65598">
        <ele>366.44921875</ele>
        <time>2021-10-23T07:40:11Z</time>
      </trkpt>
      <trkpt lat="43.23408" lon="5.65579">
        <ele>364.703125</ele>
        <time>2021-10-23T07:40:14Z</time>
      </trkpt>
      <trkpt lat="43.23407" lon="5.65573">
        <ele>363.90234375</ele>
        <time>2021-10-23T07:40:15Z</time>
      </trkpt>
      <trkpt lat="43.23405" lon="5.65567">
        <ele>363.109375</ele>
        <time>2021-10-23T07:40:16Z</time>
      </trkpt>
      <trkpt lat="43.234" lon="5.65547">
        <ele>360.46484375</ele>
        <time>2021-10-23T07:40:19Z</time>
      </trkpt>
      <trkpt lat="43.23398" lon="5.6554">
        <ele>359.9453125</ele>
        <time>2021-10-23T07:40:20Z</time>
      </trkpt>
      <trkpt lat="43.23394" lon="5.65522">
        <ele>358.39453125</ele>
        <time>2021-10-23T07:40:23Z</time>
      </trkpt>
      <trkpt lat="43.23392" lon="5.65515">
        <ele>357.8984375</ele>
        <time>2021-10-23T07:40:24Z</time>
      </trkpt>
      <trkpt lat="43.2339" lon="5.65509">
        <ele>357.67578125</ele>
        <time>2021-10-23T07:40:25Z</time>
      </trkpt>
      <trkpt lat="43.23387" lon="5.65504">
        <ele>357.40234375</ele>
        <time>2021-10-23T07:40:26Z</time>
      </trkpt>
      <trkpt lat="43.23384" lon="5.65499">
        <ele>357.06640625</ele>
        <time>2021-10-23T07:40:27Z</time>
      </trkpt>
      <trkpt lat="43.23376" lon="5.65489">
        <ele>356.1328125</ele>
        <time>2021-10-23T07:40:29Z</time>
      </trkpt>
      <trkpt lat="43.23373" lon="5.65484">
        <ele>355.53515625</ele>
        <time>2021-10-23T07:40:30Z</time>
      </trkpt>
      <trkpt lat="43.23369" lon="5.65481">
        <ele>354.89453125</ele>
        <time>2021-10-23T07:40:31Z</time>
      </trkpt>
      <trkpt lat="43.23366" lon="5.65477">
        <ele>354.15625</ele>
        <time>2021-10-23T07:40:32Z</time>
      </trkpt>
      <trkpt lat="43.23363" lon="5.65473">
        <ele>353.60546875</ele>
        <time>2021-10-23T07:40:33Z</time>
      </trkpt>
      <trkpt lat="43.23361" lon="5.65469">
        <ele>353.0390625</ele>
        <time>2021-10-23T07:40:34Z</time>
      </trkpt>
      <trkpt lat="43.23359" lon="5.65463">
        <ele>352.39453125</ele>
        <time>2021-10-23T07:40:35Z</time>
      </trkpt>
      <trkpt lat="43.23357" lon="5.65458">
        <ele>351.83203125</ele>
        <time>2021-10-23T07:40:36Z</time>
      </trkpt>
      <trkpt lat="43.23355" lon="5.65452">
        <ele>351.3359375</ele>
        <time>2021-10-23T07:40:37Z</time>
      </trkpt>
      <trkpt lat="43.23355" lon="5.65447">
        <ele>350.8984375</ele>
        <time>2021-10-23T07:40:38Z</time>
      </trkpt>
      <trkpt lat="43.23355" lon="5.65441">
        <ele>350.49609375</ele>
        <time>2021-10-23T07:40:39Z</time>
      </trkpt>
      <trkpt lat="43.23354" lon="5.65424">
        <ele>349.4609375</ele>
        <time>2021-10-23T07:40:42Z</time>
      </trkpt>
      <trkpt lat="43.23356" lon="5.65417">
        <ele>349.36328125</ele>
        <time>2021-10-23T07:40:43Z</time>
      </trkpt>
      <trkpt lat="43.23358" lon="5.6541">
        <ele>349.59765625</ele>
        <time>2021-10-23T07:40:44Z</time>
      </trkpt>
      <trkpt lat="43.23361" lon="5.65404">
        <ele>349.828125</ele>
        <time>2021-10-23T07:40:45Z</time>
      </trkpt>
      <trkpt lat="43.23363" lon="5.654">
        <ele>349.8671875</ele>
        <time>2021-10-23T07:40:46Z</time>
      </trkpt>
      <trkpt lat="43.23364" lon="5.65394">
        <ele>349.84375</ele>
        <time>2021-10-23T07:40:47Z</time>
      </trkpt>
      <trkpt lat="43.23366" lon="5.65388">
        <ele>349.71875</ele>
        <time>2021-10-23T07:40:48Z</time>
      </trkpt>
      <trkpt lat="43.23367" lon="5.65381">
        <ele>349.63671875</ele>
        <time>2021-10-23T07:40:49Z</time>
      </trkpt>
      <trkpt lat="43.23368" lon="5.65375">
        <ele>349.3046875</ele>
        <time>2021-10-23T07:40:50Z</time>
      </trkpt>
      <trkpt lat="43.23367" lon="5.65369">
        <ele>348.4453125</ele>
        <time>2021-10-23T07:40:51Z</time>
      </trkpt>
      <trkpt lat="43.23365" lon="5.65363">
        <ele>347.2734375</ele>
        <time>2021-10-23T07:40:52Z</time>
      </trkpt>
      <trkpt lat="43.2336" lon="5.6535">
        <ele>344.6640625</ele>
        <time>2021-10-23T07:40:54Z</time>
      </trkpt>
      <trkpt lat="43.23357" lon="5.65345">
        <ele>343.80078125</ele>
        <time>2021-10-23T07:40:55Z</time>
      </trkpt>
      <trkpt lat="43.23354" lon="5.65339">
        <ele>342.953125</ele>
        <time>2021-10-23T07:40:56Z</time>
      </trkpt>
      <trkpt lat="43.2335" lon="5.65332">
        <ele>342.125</ele>
        <time>2021-10-23T07:40:57Z</time>
      </trkpt>
      <trkpt lat="43.23347" lon="5.65326">
        <ele>341.27734375</ele>
        <time>2021-10-23T07:40:58Z</time>
      </trkpt>
      <trkpt lat="43.23344" lon="5.6532">
        <ele>340.3515625</ele>
        <time>2021-10-23T07:40:59Z</time>
      </trkpt>
      <trkpt lat="43.2334" lon="5.65315">
        <ele>339.32421875</ele>
        <time>2021-10-23T07:41:00Z</time>
      </trkpt>
      <trkpt lat="43.23336" lon="5.65311">
        <ele>338.5390625</ele>
        <time>2021-10-23T07:41:01Z</time>
      </trkpt>
      <trkpt lat="43.23333" lon="5.65307">
        <ele>338.25</ele>
        <time>2021-10-23T07:41:02Z</time>
      </trkpt>
      <trkpt lat="43.23332" lon="5.65302">
        <ele>337.921875</ele>
        <time>2021-10-23T07:41:03Z</time>
      </trkpt>
      <trkpt lat="43.23331" lon="5.65296">
        <ele>337.5625</ele>
        <time>2021-10-23T07:41:04Z</time>
      </trkpt>
      <trkpt lat="43.2333" lon="5.65291">
        <ele>337.21484375</ele>
        <time>2021-10-23T07:41:05Z</time>
      </trkpt>
      <trkpt lat="43.2333" lon="5.65285">
        <ele>336.89453125</ele>
        <time>2021-10-23T07:41:06Z</time>
      </trkpt>
      <trkpt lat="43.23331" lon="5.65279">
        <ele>336.68359375</ele>
        <time>2021-10-23T07:41:07Z</time>
      </trkpt>
      <trkpt lat="43.23332" lon="5.65274">
        <ele>336.55078125</ele>
        <time>2021-10-23T07:41:08Z</time>
      </trkpt>
      <trkpt lat="43.23333" lon="5.6527">
        <ele>336.3984375</ele>
        <time>2021-10-23T07:41:09Z</time>
      </trkpt>
      <trkpt lat="43.23333" lon="5.65266">
        <ele>336.16796875</ele>
        <time>2021-10-23T07:41:10Z</time>
      </trkpt>
      <trkpt lat="43.23333" lon="5.65262">
        <ele>335.8828125</ele>
        <time>2021-10-23T07:41:11Z</time>
      </trkpt>
      <trkpt lat="43.23333" lon="5.65259">
        <ele>335.64453125</ele>
        <time>2021-10-23T07:41:12Z</time>
      </trkpt>
      <trkpt lat="43.23332" lon="5.65255">
        <ele>335.2890625</ele>
        <time>2021-10-23T07:41:13Z</time>
      </trkpt>
      <trkpt lat="43.23331" lon="5.65252">
        <ele>334.7578125</ele>
        <time>2021-10-23T07:41:14Z</time>
      </trkpt>
      <trkpt lat="43.23326" lon="5.65242">
        <ele>333.17578125</ele>
        <time>2021-10-23T07:41:27Z</time>
      </trkpt>
      <trkpt lat="43.2332" lon="5.65223">
        <ele>330.40625</ele>
        <time>2021-10-23T07:41:38Z</time>
      </trkpt>
      <trkpt lat="43.23314" lon="5.65214">
        <ele>328.26953125</ele>
        <time>2021-10-23T07:41:41Z</time>
      </trkpt>
      <trkpt lat="43.23311" lon="5.65211">
        <ele>327.12109375</ele>
        <time>2021-10-23T07:41:42Z</time>
      </trkpt>
      <trkpt lat="43.23308" lon="5.65207">
        <ele>326.77734375</ele>
        <time>2021-10-23T07:41:43Z</time>
      </trkpt>
      <trkpt lat="43.23305" lon="5.65202">
        <ele>326.44140625</ele>
        <time>2021-10-23T07:41:44Z</time>
      </trkpt>
      <trkpt lat="43.23303" lon="5.65195">
        <ele>325.9765625</ele>
        <time>2021-10-23T07:41:45Z</time>
      </trkpt>
      <trkpt lat="43.23302" lon="5.65189">
        <ele>325.44140625</ele>
        <time>2021-10-23T07:41:46Z</time>
      </trkpt>
      <trkpt lat="43.23303" lon="5.65182">
        <ele>324.91015625</ele>
        <time>2021-10-23T07:41:47Z</time>
      </trkpt>
      <trkpt lat="43.23304" lon="5.65175">
        <ele>324.35546875</ele>
        <time>2021-10-23T07:41:48Z</time>
      </trkpt>
      <trkpt lat="43.23305" lon="5.65168">
        <ele>323.80859375</ele>
        <time>2021-10-23T07:41:49Z</time>
      </trkpt>
      <trkpt lat="43.23306" lon="5.65161">
        <ele>323.296875</ele>
        <time>2021-10-23T07:41:50Z</time>
      </trkpt>
      <trkpt lat="43.23308" lon="5.65154">
        <ele>322.859375</ele>
        <time>2021-10-23T07:41:51Z</time>
      </trkpt>
      <trkpt lat="43.2331" lon="5.65148">
        <ele>322.69140625</ele>
        <time>2021-10-23T07:41:52Z</time>
      </trkpt>
      <trkpt lat="43.23311" lon="5.65141">
        <ele>322.921875</ele>
        <time>2021-10-23T07:41:53Z</time>
      </trkpt>
      <trkpt lat="43.23312" lon="5.65136">
        <ele>322.78515625</ele>
        <time>2021-10-23T07:41:54Z</time>
      </trkpt>
      <trkpt lat="43.23311" lon="5.6513">
        <ele>322.21875</ele>
        <time>2021-10-23T07:41:55Z</time>
      </trkpt>
      <trkpt lat="43.23309" lon="5.65124">
        <ele>322.01171875</ele>
        <time>2021-10-23T07:41:56Z</time>
      </trkpt>
      <trkpt lat="43.23307" lon="5.65117">
        <ele>321.98828125</ele>
        <time>2021-10-23T07:41:57Z</time>
      </trkpt>
      <trkpt lat="43.23305" lon="5.6511">
        <ele>321.7578125</ele>
        <time>2021-10-23T07:41:58Z</time>
      </trkpt>
      <trkpt lat="43.23301" lon="5.65105">
        <ele>321.30859375</ele>
        <time>2021-10-23T07:41:59Z</time>
      </trkpt>
      <trkpt lat="43.23298" lon="5.651">
        <ele>320.8359375</ele>
        <time>2021-10-23T07:42:00Z</time>
      </trkpt>
      <trkpt lat="43.23295" lon="5.65094">
        <ele>320.62890625</ele>
        <time>2021-10-23T07:42:01Z</time>
      </trkpt>
      <trkpt lat="43.23294" lon="5.65088">
        <ele>320.55859375</ele>
        <time>2021-10-23T07:42:02Z</time>
      </trkpt>
      <trkpt lat="43.23293" lon="5.65084">
        <ele>320.46484375</ele>
        <time>2021-10-23T07:42:03Z</time>
      </trkpt>
      <trkpt lat="43.23291" lon="5.6508">
        <ele>320.078125</ele>
        <time>2021-10-23T07:42:04Z</time>
      </trkpt>
      <trkpt lat="43.23288" lon="5.65075">
        <ele>319.62109375</ele>
        <time>2021-10-23T07:42:05Z</time>
      </trkpt>
      <trkpt lat="43.23286" lon="5.65069">
        <ele>319.30859375</ele>
        <time>2021-10-23T07:42:06Z</time>
      </trkpt>
      <trkpt lat="43.23284" lon="5.65064">
        <ele>319.12109375</ele>
        <time>2021-10-23T07:42:07Z</time>
      </trkpt>
      <trkpt lat="43.23283" lon="5.65058">
        <ele>319.06640625</ele>
        <time>2021-10-23T07:42:08Z</time>
      </trkpt>
      <trkpt lat="43.2328" lon="5.65053">
        <ele>319.05078125</ele>
        <time>2021-10-23T07:42:09Z</time>
      </trkpt>
      <trkpt lat="43.23278" lon="5.65048">
        <ele>318.8125</ele>
        <time>2021-10-23T07:42:10Z</time>
      </trkpt>
      <trkpt lat="43.23276" lon="5.65043">
        <ele>318.66796875</ele>
        <time>2021-10-23T07:42:11Z</time>
      </trkpt>
      <trkpt lat="43.23275" lon="5.65038">
        <ele>318.6015625</ele>
        <time>2021-10-23T07:42:12Z</time>
      </trkpt>
      <trkpt lat="43.23274" lon="5.65033">
        <ele>318.3515625</ele>
        <time>2021-10-23T07:42:13Z</time>
      </trkpt>
      <trkpt lat="43.23271" lon="5.65027">
        <ele>317.83984375</ele>
        <time>2021-10-23T07:42:14Z</time>
      </trkpt>
      <trkpt lat="43.23269" lon="5.65021">
        <ele>317.1328125</ele>
        <time>2021-10-23T07:42:15Z</time>
      </trkpt>
      <trkpt lat="43.2326" lon="5.65">
        <ele>314.92578125</ele>
        <time>2021-10-23T07:42:18Z</time>
      </trkpt>
      <trkpt lat="43.23257" lon="5.64992">
        <ele>313.81640625</ele>
        <time>2021-10-23T07:42:19Z</time>
      </trkpt>
      <trkpt lat="43.23242" lon="5.64957">
        <ele>311.54296875</ele>
        <time>2021-10-23T07:42:24Z</time>
      </trkpt>
      <trkpt lat="43.2324" lon="5.6495">
        <ele>310.7421875</ele>
        <time>2021-10-23T07:42:25Z</time>
      </trkpt>
      <trkpt lat="43.23239" lon="5.64943">
        <ele>310.140625</ele>
        <time>2021-10-23T07:42:26Z</time>
      </trkpt>
      <trkpt lat="43.23237" lon="5.64932">
        <ele>309.2109375</ele>
        <time>2021-10-23T07:42:28Z</time>
      </trkpt>
      <trkpt lat="43.2323" lon="5.64901">
        <ele>306.9921875</ele>
        <time>2021-10-23T07:42:33Z</time>
      </trkpt>
      <trkpt lat="43.23229" lon="5.64894">
        <ele>306.703125</ele>
        <time>2021-10-23T07:42:34Z</time>
      </trkpt>
      <trkpt lat="43.23229" lon="5.64887">
        <ele>306.48046875</ele>
        <time>2021-10-23T07:42:35Z</time>
      </trkpt>
      <trkpt lat="43.23228" lon="5.64871">
        <ele>306.54296875</ele>
        <time>2021-10-23T07:42:37Z</time>
      </trkpt>
      <trkpt lat="43.23227" lon="5.64863">
        <ele>306.5390625</ele>
        <time>2021-10-23T07:42:38Z</time>
      </trkpt>
      <trkpt lat="43.23225" lon="5.64856">
        <ele>306.30078125</ele>
        <time>2021-10-23T07:42:39Z</time>
      </trkpt>
      <trkpt lat="43.23223" lon="5.64849">
        <ele>305.69140625</ele>
        <time>2021-10-23T07:42:40Z</time>
      </trkpt>
      <trkpt lat="43.2322" lon="5.64842">
        <ele>305.02734375</ele>
        <time>2021-10-23T07:42:41Z</time>
      </trkpt>
      <trkpt lat="43.23219" lon="5.64836">
        <ele>304.48046875</ele>
        <time>2021-10-23T07:42:42Z</time>
      </trkpt>
      <trkpt lat="43.23215" lon="5.64826">
        <ele>303.15625</ele>
        <time>2021-10-23T07:42:44Z</time>
      </trkpt>
      <trkpt lat="43.23212" lon="5.64821">
        <ele>301.9296875</ele>
        <time>2021-10-23T07:42:45Z</time>
      </trkpt>
      <trkpt lat="43.23208" lon="5.64816">
        <ele>300.5078125</ele>
        <time>2021-10-23T07:42:46Z</time>
      </trkpt>
      <trkpt lat="43.23201" lon="5.64806">
        <ele>297.80859375</ele>
        <time>2021-10-23T07:42:48Z</time>
      </trkpt>
      <trkpt lat="43.23193" lon="5.6479">
        <ele>296.5625</ele>
        <time>2021-10-23T07:42:51Z</time>
      </trkpt>
      <trkpt lat="43.2319" lon="5.64784">
        <ele>296.453125</ele>
        <time>2021-10-23T07:42:52Z</time>
      </trkpt>
      <trkpt lat="43.23187" lon="5.6477">
        <ele>296.19921875</ele>
        <time>2021-10-23T07:42:54Z</time>
      </trkpt>
      <trkpt lat="43.23186" lon="5.64763">
        <ele>296.51953125</ele>
        <time>2021-10-23T07:42:55Z</time>
      </trkpt>
      <trkpt lat="43.23185" lon="5.64756">
        <ele>297.25390625</ele>
        <time>2021-10-23T07:42:56Z</time>
      </trkpt>
      <trkpt lat="43.23184" lon="5.64748">
        <ele>297.87890625</ele>
        <time>2021-10-23T07:42:57Z</time>
      </trkpt>
      <trkpt lat="43.23181" lon="5.6474">
        <ele>297.89453125</ele>
        <time>2021-10-23T07:42:58Z</time>
      </trkpt>
      <trkpt lat="43.23178" lon="5.64732">
        <ele>297.828125</ele>
        <time>2021-10-23T07:42:59Z</time>
      </trkpt>
      <trkpt lat="43.23175" lon="5.64725">
        <ele>297.53125</ele>
        <time>2021-10-23T07:43:00Z</time>
      </trkpt>
      <trkpt lat="43.23173" lon="5.6472">
        <ele>297.01171875</ele>
        <time>2021-10-23T07:43:01Z</time>
      </trkpt>
      <trkpt lat="43.2317" lon="5.64717">
        <ele>296.3125</ele>
        <time>2021-10-23T07:43:02Z</time>
      </trkpt>
      <trkpt lat="43.23167" lon="5.64715">
        <ele>295.625</ele>
        <time>2021-10-23T07:43:03Z</time>
      </trkpt>
      <trkpt lat="43.23161" lon="5.6471">
        <ele>294.18359375</ele>
        <time>2021-10-23T07:43:05Z</time>
      </trkpt>
      <trkpt lat="43.2313" lon="5.64689">
        <ele>286.984375</ele>
        <time>2021-10-23T07:43:11Z</time>
      </trkpt>
      <trkpt lat="43.23122" lon="5.64685">
        <ele>285.13671875</ele>
        <time>2021-10-23T07:43:13Z</time>
      </trkpt>
      <trkpt lat="43.23117" lon="5.64684">
        <ele>284.16015625</ele>
        <time>2021-10-23T07:43:14Z</time>
      </trkpt>
      <trkpt lat="43.23112" lon="5.64685">
        <ele>283.73046875</ele>
        <time>2021-10-23T07:43:15Z</time>
      </trkpt>
      <trkpt lat="43.23107" lon="5.64686">
        <ele>283.40625</ele>
        <time>2021-10-23T07:43:16Z</time>
      </trkpt>
      <trkpt lat="43.23103" lon="5.64687">
        <ele>283.21484375</ele>
        <time>2021-10-23T07:43:17Z</time>
      </trkpt>
      <trkpt lat="43.23099" lon="5.64687">
        <ele>282.984375</ele>
        <time>2021-10-23T07:43:18Z</time>
      </trkpt>
      <trkpt lat="43.23096" lon="5.64686">
        <ele>282.30859375</ele>
        <time>2021-10-23T07:43:19Z</time>
      </trkpt>
      <trkpt lat="43.23089" lon="5.64682">
        <ele>280.89453125</ele>
        <time>2021-10-23T07:43:21Z</time>
      </trkpt>
      <trkpt lat="43.23084" lon="5.6468">
        <ele>280.296875</ele>
        <time>2021-10-23T07:43:22Z</time>
      </trkpt>
      <trkpt lat="43.2308" lon="5.64678">
        <ele>279.52734375</ele>
        <time>2021-10-23T07:43:23Z</time>
      </trkpt>
      <trkpt lat="43.23076" lon="5.64674">
        <ele>278.48046875</ele>
        <time>2021-10-23T07:43:24Z</time>
      </trkpt>
      <trkpt lat="43.23073" lon="5.6467">
        <ele>277.359375</ele>
        <time>2021-10-23T07:43:25Z</time>
      </trkpt>
      <trkpt lat="43.2307" lon="5.64667">
        <ele>276.25</ele>
        <time>2021-10-23T07:43:26Z</time>
      </trkpt>
      <trkpt lat="43.23067" lon="5.64663">
        <ele>274.98046875</ele>
        <time>2021-10-23T07:43:27Z</time>
      </trkpt>
      <trkpt lat="43.23065" lon="5.64658">
        <ele>273.48046875</ele>
        <time>2021-10-23T07:43:28Z</time>
      </trkpt>
      <trkpt lat="43.23063" lon="5.64653">
        <ele>272.16796875</ele>
        <time>2021-10-23T07:43:29Z</time>
      </trkpt>
      <trkpt lat="43.23061" lon="5.64648">
        <ele>270.93359375</ele>
        <time>2021-10-23T07:43:30Z</time>
      </trkpt>
      <trkpt lat="43.23058" lon="5.64642">
        <ele>270.13671875</ele>
        <time>2021-10-23T07:43:31Z</time>
      </trkpt>
      <trkpt lat="43.23056" lon="5.64635">
        <ele>269.19140625</ele>
        <time>2021-10-23T07:43:32Z</time>
      </trkpt>
      <trkpt lat="43.23055" lon="5.64628">
        <ele>268.19140625</ele>
        <time>2021-10-23T07:43:33Z</time>
      </trkpt>
      <trkpt lat="43.23055" lon="5.64621">
        <ele>268.37890625</ele>
        <time>2021-10-23T07:43:34Z</time>
      </trkpt>
      <trkpt lat="43.23056" lon="5.64615">
        <ele>268.55078125</ele>
        <time>2021-10-23T07:43:35Z</time>
      </trkpt>
      <trkpt lat="43.23058" lon="5.64609">
        <ele>268.734375</ele>
        <time>2021-10-23T07:43:36Z</time>
      </trkpt>
      <trkpt lat="43.23065" lon="5.64585">
        <ele>271.37109375</ele>
        <time>2021-10-23T07:43:41Z</time>
      </trkpt>
      <trkpt lat="43.23067" lon="5.6458">
        <ele>272.09375</ele>
        <time>2021-10-23T07:43:42Z</time>
      </trkpt>
      <trkpt lat="43.23068" lon="5.64575">
        <ele>272.75</ele>
        <time>2021-10-23T07:43:43Z</time>
      </trkpt>
      <trkpt lat="43.23068" lon="5.64571">
        <ele>272.87890625</ele>
        <time>2021-10-23T07:43:44Z</time>
      </trkpt>
      <trkpt lat="43.23068" lon="5.64566">
        <ele>272.39453125</ele>
        <time>2021-10-23T07:43:45Z</time>
      </trkpt>
      <trkpt lat="43.23067" lon="5.6456">
        <ele>271.4609375</ele>
        <time>2021-10-23T07:43:46Z</time>
      </trkpt>
      <trkpt lat="43.23064" lon="5.64555">
        <ele>269.94921875</ele>
        <time>2021-10-23T07:43:47Z</time>
      </trkpt>
      <trkpt lat="43.23062" lon="5.6455">
        <ele>268.03515625</ele>
        <time>2021-10-23T07:43:48Z</time>
      </trkpt>
      <trkpt lat="43.23058" lon="5.64546">
        <ele>266.85546875</ele>
        <time>2021-10-23T07:43:49Z</time>
      </trkpt>
      <trkpt lat="43.23055" lon="5.64542">
        <ele>266.71484375</ele>
        <time>2021-10-23T07:43:50Z</time>
      </trkpt>
      <trkpt lat="43.23053" lon="5.64537">
        <ele>266.7734375</ele>
        <time>2021-10-23T07:43:51Z</time>
      </trkpt>
      <trkpt lat="43.2305" lon="5.64532">
        <ele>266.67578125</ele>
        <time>2021-10-23T07:43:52Z</time>
      </trkpt>
      <trkpt lat="43.23046" lon="5.64527">
        <ele>266.30859375</ele>
        <time>2021-10-23T07:43:53Z</time>
      </trkpt>
      <trkpt lat="43.23032" lon="5.64511">
        <ele>264.171875</ele>
        <time>2021-10-23T07:43:57Z</time>
      </trkpt>
      <trkpt lat="43.23027" lon="5.64505">
        <ele>263.421875</ele>
        <time>2021-10-23T07:43:59Z</time>
      </trkpt>
      <trkpt lat="43.23016" lon="5.64497">
        <ele>260.92578125</ele>
        <time>2021-10-23T07:44:02Z</time>
      </trkpt>
      <trkpt lat="43.23011" lon="5.64494">
        <ele>259.65625</ele>
        <time>2021-10-23T07:44:03Z</time>
      </trkpt>
      <trkpt lat="43.23006" lon="5.6449">
        <ele>258.28125</ele>
        <time>2021-10-23T07:44:04Z</time>
      </trkpt>
      <trkpt lat="43.23001" lon="5.64486">
        <ele>258.02734375</ele>
        <time>2021-10-23T07:44:05Z</time>
      </trkpt>
      <trkpt lat="43.22997" lon="5.64481">
        <ele>257.796875</ele>
        <time>2021-10-23T07:44:06Z</time>
      </trkpt>
      <trkpt lat="43.22994" lon="5.64478">
        <ele>257.41796875</ele>
        <time>2021-10-23T07:44:07Z</time>
      </trkpt>
      <trkpt lat="43.22991" lon="5.64476">
        <ele>257.0234375</ele>
        <time>2021-10-23T07:44:15Z</time>
      </trkpt>
      <trkpt lat="43.22996" lon="5.64477">
        <ele>257.5703125</ele>
        <time>2021-10-23T07:44:32Z</time>
      </trkpt>
      <trkpt lat="43.22992" lon="5.64472">
        <ele>256.86328125</ele>
        <time>2021-10-23T07:44:39Z</time>
      </trkpt>
      <trkpt lat="43.22994" lon="5.64463">
        <ele>256.69140625</ele>
        <time>2021-10-23T07:44:51Z</time>
      </trkpt>
      <trkpt lat="43.22993" lon="5.64451">
        <ele>256.62890625</ele>
        <time>2021-10-23T07:45:02Z</time>
      </trkpt>
      <trkpt lat="43.22994" lon="5.64447">
        <ele>256.734375</ele>
        <time>2021-10-23T07:45:03Z</time>
      </trkpt>
      <trkpt lat="43.22993" lon="5.64442">
        <ele>256.6328125</ele>
        <time>2021-10-23T07:45:04Z</time>
      </trkpt>
      <trkpt lat="43.22991" lon="5.6443">
        <ele>256.375</ele>
        <time>2021-10-23T07:45:06Z</time>
      </trkpt>
      <trkpt lat="43.22991" lon="5.64423">
        <ele>256.4296875</ele>
        <time>2021-10-23T07:45:07Z</time>
      </trkpt>
      <trkpt lat="43.2299" lon="5.64417">
        <ele>256.5703125</ele>
        <time>2021-10-23T07:45:08Z</time>
      </trkpt>
      <trkpt lat="43.2299" lon="5.64412">
        <ele>256.48046875</ele>
        <time>2021-10-23T07:45:09Z</time>
      </trkpt>
      <trkpt lat="43.22988" lon="5.64407">
        <ele>255.87109375</ele>
        <time>2021-10-23T07:45:10Z</time>
      </trkpt>
      <trkpt lat="43.22986" lon="5.64403">
        <ele>255.2265625</ele>
        <time>2021-10-23T07:45:11Z</time>
      </trkpt>
      <trkpt lat="43.22979" lon="5.64395">
        <ele>252.7109375</ele>
        <time>2021-10-23T07:45:13Z</time>
      </trkpt>
      <trkpt lat="43.22975" lon="5.64392">
        <ele>251.6953125</ele>
        <time>2021-10-23T07:45:14Z</time>
      </trkpt>
      <trkpt lat="43.22971" lon="5.6439">
        <ele>251.171875</ele>
        <time>2021-10-23T07:45:15Z</time>
      </trkpt>
      <trkpt lat="43.22966" lon="5.64389">
        <ele>250.375</ele>
        <time>2021-10-23T07:45:16Z</time>
      </trkpt>
      <trkpt lat="43.22961" lon="5.64387">
        <ele>249.48828125</ele>
        <time>2021-10-23T07:45:17Z</time>
      </trkpt>
      <trkpt lat="43.22956" lon="5.64384">
        <ele>248.5546875</ele>
        <time>2021-10-23T07:45:18Z</time>
      </trkpt>
      <trkpt lat="43.22952" lon="5.64379">
        <ele>247.52734375</ele>
        <time>2021-10-23T07:45:19Z</time>
      </trkpt>
      <trkpt lat="43.22947" lon="5.64373">
        <ele>246.95703125</ele>
        <time>2021-10-23T07:45:20Z</time>
      </trkpt>
      <trkpt lat="43.22942" lon="5.64367">
        <ele>246.35546875</ele>
        <time>2021-10-23T07:45:21Z</time>
      </trkpt>
      <trkpt lat="43.22926" lon="5.64352">
        <ele>241.6171875</ele>
        <time>2021-10-23T07:45:24Z</time>
      </trkpt>
      <trkpt lat="43.22918" lon="5.64344">
        <ele>240.73828125</ele>
        <time>2021-10-23T07:45:26Z</time>
      </trkpt>
      <trkpt lat="43.22914" lon="5.64339">
        <ele>241.09765625</ele>
        <time>2021-10-23T07:45:27Z</time>
      </trkpt>
      <trkpt lat="43.22911" lon="5.64333">
        <ele>241.203125</ele>
        <time>2021-10-23T07:45:28Z</time>
      </trkpt>
      <trkpt lat="43.2291" lon="5.64327">
        <ele>241.1875</ele>
        <time>2021-10-23T07:45:29Z</time>
      </trkpt>
      <trkpt lat="43.22909" lon="5.64321">
        <ele>241.10546875</ele>
        <time>2021-10-23T07:45:30Z</time>
      </trkpt>
      <trkpt lat="43.22907" lon="5.64316">
        <ele>240.98046875</ele>
        <time>2021-10-23T07:45:31Z</time>
      </trkpt>
      <trkpt lat="43.22904" lon="5.64312">
        <ele>240.609375</ele>
        <time>2021-10-23T07:45:32Z</time>
      </trkpt>
      <trkpt lat="43.22901" lon="5.64307">
        <ele>240.11328125</ele>
        <time>2021-10-23T07:45:33Z</time>
      </trkpt>
      <trkpt lat="43.22898" lon="5.64303">
        <ele>239.40234375</ele>
        <time>2021-10-23T07:45:34Z</time>
      </trkpt>
      <trkpt lat="43.22895" lon="5.64299">
        <ele>238.42578125</ele>
        <time>2021-10-23T07:45:35Z</time>
      </trkpt>
      <trkpt lat="43.22891" lon="5.64294">
        <ele>237.7578125</ele>
        <time>2021-10-23T07:45:36Z</time>
      </trkpt>
      <trkpt lat="43.22888" lon="5.64289">
        <ele>237.41015625</ele>
        <time>2021-10-23T07:45:37Z</time>
      </trkpt>
      <trkpt lat="43.22885" lon="5.64284">
        <ele>236.82421875</ele>
        <time>2021-10-23T07:45:38Z</time>
      </trkpt>
      <trkpt lat="43.22871" lon="5.64254">
        <ele>232.109375</ele>
        <time>2021-10-23T07:45:43Z</time>
      </trkpt>
      <trkpt lat="43.22868" lon="5.64248">
        <ele>230.921875</ele>
        <time>2021-10-23T07:45:44Z</time>
      </trkpt>
      <trkpt lat="43.22865" lon="5.64243">
        <ele>230.1875</ele>
        <time>2021-10-23T07:45:45Z</time>
      </trkpt>
      <trkpt lat="43.22863" lon="5.64238">
        <ele>230.265625</ele>
        <time>2021-10-23T07:45:46Z</time>
      </trkpt>
      <trkpt lat="43.2286" lon="5.64233">
        <ele>230.36328125</ele>
        <time>2021-10-23T07:45:47Z</time>
      </trkpt>
      <trkpt lat="43.22856" lon="5.64226">
        <ele>230.171875</ele>
        <time>2021-10-23T07:45:48Z</time>
      </trkpt>
      <trkpt lat="43.22852" lon="5.64221">
        <ele>229.63671875</ele>
        <time>2021-10-23T07:45:49Z</time>
      </trkpt>
      <trkpt lat="43.22847" lon="5.64215">
        <ele>228.6640625</ele>
        <time>2021-10-23T07:45:50Z</time>
      </trkpt>
      <trkpt lat="43.22842" lon="5.6421">
        <ele>227.796875</ele>
        <time>2021-10-23T07:45:51Z</time>
      </trkpt>
      <trkpt lat="43.22837" lon="5.64206">
        <ele>227.4453125</ele>
        <time>2021-10-23T07:45:52Z</time>
      </trkpt>
      <trkpt lat="43.22831" lon="5.64204">
        <ele>227.1640625</ele>
        <time>2021-10-23T07:45:53Z</time>
      </trkpt>
      <trkpt lat="43.22818" lon="5.64197">
        <ele>225.921875</ele>
        <time>2021-10-23T07:45:55Z</time>
      </trkpt>
      <trkpt lat="43.22812" lon="5.64193">
        <ele>225.1953125</ele>
        <time>2021-10-23T07:45:56Z</time>
      </trkpt>
      <trkpt lat="43.22794" lon="5.64185">
        <ele>223.95703125</ele>
        <time>2021-10-23T07:45:59Z</time>
      </trkpt>
      <trkpt lat="43.2278" lon="5.64181">
        <ele>222.82421875</ele>
        <time>2021-10-23T07:46:01Z</time>
      </trkpt>
      <trkpt lat="43.22774" lon="5.6418">
        <ele>222.85546875</ele>
        <time>2021-10-23T07:46:02Z</time>
      </trkpt>
      <trkpt lat="43.2277" lon="5.6418">
        <ele>222.94140625</ele>
        <time>2021-10-23T07:46:03Z</time>
      </trkpt>
      <trkpt lat="43.22761" lon="5.6418">
        <ele>223.07421875</ele>
        <time>2021-10-23T07:46:05Z</time>
      </trkpt>
      <trkpt lat="43.22757" lon="5.64177">
        <ele>222.73046875</ele>
        <time>2021-10-23T07:46:06Z</time>
      </trkpt>
      <trkpt lat="43.22753" lon="5.64173">
        <ele>222.02734375</ele>
        <time>2021-10-23T07:46:07Z</time>
      </trkpt>
      <trkpt lat="43.2275" lon="5.64168">
        <ele>221.00390625</ele>
        <time>2021-10-23T07:46:08Z</time>
      </trkpt>
      <trkpt lat="43.22746" lon="5.64153">
        <ele>218.48046875</ele>
        <time>2021-10-23T07:46:10Z</time>
      </trkpt>
      <trkpt lat="43.22744" lon="5.64146">
        <ele>217.75390625</ele>
        <time>2021-10-23T07:46:11Z</time>
      </trkpt>
      <trkpt lat="43.22742" lon="5.64139">
        <ele>216.9453125</ele>
        <time>2021-10-23T07:46:12Z</time>
      </trkpt>
      <trkpt lat="43.22736" lon="5.64127">
        <ele>215.1328125</ele>
        <time>2021-10-23T07:46:14Z</time>
      </trkpt>
      <trkpt lat="43.22729" lon="5.64118">
        <ele>213.4765625</ele>
        <time>2021-10-23T07:46:16Z</time>
      </trkpt>
      <trkpt lat="43.22724" lon="5.64114">
        <ele>213.23046875</ele>
        <time>2021-10-23T07:46:17Z</time>
      </trkpt>
      <trkpt lat="43.22718" lon="5.6411">
        <ele>213.13671875</ele>
        <time>2021-10-23T07:46:18Z</time>
      </trkpt>
      <trkpt lat="43.22713" lon="5.64105">
        <ele>212.65625</ele>
        <time>2021-10-23T07:46:19Z</time>
      </trkpt>
      <trkpt lat="43.22708" lon="5.641">
        <ele>211.87109375</ele>
        <time>2021-10-23T07:46:20Z</time>
      </trkpt>
      <trkpt lat="43.22704" lon="5.64094">
        <ele>210.92578125</ele>
        <time>2021-10-23T07:46:21Z</time>
      </trkpt>
      <trkpt lat="43.22695" lon="5.64081">
        <ele>208.34375</ele>
        <time>2021-10-23T07:46:23Z</time>
      </trkpt>
      <trkpt lat="43.22687" lon="5.64066">
        <ele>205.46875</ele>
        <time>2021-10-23T07:46:25Z</time>
      </trkpt>
      <trkpt lat="43.22675" lon="5.64048">
        <ele>201.97265625</ele>
        <time>2021-10-23T07:46:28Z</time>
      </trkpt>
      <trkpt lat="43.22666" lon="5.64042">
        <ele>200.5546875</ele>
        <time>2021-10-23T07:46:30Z</time>
      </trkpt>
      <trkpt lat="43.22661" lon="5.6404">
        <ele>200.08203125</ele>
        <time>2021-10-23T07:46:31Z</time>
      </trkpt>
      <trkpt lat="43.22654" lon="5.64039">
        <ele>199.6640625</ele>
        <time>2021-10-23T07:46:32Z</time>
      </trkpt>
      <trkpt lat="43.22648" lon="5.6404">
        <ele>199.390625</ele>
        <time>2021-10-23T07:46:33Z</time>
      </trkpt>
      <trkpt lat="43.22642" lon="5.64041">
        <ele>199.359375</ele>
        <time>2021-10-23T07:46:34Z</time>
      </trkpt>
      <trkpt lat="43.22635" lon="5.64043">
        <ele>199.6640625</ele>
        <time>2021-10-23T07:46:35Z</time>
      </trkpt>
      <trkpt lat="43.22629" lon="5.64045">
        <ele>199.94140625</ele>
        <time>2021-10-23T07:46:36Z</time>
      </trkpt>
      <trkpt lat="43.2261" lon="5.64044">
        <ele>199.49609375</ele>
        <time>2021-10-23T07:46:39Z</time>
      </trkpt>
      <trkpt lat="43.22594" lon="5.6404">
        <ele>197.94140625</ele>
        <time>2021-10-23T07:46:42Z</time>
      </trkpt>
      <trkpt lat="43.22589" lon="5.64039">
        <ele>197.40625</ele>
        <time>2021-10-23T07:46:43Z</time>
      </trkpt>
      <trkpt lat="43.22584" lon="5.64038">
        <ele>197.671875</ele>
        <time>2021-10-23T07:46:44Z</time>
      </trkpt>
      <trkpt lat="43.2258" lon="5.64038">
        <ele>197.94921875</ele>
        <time>2021-10-23T07:46:45Z</time>
      </trkpt>
      <trkpt lat="43.22572" lon="5.64028">
        <ele>196.00390625</ele>
        <time>2021-10-23T07:46:52Z</time>
      </trkpt>
      <trkpt lat="43.22579" lon="5.64024">
        <ele>194.4140625</ele>
        <time>2021-10-23T07:47:05Z</time>
      </trkpt>
      <trkpt lat="43.2259" lon="5.64021">
        <ele>192.90625</ele>
        <time>2021-10-23T07:47:16Z</time>
      </trkpt>
      <trkpt lat="43.22603" lon="5.64021">
        <ele>193.890625</ele>
        <time>2021-10-23T07:47:39Z</time>
      </trkpt>
      <trkpt lat="43.22602" lon="5.6402">
        <ele>193.63671875</ele>
        <time>2021-10-23T07:47:44Z</time>
      </trkpt>
      <trkpt lat="43.22601" lon="5.64017">
        <ele>192.89453125</ele>
        <time>2021-10-23T07:47:46Z</time>
      </trkpt>
      <trkpt lat="43.226" lon="5.64014">
        <ele>193.046875</ele>
        <time>2021-10-23T07:47:47Z</time>
      </trkpt>
      <trkpt lat="43.226" lon="5.6401">
        <ele>193.265625</ele>
        <time>2021-10-23T07:47:48Z</time>
      </trkpt>
      <trkpt lat="43.22598" lon="5.64004">
        <ele>193.39453125</ele>
        <time>2021-10-23T07:47:49Z</time>
      </trkpt>
      <trkpt lat="43.22596" lon="5.63999">
        <ele>193.34765625</ele>
        <time>2021-10-23T07:47:50Z</time>
      </trkpt>
      <trkpt lat="43.22594" lon="5.63993">
        <ele>193.07421875</ele>
        <time>2021-10-23T07:47:51Z</time>
      </trkpt>
      <trkpt lat="43.22591" lon="5.63987">
        <ele>192.75</ele>
        <time>2021-10-23T07:47:52Z</time>
      </trkpt>
      <trkpt lat="43.22579" lon="5.6396">
        <ele>192.87890625</ele>
        <time>2021-10-23T07:47:58Z</time>
      </trkpt>
      <trkpt lat="43.22576" lon="5.63956">
        <ele>192.89453125</ele>
        <time>2021-10-23T07:47:59Z</time>
      </trkpt>
      <trkpt lat="43.22568" lon="5.63954">
        <ele>191.7890625</ele>
        <time>2021-10-23T07:48:00Z</time>
      </trkpt>
      <trkpt lat="43.2256" lon="5.63953">
        <ele>190.46875</ele>
        <time>2021-10-23T07:48:01Z</time>
      </trkpt>
      <trkpt lat="43.22553" lon="5.63953">
        <ele>189.58984375</ele>
        <time>2021-10-23T07:48:02Z</time>
      </trkpt>
      <trkpt lat="43.22543" lon="5.63953">
        <ele>188.0390625</ele>
        <time>2021-10-23T07:48:04Z</time>
      </trkpt>
      <trkpt lat="43.22537" lon="5.63952">
        <ele>187.20703125</ele>
        <time>2021-10-23T07:48:05Z</time>
      </trkpt>
      <trkpt lat="43.22525" lon="5.63951">
        <ele>186.71875</ele>
        <time>2021-10-23T07:48:07Z</time>
      </trkpt>
      <trkpt lat="43.22521" lon="5.63947">
        <ele>186.4375</ele>
        <time>2021-10-23T07:48:08Z</time>
      </trkpt>
      <trkpt lat="43.22509" lon="5.63926">
        <ele>184.140625</ele>
        <time>2021-10-23T07:48:12Z</time>
      </trkpt>
      <trkpt lat="43.22499" lon="5.63905">
        <ele>182.8046875</ele>
        <time>2021-10-23T07:48:15Z</time>
      </trkpt>
      <trkpt lat="43.22495" lon="5.63899">
        <ele>182.62890625</ele>
        <time>2021-10-23T07:48:16Z</time>
      </trkpt>
      <trkpt lat="43.22491" lon="5.63895">
        <ele>182.296875</ele>
        <time>2021-10-23T07:48:17Z</time>
      </trkpt>
      <trkpt lat="43.22487" lon="5.63891">
        <ele>181.8359375</ele>
        <time>2021-10-23T07:48:18Z</time>
      </trkpt>
      <trkpt lat="43.22484" lon="5.63886">
        <ele>181.2421875</ele>
        <time>2021-10-23T07:48:19Z</time>
      </trkpt>
      <trkpt lat="43.22481" lon="5.6388">
        <ele>180.578125</ele>
        <time>2021-10-23T07:48:20Z</time>
      </trkpt>
      <trkpt lat="43.2248" lon="5.63874">
        <ele>180.5703125</ele>
        <time>2021-10-23T07:48:21Z</time>
      </trkpt>
      <trkpt lat="43.2248" lon="5.63868">
        <ele>180.8671875</ele>
        <time>2021-10-23T07:48:22Z</time>
      </trkpt>
      <trkpt lat="43.2248" lon="5.63861">
        <ele>181.21875</ele>
        <time>2021-10-23T07:48:23Z</time>
      </trkpt>
      <trkpt lat="43.22478" lon="5.63846">
        <ele>181.38671875</ele>
        <time>2021-10-23T07:48:25Z</time>
      </trkpt>
      <trkpt lat="43.22478" lon="5.63839">
        <ele>181.484375</ele>
        <time>2021-10-23T07:48:26Z</time>
      </trkpt>
      <trkpt lat="43.22472" lon="5.63807">
        <ele>180.78515625</ele>
        <time>2021-10-23T07:48:32Z</time>
      </trkpt>
      <trkpt lat="43.2247" lon="5.63803">
        <ele>180.09375</ele>
        <time>2021-10-23T07:48:33Z</time>
      </trkpt>
      <trkpt lat="43.22467" lon="5.63799">
        <ele>179.35546875</ele>
        <time>2021-10-23T07:48:34Z</time>
      </trkpt>
      <trkpt lat="43.22464" lon="5.63796">
        <ele>178.25</ele>
        <time>2021-10-23T07:48:35Z</time>
      </trkpt>
      <trkpt lat="43.22459" lon="5.63792">
        <ele>176.71875</ele>
        <time>2021-10-23T07:48:36Z</time>
      </trkpt>
      <trkpt lat="43.22447" lon="5.63785">
        <ele>173.12890625</ele>
        <time>2021-10-23T07:48:38Z</time>
      </trkpt>
      <trkpt lat="43.2244" lon="5.63784">
        <ele>172.61328125</ele>
        <time>2021-10-23T07:48:39Z</time>
      </trkpt>
      <trkpt lat="43.22433" lon="5.63784">
        <ele>172.0234375</ele>
        <time>2021-10-23T07:48:40Z</time>
      </trkpt>
      <trkpt lat="43.22426" lon="5.63783">
        <ele>171.4609375</ele>
        <time>2021-10-23T07:48:41Z</time>
      </trkpt>
      <trkpt lat="43.22421" lon="5.63781">
        <ele>170.8515625</ele>
        <time>2021-10-23T07:48:42Z</time>
      </trkpt>
      <trkpt lat="43.22408" lon="5.63778">
        <ele>169.62890625</ele>
        <time>2021-10-23T07:48:44Z</time>
      </trkpt>
      <trkpt lat="43.22391" lon="5.63772">
        <ele>167.4140625</ele>
        <time>2021-10-23T07:48:47Z</time>
      </trkpt>
      <trkpt lat="43.22377" lon="5.6377">
        <ele>166.15234375</ele>
        <time>2021-10-23T07:48:49Z</time>
      </trkpt>
      <trkpt lat="43.2237" lon="5.63769">
        <ele>165.57421875</ele>
        <time>2021-10-23T07:48:50Z</time>
      </trkpt>
      <trkpt lat="43.22365" lon="5.63769">
        <ele>165.3203125</ele>
        <time>2021-10-23T07:48:51Z</time>
      </trkpt>
      <trkpt lat="43.22353" lon="5.63771">
        <ele>165.31640625</ele>
        <time>2021-10-23T07:48:58Z</time>
      </trkpt>
      <trkpt lat="43.22356" lon="5.63769">
        <ele>164.96875</ele>
        <time>2021-10-23T07:49:21Z</time>
      </trkpt>
      <trkpt lat="43.22357" lon="5.63774">
        <ele>166.13671875</ele>
        <time>2021-10-23T07:49:49Z</time>
      </trkpt>
      <trkpt lat="43.22355" lon="5.63769">
        <ele>164.9375</ele>
        <time>2021-10-23T07:50:04Z</time>
      </trkpt>
      <trkpt lat="43.22355" lon="5.63767">
        <ele>164.421875</ele>
        <time>2021-10-23T07:50:05Z</time>
      </trkpt>
      <trkpt lat="43.22355" lon="5.63764">
        <ele>163.7734375</ele>
        <time>2021-10-23T07:50:06Z</time>
      </trkpt>
      <trkpt lat="43.22356" lon="5.63762">
        <ele>163.35546875</ele>
        <time>2021-10-23T07:50:07Z</time>
      </trkpt>
      <trkpt lat="43.22358" lon="5.63763">
        <ele>163.74609375</ele>
        <time>2021-10-23T07:50:10Z</time>
      </trkpt>
      <trkpt lat="43.22358" lon="5.63769">
        <ele>164.90625</ele>
        <time>2021-10-23T07:50:15Z</time>
      </trkpt>
      <trkpt lat="43.22357" lon="5.6377">
        <ele>165.16796875</ele>
        <time>2021-10-23T07:50:16Z</time>
      </trkpt>
      <trkpt lat="43.22355" lon="5.63775">
        <ele>166.23828125</ele>
        <time>2021-10-23T07:50:20Z</time>
      </trkpt>
      <trkpt lat="43.22351" lon="5.63774">
        <ele>166.046875</ele>
        <time>2021-10-23T07:50:24Z</time>
      </trkpt>
      <trkpt lat="43.22344" lon="5.6377">
        <ele>164.82421875</ele>
        <time>2021-10-23T07:50:31Z</time>
      </trkpt>
      <trkpt lat="43.22315" lon="5.63755">
        <ele>161.29296875</ele>
        <time>2021-10-23T07:50:51Z</time>
      </trkpt>
      <trkpt lat="43.22295" lon="5.63728">
        <ele>157.7421875</ele>
        <time>2021-10-23T07:51:06Z</time>
      </trkpt>
      <trkpt lat="43.22281" lon="5.63717">
        <ele>157.203125</ele>
        <time>2021-10-23T07:51:14Z</time>
      </trkpt>
      <trkpt lat="43.22278" lon="5.63716">
        <ele>157.265625</ele>
        <time>2021-10-23T07:51:15Z</time>
      </trkpt>
      <trkpt lat="43.22276" lon="5.63715">
        <ele>157.3125</ele>
        <time>2021-10-23T07:51:16Z</time>
      </trkpt>
      <trkpt lat="43.22245" lon="5.63718">
        <ele>160.09765625</ele>
        <time>2021-10-23T07:51:32Z</time>
      </trkpt>
      <trkpt lat="43.22245" lon="5.63721">
        <ele>160.4921875</ele>
        <time>2021-10-23T07:51:33Z</time>
      </trkpt>
      <trkpt lat="43.22245" lon="5.63723">
        <ele>160.95703125</ele>
        <time>2021-10-23T07:51:34Z</time>
      </trkpt>
      <trkpt lat="43.22245" lon="5.63726">
        <ele>161.41015625</ele>
        <time>2021-10-23T07:51:35Z</time>
      </trkpt>
      <trkpt lat="43.22245" lon="5.63728">
        <ele>161.88671875</ele>
        <time>2021-10-23T07:51:36Z</time>
      </trkpt>
      <trkpt lat="43.22246" lon="5.63731">
        <ele>162.36328125</ele>
        <time>2021-10-23T07:51:37Z</time>
      </trkpt>
      <trkpt lat="43.22246" lon="5.63733">
        <ele>162.8125</ele>
        <time>2021-10-23T07:51:38Z</time>
      </trkpt>
      <trkpt lat="43.22248" lon="5.63735">
        <ele>163.27734375</ele>
        <time>2021-10-23T07:51:39Z</time>
      </trkpt>
      <trkpt lat="43.22249" lon="5.63737">
        <ele>163.69921875</ele>
        <time>2021-10-23T07:51:40Z</time>
      </trkpt>
      <trkpt lat="43.22251" lon="5.63738">
        <ele>164.0625</ele>
        <time>2021-10-23T07:51:41Z</time>
      </trkpt>
      <trkpt lat="43.22252" lon="5.63738">
        <ele>164.34375</ele>
        <time>2021-10-23T07:51:42Z</time>
      </trkpt>
      <trkpt lat="43.22254" lon="5.63739">
        <ele>164.57421875</ele>
        <time>2021-10-23T07:51:43Z</time>
      </trkpt>
      <trkpt lat="43.22256" lon="5.63739">
        <ele>164.8125</ele>
        <time>2021-10-23T07:51:44Z</time>
      </trkpt>
      <trkpt lat="43.22257" lon="5.6374">
        <ele>164.68359375</ele>
        <time>2021-10-23T07:51:45Z</time>
      </trkpt>
      <trkpt lat="43.22259" lon="5.6374">
        <ele>164.44140625</ele>
        <time>2021-10-23T07:51:46Z</time>
      </trkpt>
      <trkpt lat="43.22261" lon="5.6374">
        <ele>164.16015625</ele>
        <time>2021-10-23T07:51:47Z</time>
      </trkpt>
      <trkpt lat="43.22287" lon="5.63755">
        <ele>163.34765625</ele>
        <time>2021-10-23T07:52:00Z</time>
      </trkpt>
      <trkpt lat="43.22309" lon="5.63797">
        <ele>172.125</ele>
        <time>2021-10-23T07:52:17Z</time>
      </trkpt>
      <trkpt lat="43.22322" lon="5.6381">
        <ele>174.7734375</ele>
        <time>2021-10-23T07:52:27Z</time>
      </trkpt>
      <trkpt lat="43.22325" lon="5.63819">
        <ele>176.98828125</ele>
        <time>2021-10-23T07:52:31Z</time>
      </trkpt>
      <trkpt lat="43.22327" lon="5.6382">
        <ele>177.375</ele>
        <time>2021-10-23T07:52:32Z</time>
      </trkpt>
      <trkpt lat="43.2233" lon="5.63822">
        <ele>178.19140625</ele>
        <time>2021-10-23T07:52:34Z</time>
      </trkpt>
      <trkpt lat="43.22347" lon="5.63834">
        <ele>181.48828125</ele>
        <time>2021-10-23T07:52:47Z</time>
      </trkpt>
      <trkpt lat="43.22351" lon="5.63838">
        <ele>182.54296875</ele>
        <time>2021-10-23T07:52:51Z</time>
      </trkpt>
      <trkpt lat="43.22353" lon="5.63839">
        <ele>182.640625</ele>
        <time>2021-10-23T07:52:52Z</time>
      </trkpt>
      <trkpt lat="43.22354" lon="5.63839">
        <ele>182.86328125</ele>
        <time>2021-10-23T07:52:53Z</time>
      </trkpt>
      <trkpt lat="43.22356" lon="5.6384">
        <ele>183.11328125</ele>
        <time>2021-10-23T07:52:54Z</time>
      </trkpt>
      <trkpt lat="43.22357" lon="5.63842">
        <ele>183.4140625</ele>
        <time>2021-10-23T07:52:55Z</time>
      </trkpt>
      <trkpt lat="43.22359" lon="5.63842">
        <ele>183.546875</ele>
        <time>2021-10-23T07:52:56Z</time>
      </trkpt>
      <trkpt lat="43.22363" lon="5.63843">
        <ele>183.86328125</ele>
        <time>2021-10-23T07:52:59Z</time>
      </trkpt>
      <trkpt lat="43.22364" lon="5.63844">
        <ele>184.1328125</ele>
        <time>2021-10-23T07:53:00Z</time>
      </trkpt>
      <trkpt lat="43.22365" lon="5.63845">
        <ele>184.375</ele>
        <time>2021-10-23T07:53:01Z</time>
      </trkpt>
      <trkpt lat="43.22366" lon="5.63846">
        <ele>184.65234375</ele>
        <time>2021-10-23T07:53:02Z</time>
      </trkpt>
      <trkpt lat="43.22368" lon="5.63846">
        <ele>184.8515625</ele>
        <time>2021-10-23T07:53:03Z</time>
      </trkpt>
      <trkpt lat="43.22369" lon="5.63848">
        <ele>185.125</ele>
        <time>2021-10-23T07:53:04Z</time>
      </trkpt>
      <trkpt lat="43.2237" lon="5.63849">
        <ele>185.3515625</ele>
        <time>2021-10-23T07:53:05Z</time>
      </trkpt>
      <trkpt lat="43.22372" lon="5.6385">
        <ele>185.51953125</ele>
        <time>2021-10-23T07:53:06Z</time>
      </trkpt>
      <trkpt lat="43.22373" lon="5.6385">
        <ele>185.453125</ele>
        <time>2021-10-23T07:53:18Z</time>
      </trkpt>
      <trkpt lat="43.22374" lon="5.63851">
        <ele>185.83203125</ele>
        <time>2021-10-23T07:53:48Z</time>
      </trkpt>
      <trkpt lat="43.22384" lon="5.63857">
        <ele>186.80859375</ele>
        <time>2021-10-23T07:54:04Z</time>
      </trkpt>
      <trkpt lat="43.22402" lon="5.63864">
        <ele>186.92578125</ele>
        <time>2021-10-23T07:54:15Z</time>
      </trkpt>
      <trkpt lat="43.22424" lon="5.63877">
        <ele>185.484375</ele>
        <time>2021-10-23T07:54:27Z</time>
      </trkpt>
      <trkpt lat="43.22441" lon="5.63904">
        <ele>186.8671875</ele>
        <time>2021-10-23T07:54:42Z</time>
      </trkpt>
      <trkpt lat="43.22447" lon="5.63921">
        <ele>188.59765625</ele>
        <time>2021-10-23T07:54:50Z</time>
      </trkpt>
      <trkpt lat="43.22447" lon="5.63923">
        <ele>188.88671875</ele>
        <time>2021-10-23T07:54:51Z</time>
      </trkpt>
      <trkpt lat="43.22456" lon="5.63956">
        <ele>193.01953125</ele>
        <time>2021-10-23T07:55:06Z</time>
      </trkpt>
      <trkpt lat="43.22468" lon="5.6399">
        <ele>196.68359375</ele>
        <time>2021-10-23T07:55:21Z</time>
      </trkpt>
      <trkpt lat="43.22469" lon="5.63992">
        <ele>196.98046875</ele>
        <time>2021-10-23T07:55:22Z</time>
      </trkpt>
      <trkpt lat="43.22481" lon="5.64022">
        <ele>202.30078125</ele>
        <time>2021-10-23T07:55:37Z</time>
      </trkpt>
      <trkpt lat="43.2249" lon="5.64041">
        <ele>204.375</ele>
        <time>2021-10-23T07:55:47Z</time>
      </trkpt>
      <trkpt lat="43.22491" lon="5.64043">
        <ele>204.640625</ele>
        <time>2021-10-23T07:55:48Z</time>
      </trkpt>
      <trkpt lat="43.225" lon="5.64059">
        <ele>206.75390625</ele>
        <time>2021-10-23T07:55:58Z</time>
      </trkpt>
      <trkpt lat="43.22501" lon="5.64061">
        <ele>207.03125</ele>
        <time>2021-10-23T07:55:59Z</time>
      </trkpt>
      <trkpt lat="43.22513" lon="5.64074">
        <ele>209.3203125</ele>
        <time>2021-10-23T07:56:08Z</time>
      </trkpt>
      <trkpt lat="43.22515" lon="5.64075">
        <ele>209.42578125</ele>
        <time>2021-10-23T07:56:09Z</time>
      </trkpt>
      <trkpt lat="43.22516" lon="5.64076">
        <ele>209.5546875</ele>
        <time>2021-10-23T07:56:10Z</time>
      </trkpt>
      <trkpt lat="43.22518" lon="5.64078">
        <ele>209.69921875</ele>
        <time>2021-10-23T07:56:11Z</time>
      </trkpt>
      <trkpt lat="43.22519" lon="5.64079">
        <ele>209.8515625</ele>
        <time>2021-10-23T07:56:12Z</time>
      </trkpt>
      <trkpt lat="43.22521" lon="5.6408">
        <ele>209.9609375</ele>
        <time>2021-10-23T07:56:13Z</time>
      </trkpt>
      <trkpt lat="43.22522" lon="5.64081">
        <ele>210.06640625</ele>
        <time>2021-10-23T07:56:14Z</time>
      </trkpt>
      <trkpt lat="43.22523" lon="5.64082">
        <ele>210.1953125</ele>
        <time>2021-10-23T07:56:15Z</time>
      </trkpt>
      <trkpt lat="43.22537" lon="5.64094">
        <ele>211.61328125</ele>
        <time>2021-10-23T07:56:25Z</time>
      </trkpt>
      <trkpt lat="43.22555" lon="5.64115">
        <ele>214.1015625</ele>
        <time>2021-10-23T07:56:38Z</time>
      </trkpt>
      <trkpt lat="43.22583" lon="5.64129">
        <ele>218.37109375</ele>
        <time>2021-10-23T07:56:55Z</time>
      </trkpt>
      <trkpt lat="43.22602" lon="5.64144">
        <ele>221.359375</ele>
        <time>2021-10-23T07:57:07Z</time>
      </trkpt>
      <trkpt lat="43.22621" lon="5.64158">
        <ele>224.64453125</ele>
        <time>2021-10-23T07:57:22Z</time>
      </trkpt>
      <trkpt lat="43.22636" lon="5.64163">
        <ele>226.55859375</ele>
        <time>2021-10-23T07:57:34Z</time>
      </trkpt>
      <trkpt lat="43.22638" lon="5.64162">
        <ele>226.71875</ele>
        <time>2021-10-23T07:57:54Z</time>
      </trkpt>
      <trkpt lat="43.2265" lon="5.64168">
        <ele>227.99609375</ele>
        <time>2021-10-23T07:58:14Z</time>
      </trkpt>
      <trkpt lat="43.22668" lon="5.64178">
        <ele>229.85546875</ele>
        <time>2021-10-23T07:58:25Z</time>
      </trkpt>
      <trkpt lat="43.22686" lon="5.64191">
        <ele>231.171875</ele>
        <time>2021-10-23T07:58:37Z</time>
      </trkpt>
      <trkpt lat="43.22704" lon="5.64217">
        <ele>235.12109375</ele>
        <time>2021-10-23T07:58:51Z</time>
      </trkpt>
      <trkpt lat="43.22711" lon="5.64232">
        <ele>237.140625</ele>
        <time>2021-10-23T07:58:58Z</time>
      </trkpt>
      <trkpt lat="43.22712" lon="5.64235">
        <ele>237.58203125</ele>
        <time>2021-10-23T07:58:59Z</time>
      </trkpt>
      <trkpt lat="43.22724" lon="5.64271">
        <ele>242.4375</ele>
        <time>2021-10-23T07:59:13Z</time>
      </trkpt>
      <trkpt lat="43.22745" lon="5.64286">
        <ele>244.47265625</ele>
        <time>2021-10-23T07:59:26Z</time>
      </trkpt>
      <trkpt lat="43.22769" lon="5.64305">
        <ele>247.5078125</ele>
        <time>2021-10-23T07:59:39Z</time>
      </trkpt>
      <trkpt lat="43.22788" lon="5.64324">
        <ele>251.27734375</ele>
        <time>2021-10-23T07:59:51Z</time>
      </trkpt>
      <trkpt lat="43.228" lon="5.64336">
        <ele>253.19140625</ele>
        <time>2021-10-23T08:00:00Z</time>
      </trkpt>
      <trkpt lat="43.22823" lon="5.64357">
        <ele>255.64453125</ele>
        <time>2021-10-23T08:00:14Z</time>
      </trkpt>
      <trkpt lat="43.22837" lon="5.64384">
        <ele>258.5625</ele>
        <time>2021-10-23T08:00:26Z</time>
      </trkpt>
      <trkpt lat="43.22855" lon="5.64417">
        <ele>261.984375</ele>
        <time>2021-10-23T08:00:40Z</time>
      </trkpt>
      <trkpt lat="43.22871" lon="5.64448">
        <ele>265.2265625</ele>
        <time>2021-10-23T08:00:54Z</time>
      </trkpt>
      <trkpt lat="43.2289" lon="5.64476">
        <ele>266.859375</ele>
        <time>2021-10-23T08:01:07Z</time>
      </trkpt>
      <trkpt lat="43.22909" lon="5.64499">
        <ele>268.94921875</ele>
        <time>2021-10-23T08:01:19Z</time>
      </trkpt>
      <trkpt lat="43.22927" lon="5.64522">
        <ele>271.61328125</ele>
        <time>2021-10-23T08:01:31Z</time>
      </trkpt>
      <trkpt lat="43.22944" lon="5.64566">
        <ele>275.1875</ele>
        <time>2021-10-23T08:01:47Z</time>
      </trkpt>
      <trkpt lat="43.22955" lon="5.64606">
        <ele>278.0859375</ele>
        <time>2021-10-23T08:02:01Z</time>
      </trkpt>
      <trkpt lat="43.22965" lon="5.6465">
        <ele>281.42578125</ele>
        <time>2021-10-23T08:02:16Z</time>
      </trkpt>
      <trkpt lat="43.22973" lon="5.64695">
        <ele>285.86328125</ele>
        <time>2021-10-23T08:02:31Z</time>
      </trkpt>
      <trkpt lat="43.22988" lon="5.6473">
        <ele>290.4765625</ele>
        <time>2021-10-23T08:02:45Z</time>
      </trkpt>
      <trkpt lat="43.22997" lon="5.64753">
        <ele>294.42578125</ele>
        <time>2021-10-23T08:02:54Z</time>
      </trkpt>
      <trkpt lat="43.23006" lon="5.64784">
        <ele>299.34375</ele>
        <time>2021-10-23T08:03:06Z</time>
      </trkpt>
      <trkpt lat="43.23017" lon="5.6482">
        <ele>303.95703125</ele>
        <time>2021-10-23T08:03:19Z</time>
      </trkpt>
      <trkpt lat="43.23028" lon="5.64844">
        <ele>306.62890625</ele>
        <time>2021-10-23T08:03:29Z</time>
      </trkpt>
      <trkpt lat="43.23043" lon="5.64886">
        <ele>309.15625</ele>
        <time>2021-10-23T08:03:44Z</time>
      </trkpt>
      <trkpt lat="43.23052" lon="5.649">
        <ele>310.734375</ele>
        <time>2021-10-23T08:03:51Z</time>
      </trkpt>
      <trkpt lat="43.23053" lon="5.649">
        <ele>311.21484375</ele>
        <time>2021-10-23T08:03:52Z</time>
      </trkpt>
      <trkpt lat="43.23057" lon="5.64901">
        <ele>312.28515625</ele>
        <time>2021-10-23T08:03:54Z</time>
      </trkpt>
      <trkpt lat="43.23059" lon="5.649">
        <ele>312.828125</ele>
        <time>2021-10-23T08:03:55Z</time>
      </trkpt>
      <trkpt lat="43.2306" lon="5.64898">
        <ele>313.2265625</ele>
        <time>2021-10-23T08:03:56Z</time>
      </trkpt>
      <trkpt lat="43.23061" lon="5.64895">
        <ele>313.42578125</ele>
        <time>2021-10-23T08:03:57Z</time>
      </trkpt>
      <trkpt lat="43.23061" lon="5.64893">
        <ele>313.5625</ele>
        <time>2021-10-23T08:03:58Z</time>
      </trkpt>
      <trkpt lat="43.23062" lon="5.64888">
        <ele>313.81640625</ele>
        <time>2021-10-23T08:04:00Z</time>
      </trkpt>
      <trkpt lat="43.23067" lon="5.64852">
        <ele>314.03515625</ele>
        <time>2021-10-23T08:04:13Z</time>
      </trkpt>
      <trkpt lat="43.2308" lon="5.64836">
        <ele>313.12109375</ele>
        <time>2021-10-23T08:04:22Z</time>
      </trkpt>
      <trkpt lat="43.23082" lon="5.64837">
        <ele>313.12109375</ele>
        <time>2021-10-23T08:04:23Z</time>
      </trkpt>
      <trkpt lat="43.23084" lon="5.64838">
        <ele>313.16796875</ele>
        <time>2021-10-23T08:04:24Z</time>
      </trkpt>
      <trkpt lat="43.23085" lon="5.64839">
        <ele>313.25390625</ele>
        <time>2021-10-23T08:04:25Z</time>
      </trkpt>
      <trkpt lat="43.23087" lon="5.64841">
        <ele>313.359375</ele>
        <time>2021-10-23T08:04:26Z</time>
      </trkpt>
      <trkpt lat="43.23088" lon="5.64843">
        <ele>313.4453125</ele>
        <time>2021-10-23T08:04:27Z</time>
      </trkpt>
      <trkpt lat="43.23088" lon="5.64843">
        <ele>313.49609375</ele>
        <time>2021-10-23T08:04:28Z</time>
      </trkpt>
      <trkpt lat="43.2309" lon="5.64845">
        <ele>313.51953125</ele>
        <time>2021-10-23T08:04:41Z</time>
      </trkpt>
      <trkpt lat="43.2309" lon="5.64842">
        <ele>313.3203125</ele>
        <time>2021-10-23T08:05:06Z</time>
      </trkpt>
      <trkpt lat="43.23089" lon="5.6484">
        <ele>313.19921875</ele>
        <time>2021-10-23T08:05:32Z</time>
      </trkpt>
      <trkpt lat="43.2309" lon="5.64843">
        <ele>313.3515625</ele>
        <time>2021-10-23T08:05:59Z</time>
      </trkpt>
      <trkpt lat="43.23091" lon="5.64845">
        <ele>313.4765625</ele>
        <time>2021-10-23T08:06:28Z</time>
      </trkpt>
      <trkpt lat="43.2309" lon="5.64844">
        <ele>313.42578125</ele>
        <time>2021-10-23T08:06:59Z</time>
      </trkpt>
      <trkpt lat="43.23086" lon="5.6484">
        <ele>313.296875</ele>
        <time>2021-10-23T08:07:30Z</time>
      </trkpt>
      <trkpt lat="43.23089" lon="5.64843">
        <ele>313.42578125</ele>
        <time>2021-10-23T08:07:51Z</time>
      </trkpt>
      <trkpt lat="43.23091" lon="5.64848">
        <ele>313.6796875</ele>
        <time>2021-10-23T08:08:05Z</time>
      </trkpt>
      <trkpt lat="43.23092" lon="5.6485">
        <ele>313.8046875</ele>
        <time>2021-10-23T08:08:06Z</time>
      </trkpt>
      <trkpt lat="43.23108" lon="5.64881">
        <ele>316.15625</ele>
        <time>2021-10-23T08:08:20Z</time>
      </trkpt>
      <trkpt lat="43.23135" lon="5.64909">
        <ele>315.6484375</ele>
        <time>2021-10-23T08:08:35Z</time>
      </trkpt>
      <trkpt lat="43.23158" lon="5.64942">
        <ele>315.99609375</ele>
        <time>2021-10-23T08:08:49Z</time>
      </trkpt>
      <trkpt lat="43.23173" lon="5.65003">
        <ele>321.2734375</ele>
        <time>2021-10-23T08:09:07Z</time>
      </trkpt>
      <trkpt lat="43.23181" lon="5.65037">
        <ele>325.0703125</ele>
        <time>2021-10-23T08:09:19Z</time>
      </trkpt>
      <trkpt lat="43.23192" lon="5.65072">
        <ele>329.69140625</ele>
        <time>2021-10-23T08:09:30Z</time>
      </trkpt>
      <trkpt lat="43.23205" lon="5.65104">
        <ele>332.9140625</ele>
        <time>2021-10-23T08:09:42Z</time>
      </trkpt>
      <trkpt lat="43.23212" lon="5.65154">
        <ele>335.95703125</ele>
        <time>2021-10-23T08:09:57Z</time>
      </trkpt>
      <trkpt lat="43.23214" lon="5.65204">
        <ele>338.19140625</ele>
        <time>2021-10-23T08:10:12Z</time>
      </trkpt>
      <trkpt lat="43.23222" lon="5.65259">
        <ele>340.18359375</ele>
        <time>2021-10-23T08:10:27Z</time>
      </trkpt>
      <trkpt lat="43.23229" lon="5.65278">
        <ele>340.984375</ele>
        <time>2021-10-23T08:10:34Z</time>
      </trkpt>
      <trkpt lat="43.2323" lon="5.65281">
        <ele>341.00390625</ele>
        <time>2021-10-23T08:10:35Z</time>
      </trkpt>
      <trkpt lat="43.23233" lon="5.65309">
        <ele>341.8515625</ele>
        <time>2021-10-23T08:10:42Z</time>
      </trkpt>
      <trkpt lat="43.23233" lon="5.65312">
        <ele>341.984375</ele>
        <time>2021-10-23T08:10:43Z</time>
      </trkpt>
      <trkpt lat="43.23233" lon="5.65316">
        <ele>342.171875</ele>
        <time>2021-10-23T08:10:44Z</time>
      </trkpt>
      <trkpt lat="43.23234" lon="5.65319">
        <ele>342.375</ele>
        <time>2021-10-23T08:10:45Z</time>
      </trkpt>
      <trkpt lat="43.23235" lon="5.65323">
        <ele>342.62109375</ele>
        <time>2021-10-23T08:10:46Z</time>
      </trkpt>
      <trkpt lat="43.23236" lon="5.65327">
        <ele>342.87890625</ele>
        <time>2021-10-23T08:10:47Z</time>
      </trkpt>
      <trkpt lat="43.23237" lon="5.65331">
        <ele>343.09765625</ele>
        <time>2021-10-23T08:10:48Z</time>
      </trkpt>
      <trkpt lat="43.23237" lon="5.65335">
        <ele>343.3828125</ele>
        <time>2021-10-23T08:10:49Z</time>
      </trkpt>
      <trkpt lat="43.23252" lon="5.65391">
        <ele>348.1015625</ele>
        <time>2021-10-23T08:11:04Z</time>
      </trkpt>
      <trkpt lat="43.23265" lon="5.65438">
        <ele>350.06640625</ele>
        <time>2021-10-23T08:11:18Z</time>
      </trkpt>
      <trkpt lat="43.23272" lon="5.65452">
        <ele>350.40234375</ele>
        <time>2021-10-23T08:11:23Z</time>
      </trkpt>
      <trkpt lat="43.23286" lon="5.65483">
        <ele>352.69921875</ele>
        <time>2021-10-23T08:11:35Z</time>
      </trkpt>
      <trkpt lat="43.23298" lon="5.65505">
        <ele>354.4765625</ele>
        <time>2021-10-23T08:11:44Z</time>
      </trkpt>
      <trkpt lat="43.23304" lon="5.65514">
        <ele>355.39453125</ele>
        <time>2021-10-23T08:11:48Z</time>
      </trkpt>
      <trkpt lat="43.23305" lon="5.65517">
        <ele>355.59375</ele>
        <time>2021-10-23T08:11:49Z</time>
      </trkpt>
      <trkpt lat="43.23306" lon="5.65519">
        <ele>355.75</ele>
        <time>2021-10-23T08:11:50Z</time>
      </trkpt>
      <trkpt lat="43.23321" lon="5.65562">
        <ele>358.22265625</ele>
        <time>2021-10-23T08:12:03Z</time>
      </trkpt>
      <trkpt lat="43.23338" lon="5.65602">
        <ele>360.98828125</ele>
        <time>2021-10-23T08:12:17Z</time>
      </trkpt>
      <trkpt lat="43.23353" lon="5.65645">
        <ele>363.03125</ele>
        <time>2021-10-23T08:12:31Z</time>
      </trkpt>
      <trkpt lat="43.23371" lon="5.65698">
        <ele>367.1015625</ele>
        <time>2021-10-23T08:12:46Z</time>
      </trkpt>
      <trkpt lat="43.23392" lon="5.6573">
        <ele>370.49609375</ele>
        <time>2021-10-23T08:12:57Z</time>
      </trkpt>
      <trkpt lat="43.23415" lon="5.65717">
        <ele>375.609375</ele>
        <time>2021-10-23T08:13:08Z</time>
      </trkpt>
      <trkpt lat="43.23432" lon="5.65679">
        <ele>379.4765625</ele>
        <time>2021-10-23T08:13:21Z</time>
      </trkpt>
      <trkpt lat="43.2345" lon="5.65641">
        <ele>382.30859375</ele>
        <time>2021-10-23T08:13:34Z</time>
      </trkpt>
      <trkpt lat="43.23452" lon="5.65639">
        <ele>382.6796875</ele>
        <time>2021-10-23T08:13:35Z</time>
      </trkpt>
      <trkpt lat="43.23453" lon="5.65637">
        <ele>383.07421875</ele>
        <time>2021-10-23T08:13:36Z</time>
      </trkpt>
      <trkpt lat="43.23455" lon="5.65635">
        <ele>383.44140625</ele>
        <time>2021-10-23T08:13:37Z</time>
      </trkpt>
      <trkpt lat="43.23457" lon="5.65633">
        <ele>383.83203125</ele>
        <time>2021-10-23T08:13:38Z</time>
      </trkpt>
      <trkpt lat="43.23458" lon="5.65631">
        <ele>384.20703125</ele>
        <time>2021-10-23T08:13:39Z</time>
      </trkpt>
      <trkpt lat="43.2346" lon="5.65628">
        <ele>384.5234375</ele>
        <time>2021-10-23T08:13:40Z</time>
      </trkpt>
      <trkpt lat="43.23461" lon="5.65626">
        <ele>384.73046875</ele>
        <time>2021-10-23T08:13:41Z</time>
      </trkpt>
      <trkpt lat="43.23463" lon="5.65623">
        <ele>384.95703125</ele>
        <time>2021-10-23T08:13:42Z</time>
      </trkpt>
      <trkpt lat="43.23472" lon="5.6561">
        <ele>386.92578125</ele>
        <time>2021-10-23T08:13:48Z</time>
      </trkpt>
      <trkpt lat="43.23474" lon="5.6561">
        <ele>387.70703125</ele>
        <time>2021-10-23T08:13:49Z</time>
      </trkpt>
      <trkpt lat="43.23476" lon="5.6561">
        <ele>388.4375</ele>
        <time>2021-10-23T08:13:50Z</time>
      </trkpt>
      <trkpt lat="43.23478" lon="5.6561">
        <ele>388.9609375</ele>
        <time>2021-10-23T08:13:51Z</time>
      </trkpt>
      <trkpt lat="43.23479" lon="5.65612">
        <ele>389.453125</ele>
        <time>2021-10-23T08:13:52Z</time>
      </trkpt>
      <trkpt lat="43.2348" lon="5.65614">
        <ele>389.91796875</ele>
        <time>2021-10-23T08:13:53Z</time>
      </trkpt>
      <trkpt lat="43.23481" lon="5.65616">
        <ele>390.30078125</ele>
        <time>2021-10-23T08:13:54Z</time>
      </trkpt>
      <trkpt lat="43.23481" lon="5.65619">
        <ele>390.5234375</ele>
        <time>2021-10-23T08:13:55Z</time>
      </trkpt>
      <trkpt lat="43.23481" lon="5.65621">
        <ele>390.65234375</ele>
        <time>2021-10-23T08:13:56Z</time>
      </trkpt>
      <trkpt lat="43.2348" lon="5.65624">
        <ele>390.77734375</ele>
        <time>2021-10-23T08:13:57Z</time>
      </trkpt>
      <trkpt lat="43.2348" lon="5.65627">
        <ele>390.765625</ele>
        <time>2021-10-23T08:13:58Z</time>
      </trkpt>
      <trkpt lat="43.23479" lon="5.65628">
        <ele>390.625</ele>
        <time>2021-10-23T08:13:59Z</time>
      </trkpt>
      <trkpt lat="43.23478" lon="5.6563">
        <ele>390.5</ele>
        <time>2021-10-23T08:14:00Z</time>
      </trkpt>
      <trkpt lat="43.23478" lon="5.65632">
        <ele>390.53515625</ele>
        <time>2021-10-23T08:14:01Z</time>
      </trkpt>
      <trkpt lat="43.23478" lon="5.65634">
        <ele>390.6875</ele>
        <time>2021-10-23T08:14:02Z</time>
      </trkpt>
      <trkpt lat="43.23478" lon="5.65635">
        <ele>390.8046875</ele>
        <time>2021-10-23T08:14:03Z</time>
      </trkpt>
      <trkpt lat="43.23475" lon="5.65657">
        <ele>391.57421875</ele>
        <time>2021-10-23T08:14:16Z</time>
      </trkpt>
      <trkpt lat="43.23475" lon="5.65664">
        <ele>391.7890625</ele>
        <time>2021-10-23T08:14:20Z</time>
      </trkpt>
      <trkpt lat="43.23476" lon="5.65674">
        <ele>392.48828125</ele>
        <time>2021-10-23T08:14:26Z</time>
      </trkpt>
      <trkpt lat="43.23477" lon="5.65679">
        <ele>392.7265625</ele>
        <time>2021-10-23T08:14:29Z</time>
      </trkpt>
      <trkpt lat="43.23477" lon="5.6568">
        <ele>392.9140625</ele>
        <time>2021-10-23T08:14:30Z</time>
      </trkpt>
      <trkpt lat="43.23477" lon="5.65682">
        <ele>393.0234375</ele>
        <time>2021-10-23T08:14:31Z</time>
      </trkpt>
      <trkpt lat="43.23477" lon="5.65684">
        <ele>393.07421875</ele>
        <time>2021-10-23T08:14:32Z</time>
      </trkpt>
      <trkpt lat="43.23477" lon="5.65687">
        <ele>392.98828125</ele>
        <time>2021-10-23T08:14:33Z</time>
      </trkpt>
      <trkpt lat="43.23483" lon="5.65726">
        <ele>394.33203125</ele>
        <time>2021-10-23T08:14:43Z</time>
      </trkpt>
      <trkpt lat="43.23493" lon="5.65765">
        <ele>396.39453125</ele>
        <time>2021-10-23T08:14:55Z</time>
      </trkpt>
      <trkpt lat="43.23503" lon="5.65817">
        <ele>397.73828125</ele>
        <time>2021-10-23T08:15:11Z</time>
      </trkpt>
      <trkpt lat="43.23511" lon="5.65863">
        <ele>399.12890625</ele>
        <time>2021-10-23T08:15:25Z</time>
      </trkpt>
      <trkpt lat="43.23522" lon="5.65908">
        <ele>401.13671875</ele>
        <time>2021-10-23T08:15:38Z</time>
      </trkpt>
      <trkpt lat="43.23533" lon="5.65952">
        <ele>402.33203125</ele>
        <time>2021-10-23T08:15:51Z</time>
      </trkpt>
      <trkpt lat="43.23546" lon="5.66004">
        <ele>402.4921875</ele>
        <time>2021-10-23T08:16:07Z</time>
      </trkpt>
      <trkpt lat="43.23554" lon="5.66043">
        <ele>402.78125</ele>
        <time>2021-10-23T08:16:19Z</time>
      </trkpt>
      <trkpt lat="43.23568" lon="5.66076">
        <ele>401.3046875</ele>
        <time>2021-10-23T08:16:30Z</time>
      </trkpt>
      <trkpt lat="43.23575" lon="5.66112">
        <ele>399.48828125</ele>
        <time>2021-10-23T08:16:41Z</time>
      </trkpt>
      <trkpt lat="43.23576" lon="5.66113">
        <ele>399.34375</ele>
        <time>2021-10-23T08:16:42Z</time>
      </trkpt>
      <trkpt lat="43.23579" lon="5.66112">
        <ele>399.20703125</ele>
        <time>2021-10-23T08:16:43Z</time>
      </trkpt>
      <trkpt lat="43.2358" lon="5.66111">
        <ele>399.11328125</ele>
        <time>2021-10-23T08:16:44Z</time>
      </trkpt>
      <trkpt lat="43.23582" lon="5.6611">
        <ele>399.07421875</ele>
        <time>2021-10-23T08:16:45Z</time>
      </trkpt>
      <trkpt lat="43.23583" lon="5.66107">
        <ele>399.05859375</ele>
        <time>2021-10-23T08:16:46Z</time>
      </trkpt>
      <trkpt lat="43.23589" lon="5.66066">
        <ele>400.0078125</ele>
        <time>2021-10-23T08:17:00Z</time>
      </trkpt>
      <trkpt lat="43.23591" lon="5.66051">
        <ele>400.18359375</ele>
        <time>2021-10-23T08:17:13Z</time>
      </trkpt>
      <trkpt lat="43.23594" lon="5.66047">
        <ele>399.65234375</ele>
        <time>2021-10-23T08:17:31Z</time>
      </trkpt>
      <trkpt lat="43.23596" lon="5.66045">
        <ele>399.25390625</ele>
        <time>2021-10-23T08:17:54Z</time>
      </trkpt>
      <trkpt lat="43.23596" lon="5.66043">
        <ele>399.3359375</ele>
        <time>2021-10-23T08:18:26Z</time>
      </trkpt>
      <trkpt lat="43.23592" lon="5.66042">
        <ele>400.15234375</ele>
        <time>2021-10-23T08:18:53Z</time>
      </trkpt>
      <trkpt lat="43.23591" lon="5.66043">
        <ele>400.43359375</ele>
        <time>2021-10-23T08:19:14Z</time>
      </trkpt>
      <trkpt lat="43.23588" lon="5.66042">
        <ele>400.95703125</ele>
        <time>2021-10-23T08:19:44Z</time>
      </trkpt>
      <trkpt lat="43.23588" lon="5.6604">
        <ele>401.07421875</ele>
        <time>2021-10-23T08:20:09Z</time>
      </trkpt>
      <trkpt lat="43.23592" lon="5.66045">
        <ele>399.97265625</ele>
        <time>2021-10-23T08:20:37Z</time>
      </trkpt>
      <trkpt lat="43.23593" lon="5.66017">
        <ele>400.96484375</ele>
        <time>2021-10-23T08:20:48Z</time>
      </trkpt>
      <trkpt lat="43.23598" lon="5.6596">
        <ele>400.3125</ele>
        <time>2021-10-23T08:21:02Z</time>
      </trkpt>
      <trkpt lat="43.23605" lon="5.65899">
        <ele>403.41015625</ele>
        <time>2021-10-23T08:21:17Z</time>
      </trkpt>
      <trkpt lat="43.23609" lon="5.65835">
        <ele>405.15625</ele>
        <time>2021-10-23T08:21:32Z</time>
      </trkpt>
      <trkpt lat="43.23617" lon="5.65758">
        <ele>408.83984375</ele>
        <time>2021-10-23T08:21:50Z</time>
      </trkpt>
      <trkpt lat="43.23636" lon="5.65702">
        <ele>412.1015625</ele>
        <time>2021-10-23T08:22:05Z</time>
      </trkpt>
      <trkpt lat="43.23656" lon="5.65641">
        <ele>414.8515625</ele>
        <time>2021-10-23T08:22:21Z</time>
      </trkpt>
      <trkpt lat="43.23678" lon="5.65569">
        <ele>419.34765625</ele>
        <time>2021-10-23T08:22:39Z</time>
      </trkpt>
      <trkpt lat="43.23687" lon="5.65521">
        <ele>421.6015625</ele>
        <time>2021-10-23T08:22:51Z</time>
      </trkpt>
      <trkpt lat="43.23686" lon="5.65468">
        <ele>425.11328125</ele>
        <time>2021-10-23T08:23:04Z</time>
      </trkpt>
      <trkpt lat="43.23693" lon="5.65418">
        <ele>428.12109375</ele>
        <time>2021-10-23T08:23:16Z</time>
      </trkpt>
      <trkpt lat="43.23695" lon="5.65411">
        <ele>428.62890625</ele>
        <time>2021-10-23T08:23:18Z</time>
      </trkpt>
      <trkpt lat="43.237" lon="5.65363">
        <ele>431.0390625</ele>
        <time>2021-10-23T08:23:30Z</time>
      </trkpt>
      <trkpt lat="43.23712" lon="5.65305">
        <ele>433.61328125</ele>
        <time>2021-10-23T08:23:44Z</time>
      </trkpt>
      <trkpt lat="43.23725" lon="5.65245">
        <ele>435.734375</ele>
        <time>2021-10-23T08:23:59Z</time>
      </trkpt>
      <trkpt lat="43.23744" lon="5.65196">
        <ele>436.65625</ele>
        <time>2021-10-23T08:24:12Z</time>
      </trkpt>
      <trkpt lat="43.23748" lon="5.65185">
        <ele>437.15234375</ele>
        <time>2021-10-23T08:24:15Z</time>
      </trkpt>
      <trkpt lat="43.2375" lon="5.65182">
        <ele>437.265625</ele>
        <time>2021-10-23T08:24:16Z</time>
      </trkpt>
      <trkpt lat="43.23751" lon="5.65178">
        <ele>437.453125</ele>
        <time>2021-10-23T08:24:17Z</time>
      </trkpt>
      <trkpt lat="43.23769" lon="5.65114">
        <ele>440.5078125</ele>
        <time>2021-10-23T08:24:32Z</time>
      </trkpt>
      <trkpt lat="43.23785" lon="5.65043">
        <ele>443.28515625</ele>
        <time>2021-10-23T08:24:48Z</time>
      </trkpt>
      <trkpt lat="43.23791" lon="5.64974">
        <ele>448.3515625</ele>
        <time>2021-10-23T08:25:03Z</time>
      </trkpt>
      <trkpt lat="43.23798" lon="5.64929">
        <ele>451.8125</ele>
        <time>2021-10-23T08:25:14Z</time>
      </trkpt>
      <trkpt lat="43.23799" lon="5.64925">
        <ele>452.08203125</ele>
        <time>2021-10-23T08:25:15Z</time>
      </trkpt>
      <trkpt lat="43.23814" lon="5.64884">
        <ele>455.265625</ele>
        <time>2021-10-23T08:25:27Z</time>
      </trkpt>
      <trkpt lat="43.23817" lon="5.64877">
        <ele>455.85546875</ele>
        <time>2021-10-23T08:25:29Z</time>
      </trkpt>
      <trkpt lat="43.23823" lon="5.64825">
        <ele>458.8671875</ele>
        <time>2021-10-23T08:25:41Z</time>
      </trkpt>
      <trkpt lat="43.23844" lon="5.64762">
        <ele>462.92578125</ele>
        <time>2021-10-23T08:25:55Z</time>
      </trkpt>
      <trkpt lat="43.23846" lon="5.64759">
        <ele>463.28125</ele>
        <time>2021-10-23T08:25:56Z</time>
      </trkpt>
      <trkpt lat="43.23863" lon="5.64729">
        <ele>466.42578125</ele>
        <time>2021-10-23T08:26:05Z</time>
      </trkpt>
      <trkpt lat="43.23886" lon="5.64701">
        <ele>470.12890625</ele>
        <time>2021-10-23T08:26:16Z</time>
      </trkpt>
      <trkpt lat="43.2389" lon="5.64696">
        <ele>470.84375</ele>
        <time>2021-10-23T08:26:18Z</time>
      </trkpt>
      <trkpt lat="43.23932" lon="5.64647">
        <ele>475.91796875</ele>
        <time>2021-10-23T08:26:36Z</time>
      </trkpt>
      <trkpt lat="43.23967" lon="5.64604">
        <ele>479.7421875</ele>
        <time>2021-10-23T08:26:51Z</time>
      </trkpt>
      <trkpt lat="43.23996" lon="5.6457">
        <ele>485.50390625</ele>
        <time>2021-10-23T08:27:04Z</time>
      </trkpt>
      <trkpt lat="43.23998" lon="5.64567">
        <ele>485.86328125</ele>
        <time>2021-10-23T08:27:05Z</time>
      </trkpt>
      <trkpt lat="43.24014" lon="5.6453">
        <ele>488.4921875</ele>
        <time>2021-10-23T08:27:16Z</time>
      </trkpt>
      <trkpt lat="43.24001" lon="5.64495">
        <ele>485.17578125</ele>
        <time>2021-10-23T08:27:27Z</time>
      </trkpt>
      <trkpt lat="43.2398" lon="5.64457">
        <ele>483.8671875</ele>
        <time>2021-10-23T08:27:39Z</time>
      </trkpt>
      <trkpt lat="43.23978" lon="5.64416">
        <ele>487.04296875</ele>
        <time>2021-10-23T08:27:50Z</time>
      </trkpt>
      <trkpt lat="43.23981" lon="5.64393">
        <ele>488.01953125</ele>
        <time>2021-10-23T08:28:05Z</time>
      </trkpt>
      <trkpt lat="43.23983" lon="5.64393">
        <ele>488.1875</ele>
        <time>2021-10-23T08:28:31Z</time>
      </trkpt>
      <trkpt lat="43.2398" lon="5.64391">
        <ele>487.83984375</ele>
        <time>2021-10-23T08:29:01Z</time>
      </trkpt>
      <trkpt lat="43.23979" lon="5.64391">
        <ele>487.7421875</ele>
        <time>2021-10-23T08:29:21Z</time>
      </trkpt>
      <trkpt lat="43.2398" lon="5.6439">
        <ele>487.78515625</ele>
        <time>2021-10-23T08:29:47Z</time>
      </trkpt>
      <trkpt lat="43.23979" lon="5.64391">
        <ele>487.6953125</ele>
        <time>2021-10-23T08:30:22Z</time>
      </trkpt>
      <trkpt lat="43.23978" lon="5.64389">
        <ele>487.5546875</ele>
        <time>2021-10-23T08:30:24Z</time>
      </trkpt>
      <trkpt lat="43.23978" lon="5.64387">
        <ele>487.4609375</ele>
        <time>2021-10-23T08:30:25Z</time>
      </trkpt>
      <trkpt lat="43.23978" lon="5.64385">
        <ele>487.36328125</ele>
        <time>2021-10-23T08:30:26Z</time>
      </trkpt>
      <trkpt lat="43.23979" lon="5.64347">
        <ele>486.84765625</ele>
        <time>2021-10-23T08:30:37Z</time>
      </trkpt>
      <trkpt lat="43.23974" lon="5.64309">
        <ele>483.54296875</ele>
        <time>2021-10-23T08:30:45Z</time>
      </trkpt>
      <trkpt lat="43.23973" lon="5.64301">
        <ele>482.859375</ele>
        <time>2021-10-23T08:30:46Z</time>
      </trkpt>
      <trkpt lat="43.23969" lon="5.64266">
        <ele>480.61328125</ele>
        <time>2021-10-23T08:30:50Z</time>
      </trkpt>
      <trkpt lat="43.23967" lon="5.64256">
        <ele>480.01171875</ele>
        <time>2021-10-23T08:30:51Z</time>
      </trkpt>
      <trkpt lat="43.23964" lon="5.64247">
        <ele>479.47265625</ele>
        <time>2021-10-23T08:30:52Z</time>
      </trkpt>
      <trkpt lat="43.23961" lon="5.64236">
        <ele>479.0078125</ele>
        <time>2021-10-23T08:30:53Z</time>
      </trkpt>
      <trkpt lat="43.23959" lon="5.64225">
        <ele>478.74609375</ele>
        <time>2021-10-23T08:30:54Z</time>
      </trkpt>
      <trkpt lat="43.23958" lon="5.64213">
        <ele>478.375</ele>
        <time>2021-10-23T08:30:55Z</time>
      </trkpt>
      <trkpt lat="43.23958" lon="5.64202">
        <ele>478.22265625</ele>
        <time>2021-10-23T08:30:56Z</time>
      </trkpt>
      <trkpt lat="43.23959" lon="5.6419">
        <ele>477.921875</ele>
        <time>2021-10-23T08:30:57Z</time>
      </trkpt>
      <trkpt lat="43.2396" lon="5.64179">
        <ele>477.5625</ele>
        <time>2021-10-23T08:30:58Z</time>
      </trkpt>
      <trkpt lat="43.23963" lon="5.64169">
        <ele>477.27734375</ele>
        <time>2021-10-23T08:30:59Z</time>
      </trkpt>
      <trkpt lat="43.23965" lon="5.64159">
        <ele>476.94140625</ele>
        <time>2021-10-23T08:31:00Z</time>
      </trkpt>
      <trkpt lat="43.23969" lon="5.64149">
        <ele>477.0390625</ele>
        <time>2021-10-23T08:31:01Z</time>
      </trkpt>
      <trkpt lat="43.23973" lon="5.64141">
        <ele>477.3203125</ele>
        <time>2021-10-23T08:31:02Z</time>
      </trkpt>
      <trkpt lat="43.23999" lon="5.6408">
        <ele>480.36328125</ele>
        <time>2021-10-23T08:31:12Z</time>
      </trkpt>
      <trkpt lat="43.24011" lon="5.6405">
        <ele>483.5625</ele>
        <time>2021-10-23T08:31:20Z</time>
      </trkpt>
      <trkpt lat="43.2402" lon="5.64001">
        <ele>488.26953125</ele>
        <time>2021-10-23T08:31:33Z</time>
      </trkpt>
      <trkpt lat="43.24027" lon="5.63949">
        <ele>492.25</ele>
        <time>2021-10-23T08:31:46Z</time>
      </trkpt>
      <trkpt lat="43.24035" lon="5.63897">
        <ele>496.48828125</ele>
        <time>2021-10-23T08:31:59Z</time>
      </trkpt>
      <trkpt lat="43.24042" lon="5.63843">
        <ele>500.4921875</ele>
        <time>2021-10-23T08:32:13Z</time>
      </trkpt>
      <trkpt lat="43.24046" lon="5.63831">
        <ele>501.453125</ele>
        <time>2021-10-23T08:32:16Z</time>
      </trkpt>
      <trkpt lat="43.24049" lon="5.6382">
        <ele>502.484375</ele>
        <time>2021-10-23T08:32:19Z</time>
      </trkpt>
      <trkpt lat="43.24055" lon="5.63802">
        <ele>504.18359375</ele>
        <time>2021-10-23T08:32:24Z</time>
      </trkpt>
      <trkpt lat="43.2406" lon="5.6379">
        <ele>505.41015625</ele>
        <time>2021-10-23T08:32:29Z</time>
      </trkpt>
      <trkpt lat="43.24076" lon="5.63759">
        <ele>507.49609375</ele>
        <time>2021-10-23T08:32:46Z</time>
      </trkpt>
      <trkpt lat="43.241" lon="5.63735">
        <ele>509.60546875</ele>
        <time>2021-10-23T08:33:01Z</time>
      </trkpt>
      <trkpt lat="43.24125" lon="5.63719">
        <ele>510.671875</ele>
        <time>2021-10-23T08:33:14Z</time>
      </trkpt>
      <trkpt lat="43.24128" lon="5.63717">
        <ele>510.73046875</ele>
        <time>2021-10-23T08:33:15Z</time>
      </trkpt>
      <trkpt lat="43.24165" lon="5.63679">
        <ele>512.1796875</ele>
        <time>2021-10-23T08:33:30Z</time>
      </trkpt>
      <trkpt lat="43.24199" lon="5.63645">
        <ele>513.84765625</ele>
        <time>2021-10-23T08:33:43Z</time>
      </trkpt>
      <trkpt lat="43.24225" lon="5.63627">
        <ele>515.14453125</ele>
        <time>2021-10-23T08:33:55Z</time>
      </trkpt>
      <trkpt lat="43.24226" lon="5.63624">
        <ele>515.3515625</ele>
        <time>2021-10-23T08:33:56Z</time>
      </trkpt>
      <trkpt lat="43.24226" lon="5.6361">
        <ele>516.34765625</ele>
        <time>2021-10-23T08:34:00Z</time>
      </trkpt>
      <trkpt lat="43.24227" lon="5.63608">
        <ele>516.546875</ele>
        <time>2021-10-23T08:34:01Z</time>
      </trkpt>
      <trkpt lat="43.24229" lon="5.63606">
        <ele>516.71484375</ele>
        <time>2021-10-23T08:34:02Z</time>
      </trkpt>
      <trkpt lat="43.2423" lon="5.63601">
        <ele>517.11328125</ele>
        <time>2021-10-23T08:34:13Z</time>
      </trkpt>
      <trkpt lat="43.2423" lon="5.63599">
        <ele>517.203125</ele>
        <time>2021-10-23T08:34:44Z</time>
      </trkpt>
      <trkpt lat="43.24227" lon="5.63603">
        <ele>516.890625</ele>
        <time>2021-10-23T08:35:31Z</time>
      </trkpt>
      <trkpt lat="43.24229" lon="5.63612">
        <ele>516.30078125</ele>
        <time>2021-10-23T08:36:13Z</time>
      </trkpt>
      <trkpt lat="43.24232" lon="5.63612">
        <ele>516.296875</ele>
        <time>2021-10-23T08:36:51Z</time>
      </trkpt>
      <trkpt lat="43.2423" lon="5.63607">
        <ele>516.70703125</ele>
        <time>2021-10-23T08:37:30Z</time>
      </trkpt>
      <trkpt lat="43.2423" lon="5.63604">
        <ele>516.90234375</ele>
        <time>2021-10-23T08:38:04Z</time>
      </trkpt>
      <trkpt lat="43.24229" lon="5.63608">
        <ele>516.55859375</ele>
        <time>2021-10-23T08:38:41Z</time>
      </trkpt>
      <trkpt lat="43.24225" lon="5.63607">
        <ele>516.546875</ele>
        <time>2021-10-23T08:39:22Z</time>
      </trkpt>
      <trkpt lat="43.24221" lon="5.63607">
        <ele>516.41796875</ele>
        <time>2021-10-23T08:40:07Z</time>
      </trkpt>
      <trkpt lat="43.24225" lon="5.63606">
        <ele>516.609375</ele>
        <time>2021-10-23T08:40:50Z</time>
      </trkpt>
      <trkpt lat="43.24222" lon="5.636">
        <ele>516.86328125</ele>
        <time>2021-10-23T08:41:28Z</time>
      </trkpt>
      <trkpt lat="43.24221" lon="5.63595">
        <ele>516.9609375</ele>
        <time>2021-10-23T08:42:14Z</time>
      </trkpt>
      <trkpt lat="43.24222" lon="5.63593">
        <ele>517.09375</ele>
        <time>2021-10-23T08:42:43Z</time>
      </trkpt>
      <trkpt lat="43.24231" lon="5.63609">
        <ele>516.578125</ele>
        <time>2021-10-23T08:43:19Z</time>
      </trkpt>
      <trkpt lat="43.2423" lon="5.63608">
        <ele>516.6171875</ele>
        <time>2021-10-23T08:43:57Z</time>
      </trkpt>
      <trkpt lat="43.2423" lon="5.63603">
        <ele>516.953125</ele>
        <time>2021-10-23T08:44:25Z</time>
      </trkpt>
      <trkpt lat="43.24225" lon="5.63603">
        <ele>516.7890625</ele>
        <time>2021-10-23T08:45:09Z</time>
      </trkpt>
      <trkpt lat="43.24226" lon="5.63602">
        <ele>516.9296875</ele>
        <time>2021-10-23T08:45:49Z</time>
      </trkpt>
      <trkpt lat="43.24226" lon="5.63607">
        <ele>516.515625</ele>
        <time>2021-10-23T08:46:34Z</time>
      </trkpt>
      <trkpt lat="43.24224" lon="5.63611">
        <ele>516.24609375</ele>
        <time>2021-10-23T08:47:12Z</time>
      </trkpt>
      <trkpt lat="43.24228" lon="5.63611">
        <ele>516.3359375</ele>
        <time>2021-10-23T08:47:47Z</time>
      </trkpt>
      <trkpt lat="43.24231" lon="5.63607">
        <ele>516.69140625</ele>
        <time>2021-10-23T08:48:29Z</time>
      </trkpt>
      <trkpt lat="43.24229" lon="5.63603">
        <ele>516.91796875</ele>
        <time>2021-10-23T08:49:03Z</time>
      </trkpt>
      <trkpt lat="43.2423" lon="5.63605">
        <ele>516.86328125</ele>
        <time>2021-10-23T08:49:49Z</time>
      </trkpt>
      <trkpt lat="43.2423" lon="5.63608">
        <ele>516.58203125</ele>
        <time>2021-10-23T08:50:18Z</time>
      </trkpt>
      <trkpt lat="43.24232" lon="5.6361">
        <ele>516.4765625</ele>
        <time>2021-10-23T08:50:39Z</time>
      </trkpt>
      <trkpt lat="43.24231" lon="5.63609">
        <ele>516.57421875</ele>
        <time>2021-10-23T08:51:02Z</time>
      </trkpt>
      <trkpt lat="43.24232" lon="5.63609">
        <ele>516.578125</ele>
        <time>2021-10-23T08:51:23Z</time>
      </trkpt>
      <trkpt lat="43.24237" lon="5.63608">
        <ele>516.7890625</ele>
        <time>2021-10-23T08:51:27Z</time>
      </trkpt>
      <trkpt lat="43.24239" lon="5.63609">
        <ele>516.74609375</ele>
        <time>2021-10-23T08:51:28Z</time>
      </trkpt>
      <trkpt lat="43.24241" lon="5.63611">
        <ele>516.64453125</ele>
        <time>2021-10-23T08:51:29Z</time>
      </trkpt>
      <trkpt lat="43.24242" lon="5.63612">
        <ele>516.53515625</ele>
        <time>2021-10-23T08:51:30Z</time>
      </trkpt>
      <trkpt lat="43.24244" lon="5.63613">
        <ele>516.46875</ele>
        <time>2021-10-23T08:51:31Z</time>
      </trkpt>
      <trkpt lat="43.24246" lon="5.63613">
        <ele>516.51953125</ele>
        <time>2021-10-23T08:51:32Z</time>
      </trkpt>
      <trkpt lat="43.24249" lon="5.63612">
        <ele>516.6875</ele>
        <time>2021-10-23T08:51:33Z</time>
      </trkpt>
      <trkpt lat="43.24252" lon="5.6361">
        <ele>516.9453125</ele>
        <time>2021-10-23T08:51:34Z</time>
      </trkpt>
      <trkpt lat="43.24254" lon="5.63608">
        <ele>517.234375</ele>
        <time>2021-10-23T08:51:35Z</time>
      </trkpt>
      <trkpt lat="43.24257" lon="5.63606">
        <ele>517.40234375</ele>
        <time>2021-10-23T08:51:36Z</time>
      </trkpt>
      <trkpt lat="43.24292" lon="5.63579">
        <ele>517.5234375</ele>
        <time>2021-10-23T08:51:50Z</time>
      </trkpt>
      <trkpt lat="43.24316" lon="5.63546">
        <ele>515.6171875</ele>
        <time>2021-10-23T08:52:06Z</time>
      </trkpt>
      <trkpt lat="43.24321" lon="5.63533">
        <ele>514.0546875</ele>
        <time>2021-10-23T08:52:09Z</time>
      </trkpt>
      <trkpt lat="43.24322" lon="5.63527">
        <ele>513.625</ele>
        <time>2021-10-23T08:52:10Z</time>
      </trkpt>
      <trkpt lat="43.24322" lon="5.6352">
        <ele>513.2578125</ele>
        <time>2021-10-23T08:52:11Z</time>
      </trkpt>
      <trkpt lat="43.24323" lon="5.63513">
        <ele>512.671875</ele>
        <time>2021-10-23T08:52:12Z</time>
      </trkpt>
      <trkpt lat="43.24324" lon="5.63507">
        <ele>511.98828125</ele>
        <time>2021-10-23T08:52:13Z</time>
      </trkpt>
      <trkpt lat="43.24325" lon="5.63502">
        <ele>511.375</ele>
        <time>2021-10-23T08:52:14Z</time>
      </trkpt>
      <trkpt lat="43.24325" lon="5.63496">
        <ele>510.8046875</ele>
        <time>2021-10-23T08:52:15Z</time>
      </trkpt>
      <trkpt lat="43.24326" lon="5.63489">
        <ele>510.078125</ele>
        <time>2021-10-23T08:52:16Z</time>
      </trkpt>
      <trkpt lat="43.24328" lon="5.63483">
        <ele>509.0625</ele>
        <time>2021-10-23T08:52:17Z</time>
      </trkpt>
      <trkpt lat="43.24329" lon="5.63477">
        <ele>508.0546875</ele>
        <time>2021-10-23T08:52:18Z</time>
      </trkpt>
      <trkpt lat="43.2433" lon="5.63466">
        <ele>506.28515625</ele>
        <time>2021-10-23T08:52:20Z</time>
      </trkpt>
      <trkpt lat="43.2433" lon="5.63461">
        <ele>505.609375</ele>
        <time>2021-10-23T08:52:21Z</time>
      </trkpt>
      <trkpt lat="43.24328" lon="5.63455">
        <ele>504.796875</ele>
        <time>2021-10-23T08:52:22Z</time>
      </trkpt>
      <trkpt lat="43.24321" lon="5.6344">
        <ele>502.875</ele>
        <time>2021-10-23T08:52:24Z</time>
      </trkpt>
      <trkpt lat="43.24318" lon="5.63431">
        <ele>501.515625</ele>
        <time>2021-10-23T08:52:25Z</time>
      </trkpt>
      <trkpt lat="43.2431" lon="5.634">
        <ele>496.63671875</ele>
        <time>2021-10-23T08:52:28Z</time>
      </trkpt>
      <trkpt lat="43.24302" lon="5.63364">
        <ele>491.90625</ele>
        <time>2021-10-23T08:52:31Z</time>
      </trkpt>
      <trkpt lat="43.24301" lon="5.63351">
        <ele>490.22265625</ele>
        <time>2021-10-23T08:52:32Z</time>
      </trkpt>
      <trkpt lat="43.24301" lon="5.63338">
        <ele>488.953125</ele>
        <time>2021-10-23T08:52:33Z</time>
      </trkpt>
      <trkpt lat="43.24301" lon="5.63312">
        <ele>486.80859375</ele>
        <time>2021-10-23T08:52:35Z</time>
      </trkpt>
      <trkpt lat="43.24299" lon="5.63301">
        <ele>486.33984375</ele>
        <time>2021-10-23T08:52:36Z</time>
      </trkpt>
      <trkpt lat="43.24295" lon="5.6329">
        <ele>486.453125</ele>
        <time>2021-10-23T08:52:37Z</time>
      </trkpt>
      <trkpt lat="43.24278" lon="5.63243">
        <ele>486.83984375</ele>
        <time>2021-10-23T08:52:41Z</time>
      </trkpt>
      <trkpt lat="43.24268" lon="5.63221">
        <ele>485.65234375</ele>
        <time>2021-10-23T08:52:43Z</time>
      </trkpt>
      <trkpt lat="43.24247" lon="5.6314">
        <ele>480.7578125</ele>
        <time>2021-10-23T08:52:51Z</time>
      </trkpt>
      <trkpt lat="43.24245" lon="5.63131">
        <ele>480.1328125</ele>
        <time>2021-10-23T08:52:52Z</time>
      </trkpt>
      <trkpt lat="43.24244" lon="5.63122">
        <ele>479.109375</ele>
        <time>2021-10-23T08:52:53Z</time>
      </trkpt>
      <trkpt lat="43.24241" lon="5.63113">
        <ele>477.92578125</ele>
        <time>2021-10-23T08:52:54Z</time>
      </trkpt>
      <trkpt lat="43.24239" lon="5.63103">
        <ele>476.68359375</ele>
        <time>2021-10-23T08:52:55Z</time>
      </trkpt>
      <trkpt lat="43.24235" lon="5.63057">
        <ele>471.546875</ele>
        <time>2021-10-23T08:52:59Z</time>
      </trkpt>
      <trkpt lat="43.24234" lon="5.63046">
        <ele>470.44921875</ele>
        <time>2021-10-23T08:53:00Z</time>
      </trkpt>
      <trkpt lat="43.24233" lon="5.63036">
        <ele>469.76953125</ele>
        <time>2021-10-23T08:53:01Z</time>
      </trkpt>
      <trkpt lat="43.24228" lon="5.63009">
        <ele>468.20703125</ele>
        <time>2021-10-23T08:53:04Z</time>
      </trkpt>
      <trkpt lat="43.24228" lon="5.63003">
        <ele>467.75390625</ele>
        <time>2021-10-23T08:53:05Z</time>
      </trkpt>
      <trkpt lat="43.2423" lon="5.62998">
        <ele>467.1484375</ele>
        <time>2021-10-23T08:53:06Z</time>
      </trkpt>
      <trkpt lat="43.24233" lon="5.62994">
        <ele>466.4765625</ele>
        <time>2021-10-23T08:53:07Z</time>
      </trkpt>
      <trkpt lat="43.24238" lon="5.6299">
        <ele>465.76171875</ele>
        <time>2021-10-23T08:53:08Z</time>
      </trkpt>
      <trkpt lat="43.24243" lon="5.62986">
        <ele>464.8515625</ele>
        <time>2021-10-23T08:53:09Z</time>
      </trkpt>
      <trkpt lat="43.24248" lon="5.62981">
        <ele>463.96875</ele>
        <time>2021-10-23T08:53:10Z</time>
      </trkpt>
      <trkpt lat="43.2425" lon="5.62975">
        <ele>463.2578125</ele>
        <time>2021-10-23T08:53:11Z</time>
      </trkpt>
      <trkpt lat="43.24252" lon="5.62969">
        <ele>462.6171875</ele>
        <time>2021-10-23T08:53:12Z</time>
      </trkpt>
      <trkpt lat="43.24253" lon="5.62961">
        <ele>461.84375</ele>
        <time>2021-10-23T08:53:13Z</time>
      </trkpt>
      <trkpt lat="43.24262" lon="5.62919">
        <ele>457.4296875</ele>
        <time>2021-10-23T08:53:17Z</time>
      </trkpt>
      <trkpt lat="43.24269" lon="5.62885">
        <ele>456.3828125</ele>
        <time>2021-10-23T08:53:20Z</time>
      </trkpt>
      <trkpt lat="43.24272" lon="5.62874">
        <ele>456.1171875</ele>
        <time>2021-10-23T08:53:21Z</time>
      </trkpt>
      <trkpt lat="43.24283" lon="5.62832">
        <ele>456.46875</ele>
        <time>2021-10-23T08:53:25Z</time>
      </trkpt>
      <trkpt lat="43.24283" lon="5.62822">
        <ele>456.765625</ele>
        <time>2021-10-23T08:53:26Z</time>
      </trkpt>
      <trkpt lat="43.24281" lon="5.62813">
        <ele>457.05078125</ele>
        <time>2021-10-23T08:53:27Z</time>
      </trkpt>
      <trkpt lat="43.24277" lon="5.62805">
        <ele>457.1796875</ele>
        <time>2021-10-23T08:53:28Z</time>
      </trkpt>
      <trkpt lat="43.24273" lon="5.62798">
        <ele>457.3203125</ele>
        <time>2021-10-23T08:53:29Z</time>
      </trkpt>
      <trkpt lat="43.24269" lon="5.62792">
        <ele>457.4765625</ele>
        <time>2021-10-23T08:53:30Z</time>
      </trkpt>
      <trkpt lat="43.24264" lon="5.62786">
        <ele>457.6484375</ele>
        <time>2021-10-23T08:53:31Z</time>
      </trkpt>
      <trkpt lat="43.24244" lon="5.62755">
        <ele>457.91015625</ele>
        <time>2021-10-23T08:53:35Z</time>
      </trkpt>
      <trkpt lat="43.24239" lon="5.62745">
        <ele>458.1953125</ele>
        <time>2021-10-23T08:53:36Z</time>
      </trkpt>
      <trkpt lat="43.24231" lon="5.62727">
        <ele>458.5</ele>
        <time>2021-10-23T08:53:38Z</time>
      </trkpt>
      <trkpt lat="43.24225" lon="5.62718">
        <ele>458.71484375</ele>
        <time>2021-10-23T08:53:39Z</time>
      </trkpt>
      <trkpt lat="43.24199" lon="5.6268">
        <ele>456.0390625</ele>
        <time>2021-10-23T08:53:43Z</time>
      </trkpt>
      <trkpt lat="43.24185" lon="5.62659">
        <ele>455.51953125</ele>
        <time>2021-10-23T08:53:45Z</time>
      </trkpt>
      <trkpt lat="43.24179" lon="5.62647">
        <ele>454.9609375</ele>
        <time>2021-10-23T08:53:46Z</time>
      </trkpt>
      <trkpt lat="43.24174" lon="5.62635">
        <ele>454.328125</ele>
        <time>2021-10-23T08:53:47Z</time>
      </trkpt>
      <trkpt lat="43.2417" lon="5.62622">
        <ele>453.421875</ele>
        <time>2021-10-23T08:53:48Z</time>
      </trkpt>
      <trkpt lat="43.24166" lon="5.62609">
        <ele>452.32421875</ele>
        <time>2021-10-23T08:53:49Z</time>
      </trkpt>
      <trkpt lat="43.24165" lon="5.62595">
        <ele>451.02734375</ele>
        <time>2021-10-23T08:53:50Z</time>
      </trkpt>
      <trkpt lat="43.24164" lon="5.6258">
        <ele>449.4140625</ele>
        <time>2021-10-23T08:53:51Z</time>
      </trkpt>
      <trkpt lat="43.24165" lon="5.62565">
        <ele>447.83984375</ele>
        <time>2021-10-23T08:53:52Z</time>
      </trkpt>
      <trkpt lat="43.24165" lon="5.62551">
        <ele>446.28125</ele>
        <time>2021-10-23T08:53:53Z</time>
      </trkpt>
      <trkpt lat="43.24164" lon="5.62536">
        <ele>444.78125</ele>
        <time>2021-10-23T08:53:54Z</time>
      </trkpt>
      <trkpt lat="43.24164" lon="5.62522">
        <ele>443.40625</ele>
        <time>2021-10-23T08:53:55Z</time>
      </trkpt>
      <trkpt lat="43.24164" lon="5.6251">
        <ele>442.2265625</ele>
        <time>2021-10-23T08:53:56Z</time>
      </trkpt>
      <trkpt lat="43.24165" lon="5.62498">
        <ele>441.09765625</ele>
        <time>2021-10-23T08:53:57Z</time>
      </trkpt>
      <trkpt lat="43.24167" lon="5.62487">
        <ele>440.10546875</ele>
        <time>2021-10-23T08:53:58Z</time>
      </trkpt>
      <trkpt lat="43.24167" lon="5.62478">
        <ele>439.52734375</ele>
        <time>2021-10-23T08:53:59Z</time>
      </trkpt>
      <trkpt lat="43.24166" lon="5.6247">
        <ele>439.1640625</ele>
        <time>2021-10-23T08:54:00Z</time>
      </trkpt>
      <trkpt lat="43.24164" lon="5.62462">
        <ele>438.953125</ele>
        <time>2021-10-23T08:54:01Z</time>
      </trkpt>
      <trkpt lat="43.24161" lon="5.62445">
        <ele>439.48828125</ele>
        <time>2021-10-23T08:54:05Z</time>
      </trkpt>
      <trkpt lat="43.2416" lon="5.62447">
        <ele>439.5390625</ele>
        <time>2021-10-23T08:54:16Z</time>
      </trkpt>
      <trkpt lat="43.24161" lon="5.62445">
        <ele>439.38671875</ele>
        <time>2021-10-23T08:54:36Z</time>
      </trkpt>
      <trkpt lat="43.2416" lon="5.62445">
        <ele>439.578125</ele>
        <time>2021-10-23T08:54:37Z</time>
      </trkpt>
      <trkpt lat="43.24158" lon="5.62444">
        <ele>439.8125</ele>
        <time>2021-10-23T08:54:38Z</time>
      </trkpt>
      <trkpt lat="43.24156" lon="5.62443">
        <ele>440.109375</ele>
        <time>2021-10-23T08:54:39Z</time>
      </trkpt>
      <trkpt lat="43.24153" lon="5.62443">
        <ele>440.515625</ele>
        <time>2021-10-23T08:54:40Z</time>
      </trkpt>
      <trkpt lat="43.24142" lon="5.62442">
        <ele>441.9609375</ele>
        <time>2021-10-23T08:54:43Z</time>
      </trkpt>
      <trkpt lat="43.24137" lon="5.62443">
        <ele>441.78515625</ele>
        <time>2021-10-23T08:54:44Z</time>
      </trkpt>
      <trkpt lat="43.24131" lon="5.62445">
        <ele>441.57421875</ele>
        <time>2021-10-23T08:54:45Z</time>
      </trkpt>
      <trkpt lat="43.24125" lon="5.62446">
        <ele>441.3515625</ele>
        <time>2021-10-23T08:54:46Z</time>
      </trkpt>
      <trkpt lat="43.24119" lon="5.62448">
        <ele>441.1484375</ele>
        <time>2021-10-23T08:54:47Z</time>
      </trkpt>
      <trkpt lat="43.24114" lon="5.62451">
        <ele>440.9375</ele>
        <time>2021-10-23T08:54:48Z</time>
      </trkpt>
      <trkpt lat="43.24109" lon="5.62454">
        <ele>440.69921875</ele>
        <time>2021-10-23T08:54:49Z</time>
      </trkpt>
      <trkpt lat="43.24105" lon="5.62458">
        <ele>440.546875</ele>
        <time>2021-10-23T08:54:50Z</time>
      </trkpt>
      <trkpt lat="43.241" lon="5.62464">
        <ele>440.48828125</ele>
        <time>2021-10-23T08:54:51Z</time>
      </trkpt>
      <trkpt lat="43.24097" lon="5.62469">
        <ele>440.55078125</ele>
        <time>2021-10-23T08:54:52Z</time>
      </trkpt>
      <trkpt lat="43.24094" lon="5.62474">
        <ele>440.6328125</ele>
        <time>2021-10-23T08:54:53Z</time>
      </trkpt>
      <trkpt lat="43.24092" lon="5.6248">
        <ele>440.74609375</ele>
        <time>2021-10-23T08:54:54Z</time>
      </trkpt>
      <trkpt lat="43.24089" lon="5.62483">
        <ele>440.796875</ele>
        <time>2021-10-23T08:54:55Z</time>
      </trkpt>
      <trkpt lat="43.24086" lon="5.62483">
        <ele>440.640625</ele>
        <time>2021-10-23T08:54:56Z</time>
      </trkpt>
      <trkpt lat="43.24083" lon="5.6248">
        <ele>440.296875</ele>
        <time>2021-10-23T08:54:57Z</time>
      </trkpt>
      <trkpt lat="43.2408" lon="5.62474">
        <ele>439.88671875</ele>
        <time>2021-10-23T08:54:58Z</time>
      </trkpt>
      <trkpt lat="43.24077" lon="5.62469">
        <ele>439.421875</ele>
        <time>2021-10-23T08:54:59Z</time>
      </trkpt>
      <trkpt lat="43.24072" lon="5.62463">
        <ele>438.91015625</ele>
        <time>2021-10-23T08:55:00Z</time>
      </trkpt>
      <trkpt lat="43.24067" lon="5.62457">
        <ele>438.2109375</ele>
        <time>2021-10-23T08:55:01Z</time>
      </trkpt>
      <trkpt lat="43.24063" lon="5.62452">
        <ele>437.45703125</ele>
        <time>2021-10-23T08:55:02Z</time>
      </trkpt>
      <trkpt lat="43.24059" lon="5.62445">
        <ele>436.66796875</ele>
        <time>2021-10-23T08:55:03Z</time>
      </trkpt>
      <trkpt lat="43.24057" lon="5.62438">
        <ele>435.9609375</ele>
        <time>2021-10-23T08:55:04Z</time>
      </trkpt>
      <trkpt lat="43.24055" lon="5.6243">
        <ele>435.43359375</ele>
        <time>2021-10-23T08:55:05Z</time>
      </trkpt>
      <trkpt lat="43.24052" lon="5.62423">
        <ele>434.921875</ele>
        <time>2021-10-23T08:55:06Z</time>
      </trkpt>
      <trkpt lat="43.24048" lon="5.62417">
        <ele>434.2578125</ele>
        <time>2021-10-23T08:55:07Z</time>
      </trkpt>
      <trkpt lat="43.24044" lon="5.6241">
        <ele>433.4453125</ele>
        <time>2021-10-23T08:55:08Z</time>
      </trkpt>
      <trkpt lat="43.24031" lon="5.62387">
        <ele>431.14453125</ele>
        <time>2021-10-23T08:55:11Z</time>
      </trkpt>
      <trkpt lat="43.24027" lon="5.6238">
        <ele>430.5078125</ele>
        <time>2021-10-23T08:55:12Z</time>
      </trkpt>
      <trkpt lat="43.24023" lon="5.62377">
        <ele>430.0390625</ele>
        <time>2021-10-23T08:55:13Z</time>
      </trkpt>
      <trkpt lat="43.24018" lon="5.62377">
        <ele>429.48828125</ele>
        <time>2021-10-23T08:55:14Z</time>
      </trkpt>
      <trkpt lat="43.24012" lon="5.62378">
        <ele>428.84375</ele>
        <time>2021-10-23T08:55:15Z</time>
      </trkpt>
      <trkpt lat="43.24006" lon="5.62379">
        <ele>428.18359375</ele>
        <time>2021-10-23T08:55:16Z</time>
      </trkpt>
      <trkpt lat="43.24" lon="5.62383">
        <ele>427.73046875</ele>
        <time>2021-10-23T08:55:17Z</time>
      </trkpt>
      <trkpt lat="43.23994" lon="5.62386">
        <ele>427.3125</ele>
        <time>2021-10-23T08:55:18Z</time>
      </trkpt>
      <trkpt lat="43.23983" lon="5.62391">
        <ele>426.53515625</ele>
        <time>2021-10-23T08:55:20Z</time>
      </trkpt>
      <trkpt lat="43.2396" lon="5.624">
        <ele>425.328125</ele>
        <time>2021-10-23T08:55:24Z</time>
      </trkpt>
      <trkpt lat="43.23954" lon="5.62404">
        <ele>425.1640625</ele>
        <time>2021-10-23T08:55:25Z</time>
      </trkpt>
      <trkpt lat="43.23948" lon="5.62407">
        <ele>424.90234375</ele>
        <time>2021-10-23T08:55:26Z</time>
      </trkpt>
      <trkpt lat="43.23925" lon="5.62419">
        <ele>423.27734375</ele>
        <time>2021-10-23T08:55:30Z</time>
      </trkpt>
      <trkpt lat="43.2392" lon="5.62423">
        <ele>422.875</ele>
        <time>2021-10-23T08:55:31Z</time>
      </trkpt>
      <trkpt lat="43.23914" lon="5.62426">
        <ele>422.1484375</ele>
        <time>2021-10-23T08:55:32Z</time>
      </trkpt>
      <trkpt lat="43.23909" lon="5.62428">
        <ele>421.40234375</ele>
        <time>2021-10-23T08:55:33Z</time>
      </trkpt>
      <trkpt lat="43.23904" lon="5.6243">
        <ele>420.6953125</ele>
        <time>2021-10-23T08:55:34Z</time>
      </trkpt>
      <trkpt lat="43.23899" lon="5.62432">
        <ele>419.8828125</ele>
        <time>2021-10-23T08:55:35Z</time>
      </trkpt>
      <trkpt lat="43.23889" lon="5.62436">
        <ele>418.34765625</ele>
        <time>2021-10-23T08:55:37Z</time>
      </trkpt>
      <trkpt lat="43.23885" lon="5.62439">
        <ele>417.8125</ele>
        <time>2021-10-23T08:55:38Z</time>
      </trkpt>
      <trkpt lat="43.23881" lon="5.62443">
        <ele>417.55859375</ele>
        <time>2021-10-23T08:55:39Z</time>
      </trkpt>
      <trkpt lat="43.23878" lon="5.62448">
        <ele>417.453125</ele>
        <time>2021-10-23T08:55:40Z</time>
      </trkpt>
      <trkpt lat="43.23874" lon="5.62454">
        <ele>417.3359375</ele>
        <time>2021-10-23T08:55:41Z</time>
      </trkpt>
      <trkpt lat="43.23869" lon="5.6246">
        <ele>417.19921875</ele>
        <time>2021-10-23T08:55:42Z</time>
      </trkpt>
      <trkpt lat="43.23864" lon="5.62464">
        <ele>416.82421875</ele>
        <time>2021-10-23T08:55:43Z</time>
      </trkpt>
      <trkpt lat="43.23853" lon="5.62468">
        <ele>415.4453125</ele>
        <time>2021-10-23T08:55:45Z</time>
      </trkpt>
      <trkpt lat="43.23848" lon="5.62469">
        <ele>414.76171875</ele>
        <time>2021-10-23T08:55:46Z</time>
      </trkpt>
      <trkpt lat="43.23843" lon="5.6247">
        <ele>414.046875</ele>
        <time>2021-10-23T08:55:47Z</time>
      </trkpt>
      <trkpt lat="43.23829" lon="5.62473">
        <ele>411.9453125</ele>
        <time>2021-10-23T08:55:50Z</time>
      </trkpt>
      <trkpt lat="43.23824" lon="5.62473">
        <ele>411.08984375</ele>
        <time>2021-10-23T08:55:51Z</time>
      </trkpt>
      <trkpt lat="43.23819" lon="5.62472">
        <ele>410.109375</ele>
        <time>2021-10-23T08:55:52Z</time>
      </trkpt>
      <trkpt lat="43.23803" lon="5.62469">
        <ele>407.7421875</ele>
        <time>2021-10-23T08:55:55Z</time>
      </trkpt>
      <trkpt lat="43.23794" lon="5.62462">
        <ele>406.14453125</ele>
        <time>2021-10-23T08:55:57Z</time>
      </trkpt>
      <trkpt lat="43.2379" lon="5.62457">
        <ele>405.1171875</ele>
        <time>2021-10-23T08:55:58Z</time>
      </trkpt>
      <trkpt lat="43.23786" lon="5.62455">
        <ele>404.35546875</ele>
        <time>2021-10-23T08:55:59Z</time>
      </trkpt>
      <trkpt lat="43.23783" lon="5.62454">
        <ele>403.77734375</ele>
        <time>2021-10-23T08:56:00Z</time>
      </trkpt>
      <trkpt lat="43.23779" lon="5.62452">
        <ele>403.33203125</ele>
        <time>2021-10-23T08:56:01Z</time>
      </trkpt>
      <trkpt lat="43.23775" lon="5.62451">
        <ele>402.80859375</ele>
        <time>2021-10-23T08:56:02Z</time>
      </trkpt>
      <trkpt lat="43.2377" lon="5.62449">
        <ele>402.13671875</ele>
        <time>2021-10-23T08:56:03Z</time>
      </trkpt>
      <trkpt lat="43.23765" lon="5.62446">
        <ele>401.17578125</ele>
        <time>2021-10-23T08:56:04Z</time>
      </trkpt>
      <trkpt lat="43.23761" lon="5.62443">
        <ele>399.89453125</ele>
        <time>2021-10-23T08:56:05Z</time>
      </trkpt>
      <trkpt lat="43.23757" lon="5.62439">
        <ele>398.37109375</ele>
        <time>2021-10-23T08:56:06Z</time>
      </trkpt>
      <trkpt lat="43.23752" lon="5.62436">
        <ele>396.90234375</ele>
        <time>2021-10-23T08:56:07Z</time>
      </trkpt>
      <trkpt lat="43.23743" lon="5.6243">
        <ele>394.69921875</ele>
        <time>2021-10-23T08:56:09Z</time>
      </trkpt>
      <trkpt lat="43.23738" lon="5.62426">
        <ele>393.41015625</ele>
        <time>2021-10-23T08:56:10Z</time>
      </trkpt>
      <trkpt lat="43.23734" lon="5.62424">
        <ele>392.375</ele>
        <time>2021-10-23T08:56:11Z</time>
      </trkpt>
      <trkpt lat="43.23729" lon="5.62424">
        <ele>391.45703125</ele>
        <time>2021-10-23T08:56:12Z</time>
      </trkpt>
      <trkpt lat="43.23724" lon="5.62421">
        <ele>390.47265625</ele>
        <time>2021-10-23T08:56:13Z</time>
      </trkpt>
      <trkpt lat="43.23719" lon="5.62418">
        <ele>389.50390625</ele>
        <time>2021-10-23T08:56:14Z</time>
      </trkpt>
      <trkpt lat="43.23714" lon="5.62415">
        <ele>388.3203125</ele>
        <time>2021-10-23T08:56:15Z</time>
      </trkpt>
      <trkpt lat="43.2371" lon="5.6241">
        <ele>386.71875</ele>
        <time>2021-10-23T08:56:16Z</time>
      </trkpt>
      <trkpt lat="43.23706" lon="5.62406">
        <ele>385.515625</ele>
        <time>2021-10-23T08:56:17Z</time>
      </trkpt>
      <trkpt lat="43.23702" lon="5.62402">
        <ele>385.1328125</ele>
        <time>2021-10-23T08:56:18Z</time>
      </trkpt>
      <trkpt lat="43.23698" lon="5.62398">
        <ele>384.59375</ele>
        <time>2021-10-23T08:56:19Z</time>
      </trkpt>
      <trkpt lat="43.23693" lon="5.62396">
        <ele>384.15234375</ele>
        <time>2021-10-23T08:56:20Z</time>
      </trkpt>
      <trkpt lat="43.2369" lon="5.62393">
        <ele>383.65234375</ele>
        <time>2021-10-23T08:56:21Z</time>
      </trkpt>
      <trkpt lat="43.23686" lon="5.62391">
        <ele>383.0703125</ele>
        <time>2021-10-23T08:56:22Z</time>
      </trkpt>
      <trkpt lat="43.23683" lon="5.62388">
        <ele>382.28515625</ele>
        <time>2021-10-23T08:56:23Z</time>
      </trkpt>
      <trkpt lat="43.23679" lon="5.62384">
        <ele>381.1171875</ele>
        <time>2021-10-23T08:56:24Z</time>
      </trkpt>
      <trkpt lat="43.23674" lon="5.62379">
        <ele>379.5625</ele>
        <time>2021-10-23T08:56:25Z</time>
      </trkpt>
      <trkpt lat="43.23671" lon="5.62374">
        <ele>378.8203125</ele>
        <time>2021-10-23T08:56:26Z</time>
      </trkpt>
      <trkpt lat="43.23667" lon="5.6237">
        <ele>378.703125</ele>
        <time>2021-10-23T08:56:27Z</time>
      </trkpt>
      <trkpt lat="43.23663" lon="5.62367">
        <ele>378.45703125</ele>
        <time>2021-10-23T08:56:28Z</time>
      </trkpt>
      <trkpt lat="43.23658" lon="5.62364">
        <ele>378.12109375</ele>
        <time>2021-10-23T08:56:29Z</time>
      </trkpt>
      <trkpt lat="43.23655" lon="5.62363">
        <ele>377.87109375</ele>
        <time>2021-10-23T08:56:30Z</time>
      </trkpt>
      <trkpt lat="43.23652" lon="5.62363">
        <ele>377.67578125</ele>
        <time>2021-10-23T08:56:31Z</time>
      </trkpt>
      <trkpt lat="43.23649" lon="5.62361">
        <ele>377.2734375</ele>
        <time>2021-10-23T08:56:32Z</time>
      </trkpt>
      <trkpt lat="43.23646" lon="5.62358">
        <ele>376.45703125</ele>
        <time>2021-10-23T08:56:33Z</time>
      </trkpt>
      <trkpt lat="43.23643" lon="5.62354">
        <ele>375.49609375</ele>
        <time>2021-10-23T08:56:34Z</time>
      </trkpt>
      <trkpt lat="43.2364" lon="5.6235">
        <ele>374.83203125</ele>
        <time>2021-10-23T08:56:35Z</time>
      </trkpt>
      <trkpt lat="43.23637" lon="5.62346">
        <ele>374.25</ele>
        <time>2021-10-23T08:56:36Z</time>
      </trkpt>
      <trkpt lat="43.23634" lon="5.62342">
        <ele>373.51953125</ele>
        <time>2021-10-23T08:56:37Z</time>
      </trkpt>
      <trkpt lat="43.23631" lon="5.62338">
        <ele>372.53515625</ele>
        <time>2021-10-23T08:56:38Z</time>
      </trkpt>
      <trkpt lat="43.23627" lon="5.62332">
        <ele>371.23046875</ele>
        <time>2021-10-23T08:56:39Z</time>
      </trkpt>
      <trkpt lat="43.23623" lon="5.62328">
        <ele>369.7421875</ele>
        <time>2021-10-23T08:56:40Z</time>
      </trkpt>
      <trkpt lat="43.23618" lon="5.62325">
        <ele>368.57421875</ele>
        <time>2021-10-23T08:56:41Z</time>
      </trkpt>
      <trkpt lat="43.23613" lon="5.62324">
        <ele>368.0546875</ele>
        <time>2021-10-23T08:56:42Z</time>
      </trkpt>
      <trkpt lat="43.2361" lon="5.62323">
        <ele>367.8515625</ele>
        <time>2021-10-23T08:56:43Z</time>
      </trkpt>
      <trkpt lat="43.23609" lon="5.6232">
        <ele>367.484375</ele>
        <time>2021-10-23T08:56:44Z</time>
      </trkpt>
      <trkpt lat="43.23609" lon="5.62314">
        <ele>366.8515625</ele>
        <time>2021-10-23T08:56:45Z</time>
      </trkpt>
      <trkpt lat="43.23609" lon="5.62307">
        <ele>366.0234375</ele>
        <time>2021-10-23T08:56:46Z</time>
      </trkpt>
      <trkpt lat="43.23607" lon="5.62301">
        <ele>365.06640625</ele>
        <time>2021-10-23T08:56:47Z</time>
      </trkpt>
      <trkpt lat="43.23604" lon="5.62296">
        <ele>363.86328125</ele>
        <time>2021-10-23T08:56:48Z</time>
      </trkpt>
      <trkpt lat="43.236" lon="5.6229">
        <ele>362.484375</ele>
        <time>2021-10-23T08:56:49Z</time>
      </trkpt>
      <trkpt lat="43.2359" lon="5.6227">
        <ele>356.9921875</ele>
        <time>2021-10-23T08:56:52Z</time>
      </trkpt>
      <trkpt lat="43.23582" lon="5.6226">
        <ele>355.421875</ele>
        <time>2021-10-23T08:56:55Z</time>
      </trkpt>
      <trkpt lat="43.23579" lon="5.62257">
        <ele>355.05078125</ele>
        <time>2021-10-23T08:56:56Z</time>
      </trkpt>
      <trkpt lat="43.23575" lon="5.62252">
        <ele>354.3046875</ele>
        <time>2021-10-23T08:56:58Z</time>
      </trkpt>
      <trkpt lat="43.23566" lon="5.62245">
        <ele>352.4375</ele>
        <time>2021-10-23T08:57:07Z</time>
      </trkpt>
      <trkpt lat="43.23563" lon="5.62241">
        <ele>351.41015625</ele>
        <time>2021-10-23T08:57:08Z</time>
      </trkpt>
      <trkpt lat="43.23558" lon="5.62234">
        <ele>350.1875</ele>
        <time>2021-10-23T08:57:10Z</time>
      </trkpt>
      <trkpt lat="43.23556" lon="5.62225">
        <ele>348.76953125</ele>
        <time>2021-10-23T08:57:12Z</time>
      </trkpt>
      <trkpt lat="43.23551" lon="5.62213">
        <ele>346.421875</ele>
        <time>2021-10-23T08:57:14Z</time>
      </trkpt>
      <trkpt lat="43.23549" lon="5.62208">
        <ele>345.6953125</ele>
        <time>2021-10-23T08:57:15Z</time>
      </trkpt>
      <trkpt lat="43.23548" lon="5.62203">
        <ele>345.12109375</ele>
        <time>2021-10-23T08:57:16Z</time>
      </trkpt>
      <trkpt lat="43.23547" lon="5.622">
        <ele>344.6171875</ele>
        <time>2021-10-23T08:57:17Z</time>
      </trkpt>
      <trkpt lat="43.23546" lon="5.62198">
        <ele>344.2890625</ele>
        <time>2021-10-23T08:57:18Z</time>
      </trkpt>
      <trkpt lat="43.23544" lon="5.62196">
        <ele>343.80859375</ele>
        <time>2021-10-23T08:57:30Z</time>
      </trkpt>
      <trkpt lat="43.23544" lon="5.62196">
        <ele>343.7421875</ele>
        <time>2021-10-23T08:57:55Z</time>
      </trkpt>
      <trkpt lat="43.23544" lon="5.62196">
        <ele>343.890625</ele>
        <time>2021-10-23T08:58:25Z</time>
      </trkpt>
      <trkpt lat="43.23545" lon="5.62196">
        <ele>343.9375</ele>
        <time>2021-10-23T08:58:57Z</time>
      </trkpt>
      <trkpt lat="43.23544" lon="5.62195">
        <ele>343.6640625</ele>
        <time>2021-10-23T08:59:26Z</time>
      </trkpt>
      <trkpt lat="43.23543" lon="5.62196">
        <ele>343.59765625</ele>
        <time>2021-10-23T09:00:00Z</time>
      </trkpt>
      <trkpt lat="43.23543" lon="5.62196">
        <ele>343.58984375</ele>
        <time>2021-10-23T09:00:29Z</time>
      </trkpt>
      <trkpt lat="43.23543" lon="5.62195">
        <ele>343.36328125</ele>
        <time>2021-10-23T09:00:57Z</time>
      </trkpt>
      <trkpt lat="43.23543" lon="5.62195">
        <ele>343.40234375</ele>
        <time>2021-10-23T09:01:34Z</time>
      </trkpt>
      <trkpt lat="43.23542" lon="5.62195">
        <ele>343.15625</ele>
        <time>2021-10-23T09:01:44Z</time>
      </trkpt>
      <trkpt lat="43.23539" lon="5.62194">
        <ele>342.51953125</ele>
        <time>2021-10-23T09:01:45Z</time>
      </trkpt>
      <trkpt lat="43.23536" lon="5.62192">
        <ele>341.46484375</ele>
        <time>2021-10-23T09:01:46Z</time>
      </trkpt>
      <trkpt lat="43.23532" lon="5.62189">
        <ele>340.4140625</ele>
        <time>2021-10-23T09:01:47Z</time>
      </trkpt>
      <trkpt lat="43.23528" lon="5.62186">
        <ele>340.24609375</ele>
        <time>2021-10-23T09:01:48Z</time>
      </trkpt>
      <trkpt lat="43.23523" lon="5.62183">
        <ele>340.33203125</ele>
        <time>2021-10-23T09:01:49Z</time>
      </trkpt>
      <trkpt lat="43.23519" lon="5.62181">
        <ele>340.41015625</ele>
        <time>2021-10-23T09:01:50Z</time>
      </trkpt>
      <trkpt lat="43.23515" lon="5.62179">
        <ele>340.41796875</ele>
        <time>2021-10-23T09:01:51Z</time>
      </trkpt>
      <trkpt lat="43.23512" lon="5.62176">
        <ele>340.328125</ele>
        <time>2021-10-23T09:01:52Z</time>
      </trkpt>
      <trkpt lat="43.23509" lon="5.62173">
        <ele>340.1484375</ele>
        <time>2021-10-23T09:01:53Z</time>
      </trkpt>
      <trkpt lat="43.23505" lon="5.62169">
        <ele>339.83984375</ele>
        <time>2021-10-23T09:01:54Z</time>
      </trkpt>
      <trkpt lat="43.235" lon="5.62166">
        <ele>339.51953125</ele>
        <time>2021-10-23T09:01:55Z</time>
      </trkpt>
      <trkpt lat="43.23496" lon="5.62164">
        <ele>339.0859375</ele>
        <time>2021-10-23T09:01:56Z</time>
      </trkpt>
      <trkpt lat="43.23492" lon="5.6216">
        <ele>338.484375</ele>
        <time>2021-10-23T09:01:57Z</time>
      </trkpt>
      <trkpt lat="43.23488" lon="5.62157">
        <ele>337.8125</ele>
        <time>2021-10-23T09:01:58Z</time>
      </trkpt>
      <trkpt lat="43.23483" lon="5.62157">
        <ele>337.39453125</ele>
        <time>2021-10-23T09:01:59Z</time>
      </trkpt>
      <trkpt lat="43.23477" lon="5.62157">
        <ele>336.9765625</ele>
        <time>2021-10-23T09:02:00Z</time>
      </trkpt>
      <trkpt lat="43.23471" lon="5.62157">
        <ele>336.8984375</ele>
        <time>2021-10-23T09:02:01Z</time>
      </trkpt>
      <trkpt lat="43.23466" lon="5.62157">
        <ele>336.859375</ele>
        <time>2021-10-23T09:02:02Z</time>
      </trkpt>
      <trkpt lat="43.2346" lon="5.62156">
        <ele>336.671875</ele>
        <time>2021-10-23T09:02:03Z</time>
      </trkpt>
      <trkpt lat="43.23456" lon="5.62155">
        <ele>336.45703125</ele>
        <time>2021-10-23T09:02:04Z</time>
      </trkpt>
      <trkpt lat="43.23451" lon="5.62154">
        <ele>336.33984375</ele>
        <time>2021-10-23T09:02:05Z</time>
      </trkpt>
      <trkpt lat="43.23435" lon="5.62151">
        <ele>334.4453125</ele>
        <time>2021-10-23T09:02:08Z</time>
      </trkpt>
      <trkpt lat="43.23424" lon="5.62149">
        <ele>333.00390625</ele>
        <time>2021-10-23T09:02:10Z</time>
      </trkpt>
      <trkpt lat="43.23407" lon="5.62147">
        <ele>330.77734375</ele>
        <time>2021-10-23T09:02:13Z</time>
      </trkpt>
      <trkpt lat="43.23401" lon="5.62148">
        <ele>330.43359375</ele>
        <time>2021-10-23T09:02:14Z</time>
      </trkpt>
      <trkpt lat="43.23395" lon="5.62149">
        <ele>329.95703125</ele>
        <time>2021-10-23T09:02:15Z</time>
      </trkpt>
      <trkpt lat="43.2339" lon="5.62148">
        <ele>329.140625</ele>
        <time>2021-10-23T09:02:16Z</time>
      </trkpt>
      <trkpt lat="43.23385" lon="5.62147">
        <ele>328.25390625</ele>
        <time>2021-10-23T09:02:17Z</time>
      </trkpt>
      <trkpt lat="43.23381" lon="5.62147">
        <ele>327.45703125</ele>
        <time>2021-10-23T09:02:18Z</time>
      </trkpt>
      <trkpt lat="43.23376" lon="5.62147">
        <ele>326.7578125</ele>
        <time>2021-10-23T09:02:19Z</time>
      </trkpt>
      <trkpt lat="43.23371" lon="5.62145">
        <ele>325.671875</ele>
        <time>2021-10-23T09:02:20Z</time>
      </trkpt>
      <trkpt lat="43.23367" lon="5.62141">
        <ele>324.08984375</ele>
        <time>2021-10-23T09:02:21Z</time>
      </trkpt>
      <trkpt lat="43.23364" lon="5.62136">
        <ele>322.54296875</ele>
        <time>2021-10-23T09:02:22Z</time>
      </trkpt>
      <trkpt lat="43.23357" lon="5.62121">
        <ele>321.2421875</ele>
        <time>2021-10-23T09:02:25Z</time>
      </trkpt>
      <trkpt lat="43.23356" lon="5.62118">
        <ele>321.34375</ele>
        <time>2021-10-23T09:02:26Z</time>
      </trkpt>
      <trkpt lat="43.23354" lon="5.62114">
        <ele>321.26171875</ele>
        <time>2021-10-23T09:02:27Z</time>
      </trkpt>
      <trkpt lat="43.23352" lon="5.6211">
        <ele>321.17578125</ele>
        <time>2021-10-23T09:02:28Z</time>
      </trkpt>
      <trkpt lat="43.2335" lon="5.62105">
        <ele>321.12109375</ele>
        <time>2021-10-23T09:02:29Z</time>
      </trkpt>
      <trkpt lat="43.23348" lon="5.62102">
        <ele>320.77734375</ele>
        <time>2021-10-23T09:02:30Z</time>
      </trkpt>
      <trkpt lat="43.23346" lon="5.62099">
        <ele>320.61328125</ele>
        <time>2021-10-23T09:02:31Z</time>
      </trkpt>
      <trkpt lat="43.23344" lon="5.62095">
        <ele>320.4453125</ele>
        <time>2021-10-23T09:02:32Z</time>
      </trkpt>
      <trkpt lat="43.23341" lon="5.62092">
        <ele>320.02734375</ele>
        <time>2021-10-23T09:02:33Z</time>
      </trkpt>
      <trkpt lat="43.23339" lon="5.62088">
        <ele>319.7109375</ele>
        <time>2021-10-23T09:02:34Z</time>
      </trkpt>
      <trkpt lat="43.23337" lon="5.62082">
        <ele>319.69140625</ele>
        <time>2021-10-23T09:02:35Z</time>
      </trkpt>
      <trkpt lat="43.23335" lon="5.62077">
        <ele>319.734375</ele>
        <time>2021-10-23T09:02:36Z</time>
      </trkpt>
      <trkpt lat="43.23332" lon="5.62071">
        <ele>319.81640625</ele>
        <time>2021-10-23T09:02:37Z</time>
      </trkpt>
      <trkpt lat="43.23328" lon="5.62066">
        <ele>319.8515625</ele>
        <time>2021-10-23T09:02:38Z</time>
      </trkpt>
      <trkpt lat="43.23324" lon="5.62062">
        <ele>319.57421875</ele>
        <time>2021-10-23T09:02:39Z</time>
      </trkpt>
      <trkpt lat="43.23319" lon="5.62058">
        <ele>319</ele>
        <time>2021-10-23T09:02:40Z</time>
      </trkpt>
      <trkpt lat="43.23315" lon="5.62053">
        <ele>318.19140625</ele>
        <time>2021-10-23T09:02:41Z</time>
      </trkpt>
      <trkpt lat="43.2331" lon="5.6205">
        <ele>317.078125</ele>
        <time>2021-10-23T09:02:42Z</time>
      </trkpt>
      <trkpt lat="43.23305" lon="5.62048">
        <ele>316.30078125</ele>
        <time>2021-10-23T09:02:43Z</time>
      </trkpt>
      <trkpt lat="43.23299" lon="5.62048">
        <ele>315.5625</ele>
        <time>2021-10-23T09:02:44Z</time>
      </trkpt>
      <trkpt lat="43.23294" lon="5.62048">
        <ele>314.890625</ele>
        <time>2021-10-23T09:02:45Z</time>
      </trkpt>
      <trkpt lat="43.2329" lon="5.62047">
        <ele>314.11328125</ele>
        <time>2021-10-23T09:02:46Z</time>
      </trkpt>
      <trkpt lat="43.23287" lon="5.62044">
        <ele>313.4609375</ele>
        <time>2021-10-23T09:02:47Z</time>
      </trkpt>
      <trkpt lat="43.23283" lon="5.62042">
        <ele>312.73828125</ele>
        <time>2021-10-23T09:02:48Z</time>
      </trkpt>
      <trkpt lat="43.23278" lon="5.6204">
        <ele>312.48046875</ele>
        <time>2021-10-23T09:02:49Z</time>
      </trkpt>
      <trkpt lat="43.23272" lon="5.62038">
        <ele>312.296875</ele>
        <time>2021-10-23T09:02:50Z</time>
      </trkpt>
      <trkpt lat="43.23261" lon="5.62035">
        <ele>311.890625</ele>
        <time>2021-10-23T09:02:52Z</time>
      </trkpt>
      <trkpt lat="43.23255" lon="5.62036">
        <ele>311.875</ele>
        <time>2021-10-23T09:02:53Z</time>
      </trkpt>
      <trkpt lat="43.23249" lon="5.62037">
        <ele>311.26171875</ele>
        <time>2021-10-23T09:02:54Z</time>
      </trkpt>
      <trkpt lat="43.23235" lon="5.62039">
        <ele>309.859375</ele>
        <time>2021-10-23T09:02:56Z</time>
      </trkpt>
      <trkpt lat="43.23213" lon="5.62045">
        <ele>308.25390625</ele>
        <time>2021-10-23T09:02:59Z</time>
      </trkpt>
      <trkpt lat="43.23207" lon="5.62045">
        <ele>307.58984375</ele>
        <time>2021-10-23T09:03:00Z</time>
      </trkpt>
      <trkpt lat="43.23195" lon="5.62042">
        <ele>305.63671875</ele>
        <time>2021-10-23T09:03:02Z</time>
      </trkpt>
      <trkpt lat="43.2319" lon="5.62039">
        <ele>304.3359375</ele>
        <time>2021-10-23T09:03:03Z</time>
      </trkpt>
      <trkpt lat="43.23185" lon="5.62034">
        <ele>303.109375</ele>
        <time>2021-10-23T09:03:04Z</time>
      </trkpt>
      <trkpt lat="43.23177" lon="5.62023">
        <ele>301.04296875</ele>
        <time>2021-10-23T09:03:06Z</time>
      </trkpt>
      <trkpt lat="43.23175" lon="5.62017">
        <ele>300.21484375</ele>
        <time>2021-10-23T09:03:07Z</time>
      </trkpt>
      <trkpt lat="43.23175" lon="5.6201">
        <ele>299.49609375</ele>
        <time>2021-10-23T09:03:08Z</time>
      </trkpt>
      <trkpt lat="43.23177" lon="5.62003">
        <ele>299.0390625</ele>
        <time>2021-10-23T09:03:09Z</time>
      </trkpt>
      <trkpt lat="43.2318" lon="5.61998">
        <ele>298.8203125</ele>
        <time>2021-10-23T09:03:10Z</time>
      </trkpt>
      <trkpt lat="43.23183" lon="5.61994">
        <ele>298.91015625</ele>
        <time>2021-10-23T09:03:11Z</time>
      </trkpt>
      <trkpt lat="43.23186" lon="5.61991">
        <ele>299.0859375</ele>
        <time>2021-10-23T09:03:12Z</time>
      </trkpt>
      <trkpt lat="43.23189" lon="5.61988">
        <ele>299.625</ele>
        <time>2021-10-23T09:03:13Z</time>
      </trkpt>
      <trkpt lat="43.23192" lon="5.61984">
        <ele>300.2890625</ele>
        <time>2021-10-23T09:03:14Z</time>
      </trkpt>
      <trkpt lat="43.23195" lon="5.61981">
        <ele>301.01171875</ele>
        <time>2021-10-23T09:03:15Z</time>
      </trkpt>
      <trkpt lat="43.23202" lon="5.61966">
        <ele>303.3046875</ele>
        <time>2021-10-23T09:03:19Z</time>
      </trkpt>
      <trkpt lat="43.23203" lon="5.61953">
        <ele>304.640625</ele>
        <time>2021-10-23T09:03:22Z</time>
      </trkpt>
      <trkpt lat="43.232" lon="5.61945">
        <ele>304.48046875</ele>
        <time>2021-10-23T09:03:33Z</time>
      </trkpt>
      <trkpt lat="43.23198" lon="5.61943">
        <ele>304.03125</ele>
        <time>2021-10-23T09:03:34Z</time>
      </trkpt>
      <trkpt lat="43.23196" lon="5.61941">
        <ele>303.5234375</ele>
        <time>2021-10-23T09:03:35Z</time>
      </trkpt>
      <trkpt lat="43.23193" lon="5.61937">
        <ele>302.921875</ele>
        <time>2021-10-23T09:03:36Z</time>
      </trkpt>
      <trkpt lat="43.23189" lon="5.61933">
        <ele>301.86328125</ele>
        <time>2021-10-23T09:03:37Z</time>
      </trkpt>
      <trkpt lat="43.23185" lon="5.61929">
        <ele>300.28515625</ele>
        <time>2021-10-23T09:03:38Z</time>
      </trkpt>
      <trkpt lat="43.23179" lon="5.61926">
        <ele>298.37109375</ele>
        <time>2021-10-23T09:03:39Z</time>
      </trkpt>
      <trkpt lat="43.23174" lon="5.61923">
        <ele>296.35546875</ele>
        <time>2021-10-23T09:03:40Z</time>
      </trkpt>
      <trkpt lat="43.23169" lon="5.61921">
        <ele>294.8203125</ele>
        <time>2021-10-23T09:03:41Z</time>
      </trkpt>
      <trkpt lat="43.23159" lon="5.61921">
        <ele>292.29296875</ele>
        <time>2021-10-23T09:03:43Z</time>
      </trkpt>
      <trkpt lat="43.23155" lon="5.61922">
        <ele>291.2734375</ele>
        <time>2021-10-23T09:03:44Z</time>
      </trkpt>
      <trkpt lat="43.23151" lon="5.61924">
        <ele>290.6171875</ele>
        <time>2021-10-23T09:03:45Z</time>
      </trkpt>
      <trkpt lat="43.23149" lon="5.61924">
        <ele>289.9921875</ele>
        <time>2021-10-23T09:03:46Z</time>
      </trkpt>
      <trkpt lat="43.23146" lon="5.61924">
        <ele>289.3046875</ele>
        <time>2021-10-23T09:03:47Z</time>
      </trkpt>
      <trkpt lat="43.23144" lon="5.61921">
        <ele>288.44921875</ele>
        <time>2021-10-23T09:03:48Z</time>
      </trkpt>
      <trkpt lat="43.23141" lon="5.61917">
        <ele>287.8515625</ele>
        <time>2021-10-23T09:03:49Z</time>
      </trkpt>
      <trkpt lat="43.2314" lon="5.61911">
        <ele>287.125</ele>
        <time>2021-10-23T09:03:50Z</time>
      </trkpt>
      <trkpt lat="43.23139" lon="5.61904">
        <ele>286.62109375</ele>
        <time>2021-10-23T09:03:51Z</time>
      </trkpt>
      <trkpt lat="43.23137" lon="5.61899">
        <ele>286.33203125</ele>
        <time>2021-10-23T09:03:52Z</time>
      </trkpt>
      <trkpt lat="43.23135" lon="5.61893">
        <ele>285.875</ele>
        <time>2021-10-23T09:03:53Z</time>
      </trkpt>
      <trkpt lat="43.23133" lon="5.61887">
        <ele>285.37109375</ele>
        <time>2021-10-23T09:03:54Z</time>
      </trkpt>
      <trkpt lat="43.23132" lon="5.6188">
        <ele>284.96875</ele>
        <time>2021-10-23T09:03:55Z</time>
      </trkpt>
      <trkpt lat="43.23133" lon="5.61873">
        <ele>285.10546875</ele>
        <time>2021-10-23T09:03:56Z</time>
      </trkpt>
      <trkpt lat="43.23134" lon="5.61867">
        <ele>285.47265625</ele>
        <time>2021-10-23T09:03:57Z</time>
      </trkpt>
      <trkpt lat="43.23137" lon="5.61862">
        <ele>286.08984375</ele>
        <time>2021-10-23T09:03:58Z</time>
      </trkpt>
      <trkpt lat="43.2314" lon="5.61857">
        <ele>286.96484375</ele>
        <time>2021-10-23T09:03:59Z</time>
      </trkpt>
      <trkpt lat="43.23144" lon="5.61853">
        <ele>288.21875</ele>
        <time>2021-10-23T09:04:00Z</time>
      </trkpt>
      <trkpt lat="43.23148" lon="5.61847">
        <ele>290.0546875</ele>
        <time>2021-10-23T09:04:01Z</time>
      </trkpt>
      <trkpt lat="43.23154" lon="5.61836">
        <ele>292.95703125</ele>
        <time>2021-10-23T09:04:03Z</time>
      </trkpt>
      <trkpt lat="43.23156" lon="5.61832">
        <ele>293.90625</ele>
        <time>2021-10-23T09:04:04Z</time>
      </trkpt>
      <trkpt lat="43.23155" lon="5.61828">
        <ele>293.9140625</ele>
        <time>2021-10-23T09:04:05Z</time>
      </trkpt>
      <trkpt lat="43.23153" lon="5.61825">
        <ele>292.984375</ele>
        <time>2021-10-23T09:04:06Z</time>
      </trkpt>
      <trkpt lat="43.23149" lon="5.61824">
        <ele>291.49609375</ele>
        <time>2021-10-23T09:04:07Z</time>
      </trkpt>
      <trkpt lat="43.23145" lon="5.61824">
        <ele>289.5703125</ele>
        <time>2021-10-23T09:04:08Z</time>
      </trkpt>
      <trkpt lat="43.23141" lon="5.61824">
        <ele>288.39453125</ele>
        <time>2021-10-23T09:04:09Z</time>
      </trkpt>
      <trkpt lat="43.2314" lon="5.61824">
        <ele>287.8984375</ele>
        <time>2021-10-23T09:04:10Z</time>
      </trkpt>
      <trkpt lat="43.23138" lon="5.61821">
        <ele>287.6875</ele>
        <time>2021-10-23T09:04:27Z</time>
      </trkpt>
      <trkpt lat="43.23135" lon="5.61819">
        <ele>286.91015625</ele>
        <time>2021-10-23T09:04:34Z</time>
      </trkpt>
      <trkpt lat="43.23134" lon="5.61818">
        <ele>286.48046875</ele>
        <time>2021-10-23T09:04:35Z</time>
      </trkpt>
      <trkpt lat="43.23132" lon="5.61818">
        <ele>285.9609375</ele>
        <time>2021-10-23T09:04:36Z</time>
      </trkpt>
      <trkpt lat="43.23122" lon="5.61814">
        <ele>283.09375</ele>
        <time>2021-10-23T09:04:39Z</time>
      </trkpt>
      <trkpt lat="43.23117" lon="5.61813">
        <ele>281.8359375</ele>
        <time>2021-10-23T09:04:40Z</time>
      </trkpt>
      <trkpt lat="43.23114" lon="5.61811">
        <ele>281.203125</ele>
        <time>2021-10-23T09:04:41Z</time>
      </trkpt>
      <trkpt lat="43.23106" lon="5.61803">
        <ele>280.3828125</ele>
        <time>2021-10-23T09:04:49Z</time>
      </trkpt>
      <trkpt lat="43.23104" lon="5.61798">
        <ele>280.2890625</ele>
        <time>2021-10-23T09:05:05Z</time>
      </trkpt>
      <trkpt lat="43.23104" lon="5.61796">
        <ele>280.21484375</ele>
        <time>2021-10-23T09:05:06Z</time>
      </trkpt>
      <trkpt lat="43.23103" lon="5.61794">
        <ele>280.23046875</ele>
        <time>2021-10-23T09:05:07Z</time>
      </trkpt>
      <trkpt lat="43.23102" lon="5.61791">
        <ele>280.1953125</ele>
        <time>2021-10-23T09:05:08Z</time>
      </trkpt>
      <trkpt lat="43.231" lon="5.61788">
        <ele>280.078125</ele>
        <time>2021-10-23T09:05:09Z</time>
      </trkpt>
      <trkpt lat="43.2309" lon="5.61768">
        <ele>278.64453125</ele>
        <time>2021-10-23T09:05:14Z</time>
      </trkpt>
      <trkpt lat="43.23087" lon="5.61764">
        <ele>278.36328125</ele>
        <time>2021-10-23T09:05:15Z</time>
      </trkpt>
      <trkpt lat="43.23082" lon="5.61763">
        <ele>277.75390625</ele>
        <time>2021-10-23T09:05:16Z</time>
      </trkpt>
      <trkpt lat="43.23077" lon="5.61764">
        <ele>276.69921875</ele>
        <time>2021-10-23T09:05:17Z</time>
      </trkpt>
      <trkpt lat="43.23073" lon="5.61767">
        <ele>275.45703125</ele>
        <time>2021-10-23T09:05:18Z</time>
      </trkpt>
      <trkpt lat="43.23068" lon="5.61771">
        <ele>274.51953125</ele>
        <time>2021-10-23T09:05:19Z</time>
      </trkpt>
      <trkpt lat="43.23054" lon="5.61782">
        <ele>273.71875</ele>
        <time>2021-10-23T09:05:22Z</time>
      </trkpt>
      <trkpt lat="43.2305" lon="5.61783">
        <ele>273.40234375</ele>
        <time>2021-10-23T09:05:23Z</time>
      </trkpt>
      <trkpt lat="43.23038" lon="5.61778">
        <ele>271.81640625</ele>
        <time>2021-10-23T09:05:26Z</time>
      </trkpt>
      <trkpt lat="43.23033" lon="5.61775">
        <ele>271.29296875</ele>
        <time>2021-10-23T09:05:27Z</time>
      </trkpt>
      <trkpt lat="43.23029" lon="5.61771">
        <ele>270.69140625</ele>
        <time>2021-10-23T09:05:28Z</time>
      </trkpt>
      <trkpt lat="43.2302" lon="5.61762">
        <ele>269.921875</ele>
        <time>2021-10-23T09:05:30Z</time>
      </trkpt>
      <trkpt lat="43.23017" lon="5.61758">
        <ele>269.65625</ele>
        <time>2021-10-23T09:05:31Z</time>
      </trkpt>
      <trkpt lat="43.23013" lon="5.61752">
        <ele>269.50390625</ele>
        <time>2021-10-23T09:05:32Z</time>
      </trkpt>
      <trkpt lat="43.23011" lon="5.61745">
        <ele>269.54296875</ele>
        <time>2021-10-23T09:05:33Z</time>
      </trkpt>
      <trkpt lat="43.23011" lon="5.61738">
        <ele>269.7578125</ele>
        <time>2021-10-23T09:05:34Z</time>
      </trkpt>
      <trkpt lat="43.23012" lon="5.61729">
        <ele>270.09765625</ele>
        <time>2021-10-23T09:05:35Z</time>
      </trkpt>
      <trkpt lat="43.23013" lon="5.6172">
        <ele>270.6171875</ele>
        <time>2021-10-23T09:05:36Z</time>
      </trkpt>
      <trkpt lat="43.23014" lon="5.61712">
        <ele>271.08984375</ele>
        <time>2021-10-23T09:05:37Z</time>
      </trkpt>
      <trkpt lat="43.23014" lon="5.61707">
        <ele>271.15625</ele>
        <time>2021-10-23T09:05:38Z</time>
      </trkpt>
      <trkpt lat="43.23012" lon="5.61704">
        <ele>270.89453125</ele>
        <time>2021-10-23T09:05:39Z</time>
      </trkpt>
      <trkpt lat="43.23009" lon="5.61702">
        <ele>270.20703125</ele>
        <time>2021-10-23T09:05:49Z</time>
      </trkpt>
      <trkpt lat="43.23006" lon="5.617">
        <ele>269.79296875</ele>
        <time>2021-10-23T09:06:15Z</time>
      </trkpt>
      <trkpt lat="43.23005" lon="5.61696">
        <ele>269.6328125</ele>
        <time>2021-10-23T09:06:29Z</time>
      </trkpt>
      <trkpt lat="43.23003" lon="5.61696">
        <ele>269.45703125</ele>
        <time>2021-10-23T09:06:38Z</time>
      </trkpt>
      <trkpt lat="43.23001" lon="5.61694">
        <ele>269.2890625</ele>
        <time>2021-10-23T09:06:39Z</time>
      </trkpt>
      <trkpt lat="43.22998" lon="5.61691">
        <ele>269.05859375</ele>
        <time>2021-10-23T09:06:40Z</time>
      </trkpt>
      <trkpt lat="43.22995" lon="5.61689">
        <ele>268.74609375</ele>
        <time>2021-10-23T09:06:41Z</time>
      </trkpt>
      <trkpt lat="43.2299" lon="5.61688">
        <ele>268.34375</ele>
        <time>2021-10-23T09:06:42Z</time>
      </trkpt>
      <trkpt lat="43.22986" lon="5.61688">
        <ele>267.83203125</ele>
        <time>2021-10-23T09:06:43Z</time>
      </trkpt>
      <trkpt lat="43.22981" lon="5.61688">
        <ele>267.30078125</ele>
        <time>2021-10-23T09:06:44Z</time>
      </trkpt>
      <trkpt lat="43.22976" lon="5.61688">
        <ele>266.84765625</ele>
        <time>2021-10-23T09:06:45Z</time>
      </trkpt>
      <trkpt lat="43.22972" lon="5.61688">
        <ele>266.55078125</ele>
        <time>2021-10-23T09:06:46Z</time>
      </trkpt>
      <trkpt lat="43.22969" lon="5.61687">
        <ele>266.37109375</ele>
        <time>2021-10-23T09:06:47Z</time>
      </trkpt>
      <trkpt lat="43.22966" lon="5.61682">
        <ele>266.2578125</ele>
        <time>2021-10-23T09:06:48Z</time>
      </trkpt>
      <trkpt lat="43.22963" lon="5.61678">
        <ele>266.14453125</ele>
        <time>2021-10-23T09:06:49Z</time>
      </trkpt>
      <trkpt lat="43.22959" lon="5.61673">
        <ele>265.98828125</ele>
        <time>2021-10-23T09:06:50Z</time>
      </trkpt>
      <trkpt lat="43.22955" lon="5.61669">
        <ele>265.890625</ele>
        <time>2021-10-23T09:06:51Z</time>
      </trkpt>
      <trkpt lat="43.22954" lon="5.61665">
        <ele>265.92578125</ele>
        <time>2021-10-23T09:06:52Z</time>
      </trkpt>
      <trkpt lat="43.22953" lon="5.6166">
        <ele>266.03515625</ele>
        <time>2021-10-23T09:06:53Z</time>
      </trkpt>
      <trkpt lat="43.22951" lon="5.61655">
        <ele>266.09375</ele>
        <time>2021-10-23T09:06:54Z</time>
      </trkpt>
      <trkpt lat="43.2295" lon="5.61648">
        <ele>266.05078125</ele>
        <time>2021-10-23T09:06:55Z</time>
      </trkpt>
      <trkpt lat="43.22949" lon="5.61639">
        <ele>265.9921875</ele>
        <time>2021-10-23T09:06:56Z</time>
      </trkpt>
      <trkpt lat="43.22949" lon="5.61631">
        <ele>265.94140625</ele>
        <time>2021-10-23T09:06:57Z</time>
      </trkpt>
      <trkpt lat="43.2295" lon="5.61614">
        <ele>266.7734375</ele>
        <time>2021-10-23T09:06:59Z</time>
      </trkpt>
      <trkpt lat="43.22951" lon="5.61608">
        <ele>267.265625</ele>
        <time>2021-10-23T09:07:00Z</time>
      </trkpt>
      <trkpt lat="43.22951" lon="5.61603">
        <ele>267.3203125</ele>
        <time>2021-10-23T09:07:01Z</time>
      </trkpt>
      <trkpt lat="43.22948" lon="5.61592">
        <ele>266.75</ele>
        <time>2021-10-23T09:07:03Z</time>
      </trkpt>
      <trkpt lat="43.22944" lon="5.61587">
        <ele>265.6953125</ele>
        <time>2021-10-23T09:07:04Z</time>
      </trkpt>
      <trkpt lat="43.22935" lon="5.61577">
        <ele>261.7890625</ele>
        <time>2021-10-23T09:07:06Z</time>
      </trkpt>
      <trkpt lat="43.22929" lon="5.61573">
        <ele>259.48046875</ele>
        <time>2021-10-23T09:07:07Z</time>
      </trkpt>
      <trkpt lat="43.22924" lon="5.61572">
        <ele>257.4140625</ele>
        <time>2021-10-23T09:07:08Z</time>
      </trkpt>
      <trkpt lat="43.22919" lon="5.61573">
        <ele>255.8359375</ele>
        <time>2021-10-23T09:07:09Z</time>
      </trkpt>
      <trkpt lat="43.22914" lon="5.61575">
        <ele>254.703125</ele>
        <time>2021-10-23T09:07:10Z</time>
      </trkpt>
      <trkpt lat="43.2291" lon="5.61579">
        <ele>254.26953125</ele>
        <time>2021-10-23T09:07:11Z</time>
      </trkpt>
      <trkpt lat="43.22906" lon="5.61583">
        <ele>254.171875</ele>
        <time>2021-10-23T09:07:12Z</time>
      </trkpt>
      <trkpt lat="43.22905" lon="5.61588">
        <ele>254.50390625</ele>
        <time>2021-10-23T09:07:13Z</time>
      </trkpt>
      <trkpt lat="43.22903" lon="5.61594">
        <ele>254.8359375</ele>
        <time>2021-10-23T09:07:14Z</time>
      </trkpt>
      <trkpt lat="43.22901" lon="5.616">
        <ele>254.984375</ele>
        <time>2021-10-23T09:07:15Z</time>
      </trkpt>
      <trkpt lat="43.22898" lon="5.61605">
        <ele>255.140625</ele>
        <time>2021-10-23T09:07:16Z</time>
      </trkpt>
      <trkpt lat="43.22897" lon="5.6161">
        <ele>255.46875</ele>
        <time>2021-10-23T09:07:17Z</time>
      </trkpt>
      <trkpt lat="43.22895" lon="5.61615">
        <ele>255.65625</ele>
        <time>2021-10-23T09:07:18Z</time>
      </trkpt>
      <trkpt lat="43.22893" lon="5.61619">
        <ele>255.6015625</ele>
        <time>2021-10-23T09:07:19Z</time>
      </trkpt>
      <trkpt lat="43.22889" lon="5.61622">
        <ele>255.37890625</ele>
        <time>2021-10-23T09:07:20Z</time>
      </trkpt>
      <trkpt lat="43.22886" lon="5.61624">
        <ele>254.921875</ele>
        <time>2021-10-23T09:07:21Z</time>
      </trkpt>
      <trkpt lat="43.22882" lon="5.61624">
        <ele>254.19140625</ele>
        <time>2021-10-23T09:07:22Z</time>
      </trkpt>
      <trkpt lat="43.22878" lon="5.61623">
        <ele>253.33203125</ele>
        <time>2021-10-23T09:07:23Z</time>
      </trkpt>
      <trkpt lat="43.22875" lon="5.61622">
        <ele>252.62890625</ele>
        <time>2021-10-23T09:07:24Z</time>
      </trkpt>
      <trkpt lat="43.22871" lon="5.61622">
        <ele>252.03125</ele>
        <time>2021-10-23T09:07:25Z</time>
      </trkpt>
      <trkpt lat="43.22867" lon="5.61624">
        <ele>251.43359375</ele>
        <time>2021-10-23T09:07:26Z</time>
      </trkpt>
      <trkpt lat="43.22862" lon="5.61627">
        <ele>250.59375</ele>
        <time>2021-10-23T09:07:27Z</time>
      </trkpt>
      <trkpt lat="43.22858" lon="5.61631">
        <ele>249.83984375</ele>
        <time>2021-10-23T09:07:28Z</time>
      </trkpt>
      <trkpt lat="43.22854" lon="5.61635">
        <ele>249.1875</ele>
        <time>2021-10-23T09:07:29Z</time>
      </trkpt>
      <trkpt lat="43.2285" lon="5.61637">
        <ele>248.14453125</ele>
        <time>2021-10-23T09:07:30Z</time>
      </trkpt>
      <trkpt lat="43.22845" lon="5.61637">
        <ele>246.7578125</ele>
        <time>2021-10-23T09:07:31Z</time>
      </trkpt>
      <trkpt lat="43.22842" lon="5.61634">
        <ele>245.50390625</ele>
        <time>2021-10-23T09:07:32Z</time>
      </trkpt>
      <trkpt lat="43.22841" lon="5.61629">
        <ele>244.64453125</ele>
        <time>2021-10-23T09:07:33Z</time>
      </trkpt>
      <trkpt lat="43.22841" lon="5.61623">
        <ele>244.390625</ele>
        <time>2021-10-23T09:07:34Z</time>
      </trkpt>
      <trkpt lat="43.22842" lon="5.61617">
        <ele>244.328125</ele>
        <time>2021-10-23T09:07:35Z</time>
      </trkpt>
      <trkpt lat="43.22842" lon="5.61603">
        <ele>243.875</ele>
        <time>2021-10-23T09:07:37Z</time>
      </trkpt>
      <trkpt lat="43.22841" lon="5.61598">
        <ele>243.33984375</ele>
        <time>2021-10-23T09:07:38Z</time>
      </trkpt>
      <trkpt lat="43.22837" lon="5.61595">
        <ele>242.6015625</ele>
        <time>2021-10-23T09:07:39Z</time>
      </trkpt>
      <trkpt lat="43.22833" lon="5.61595">
        <ele>241.90625</ele>
        <time>2021-10-23T09:07:40Z</time>
      </trkpt>
      <trkpt lat="43.22829" lon="5.61596">
        <ele>241.21484375</ele>
        <time>2021-10-23T09:07:41Z</time>
      </trkpt>
      <trkpt lat="43.22826" lon="5.61598">
        <ele>240.71484375</ele>
        <time>2021-10-23T09:07:42Z</time>
      </trkpt>
      <trkpt lat="43.22824" lon="5.61599">
        <ele>240.37109375</ele>
        <time>2021-10-23T09:07:43Z</time>
      </trkpt>
      <trkpt lat="43.22822" lon="5.61598">
        <ele>239.98046875</ele>
        <time>2021-10-23T09:07:44Z</time>
      </trkpt>
      <trkpt lat="43.22814" lon="5.61596">
        <ele>238.6640625</ele>
        <time>2021-10-23T09:07:46Z</time>
      </trkpt>
      <trkpt lat="43.2281" lon="5.61597">
        <ele>237.9296875</ele>
        <time>2021-10-23T09:07:47Z</time>
      </trkpt>
      <trkpt lat="43.22792" lon="5.61602">
        <ele>236.671875</ele>
        <time>2021-10-23T09:07:50Z</time>
      </trkpt>
      <trkpt lat="43.22786" lon="5.61603">
        <ele>236.15625</ele>
        <time>2021-10-23T09:07:51Z</time>
      </trkpt>
      <trkpt lat="43.22772" lon="5.61603">
        <ele>235.14453125</ele>
        <time>2021-10-23T09:07:53Z</time>
      </trkpt>
      <trkpt lat="43.22758" lon="5.61601">
        <ele>234.1171875</ele>
        <time>2021-10-23T09:07:55Z</time>
      </trkpt>
      <trkpt lat="43.22745" lon="5.616">
        <ele>232.97265625</ele>
        <time>2021-10-23T09:07:57Z</time>
      </trkpt>
      <trkpt lat="43.22741" lon="5.61595">
        <ele>232.0625</ele>
        <time>2021-10-23T09:07:58Z</time>
      </trkpt>
      <trkpt lat="43.22737" lon="5.61589">
        <ele>230.93359375</ele>
        <time>2021-10-23T09:07:59Z</time>
      </trkpt>
      <trkpt lat="43.22734" lon="5.61582">
        <ele>229.765625</ele>
        <time>2021-10-23T09:08:00Z</time>
      </trkpt>
      <trkpt lat="43.22733" lon="5.61575">
        <ele>228.73046875</ele>
        <time>2021-10-23T09:08:01Z</time>
      </trkpt>
      <trkpt lat="43.22734" lon="5.61569">
        <ele>228.08984375</ele>
        <time>2021-10-23T09:08:02Z</time>
      </trkpt>
      <trkpt lat="43.22737" lon="5.61565">
        <ele>227.921875</ele>
        <time>2021-10-23T09:08:03Z</time>
      </trkpt>
      <trkpt lat="43.22741" lon="5.6156">
        <ele>227.84765625</ele>
        <time>2021-10-23T09:08:04Z</time>
      </trkpt>
      <trkpt lat="43.22744" lon="5.61555">
        <ele>227.796875</ele>
        <time>2021-10-23T09:08:05Z</time>
      </trkpt>
      <trkpt lat="43.22746" lon="5.61549">
        <ele>227.61328125</ele>
        <time>2021-10-23T09:08:06Z</time>
      </trkpt>
      <trkpt lat="43.22747" lon="5.61543">
        <ele>227.47265625</ele>
        <time>2021-10-23T09:08:07Z</time>
      </trkpt>
      <trkpt lat="43.22749" lon="5.61527">
        <ele>227.30078125</ele>
        <time>2021-10-23T09:08:09Z</time>
      </trkpt>
      <trkpt lat="43.2275" lon="5.61521">
        <ele>227.30078125</ele>
        <time>2021-10-23T09:08:10Z</time>
      </trkpt>
      <trkpt lat="43.22752" lon="5.61517">
        <ele>227.984375</ele>
        <time>2021-10-23T09:08:11Z</time>
      </trkpt>
      <trkpt lat="43.22753" lon="5.61512">
        <ele>228.9140625</ele>
        <time>2021-10-23T09:08:12Z</time>
      </trkpt>
      <trkpt lat="43.22754" lon="5.61507">
        <ele>229.328125</ele>
        <time>2021-10-23T09:08:13Z</time>
      </trkpt>
      <trkpt lat="43.22751" lon="5.61503">
        <ele>228.58203125</ele>
        <time>2021-10-23T09:08:14Z</time>
      </trkpt>
      <trkpt lat="43.22747" lon="5.61499">
        <ele>227.20703125</ele>
        <time>2021-10-23T09:08:15Z</time>
      </trkpt>
      <trkpt lat="43.22742" lon="5.61496">
        <ele>225.625</ele>
        <time>2021-10-23T09:08:16Z</time>
      </trkpt>
      <trkpt lat="43.22736" lon="5.61493">
        <ele>223.5703125</ele>
        <time>2021-10-23T09:08:17Z</time>
      </trkpt>
      <trkpt lat="43.2273" lon="5.61492">
        <ele>221.171875</ele>
        <time>2021-10-23T09:08:18Z</time>
      </trkpt>
      <trkpt lat="43.22724" lon="5.61491">
        <ele>220.51171875</ele>
        <time>2021-10-23T09:08:19Z</time>
      </trkpt>
      <trkpt lat="43.22718" lon="5.61489">
        <ele>221.4609375</ele>
        <time>2021-10-23T09:08:20Z</time>
      </trkpt>
      <trkpt lat="43.22705" lon="5.61486">
        <ele>223.14453125</ele>
        <time>2021-10-23T09:08:23Z</time>
      </trkpt>
      <trkpt lat="43.22701" lon="5.61487">
        <ele>223.69921875</ele>
        <time>2021-10-23T09:08:24Z</time>
      </trkpt>
      <trkpt lat="43.22696" lon="5.61488">
        <ele>223.8515625</ele>
        <time>2021-10-23T09:08:25Z</time>
      </trkpt>
      <trkpt lat="43.22691" lon="5.61488">
        <ele>223.79296875</ele>
        <time>2021-10-23T09:08:26Z</time>
      </trkpt>
      <trkpt lat="43.22687" lon="5.61487">
        <ele>223.70703125</ele>
        <time>2021-10-23T09:08:27Z</time>
      </trkpt>
      <trkpt lat="43.22679" lon="5.61488">
        <ele>223.671875</ele>
        <time>2021-10-23T09:08:29Z</time>
      </trkpt>
      <trkpt lat="43.22664" lon="5.61492">
        <ele>222.46875</ele>
        <time>2021-10-23T09:08:32Z</time>
      </trkpt>
      <trkpt lat="43.2265" lon="5.61499">
        <ele>220.27734375</ele>
        <time>2021-10-23T09:08:36Z</time>
      </trkpt>
      <trkpt lat="43.22645" lon="5.61502">
        <ele>219.5078125</ele>
        <time>2021-10-23T09:08:37Z</time>
      </trkpt>
      <trkpt lat="43.22641" lon="5.61506">
        <ele>218.76171875</ele>
        <time>2021-10-23T09:08:38Z</time>
      </trkpt>
      <trkpt lat="43.22636" lon="5.61511">
        <ele>217.8671875</ele>
        <time>2021-10-23T09:08:39Z</time>
      </trkpt>
      <trkpt lat="43.22631" lon="5.61517">
        <ele>216.7734375</ele>
        <time>2021-10-23T09:08:40Z</time>
      </trkpt>
      <trkpt lat="43.22623" lon="5.61529">
        <ele>215.03515625</ele>
        <time>2021-10-23T09:08:42Z</time>
      </trkpt>
      <trkpt lat="43.22621" lon="5.61536">
        <ele>214.51171875</ele>
        <time>2021-10-23T09:08:43Z</time>
      </trkpt>
      <trkpt lat="43.22616" lon="5.6155">
        <ele>212.77734375</ele>
        <time>2021-10-23T09:08:45Z</time>
      </trkpt>
      <trkpt lat="43.22612" lon="5.61554">
        <ele>210.4296875</ele>
        <time>2021-10-23T09:08:46Z</time>
      </trkpt>
      <trkpt lat="43.22607" lon="5.61559">
        <ele>207.390625</ele>
        <time>2021-10-23T09:08:47Z</time>
      </trkpt>
      <trkpt lat="43.22597" lon="5.61566">
        <ele>201.15234375</ele>
        <time>2021-10-23T09:08:49Z</time>
      </trkpt>
      <trkpt lat="43.22588" lon="5.61575">
        <ele>194.9453125</ele>
        <time>2021-10-23T09:08:51Z</time>
      </trkpt>
      <trkpt lat="43.22583" lon="5.6158">
        <ele>194.4453125</ele>
        <time>2021-10-23T09:08:52Z</time>
      </trkpt>
      <trkpt lat="43.22567" lon="5.61595">
        <ele>193.328125</ele>
        <time>2021-10-23T09:08:55Z</time>
      </trkpt>
      <trkpt lat="43.22549" lon="5.6161">
        <ele>193.04296875</ele>
        <time>2021-10-23T09:08:58Z</time>
      </trkpt>
      <trkpt lat="43.22544" lon="5.61616">
        <ele>192.90625</ele>
        <time>2021-10-23T09:08:59Z</time>
      </trkpt>
      <trkpt lat="43.2254" lon="5.61622">
        <ele>192.6640625</ele>
        <time>2021-10-23T09:09:00Z</time>
      </trkpt>
      <trkpt lat="43.22538" lon="5.6163">
        <ele>192.35546875</ele>
        <time>2021-10-23T09:09:01Z</time>
      </trkpt>
      <trkpt lat="43.22537" lon="5.61638">
        <ele>192.3515625</ele>
        <time>2021-10-23T09:09:02Z</time>
      </trkpt>
      <trkpt lat="43.22537" lon="5.61646">
        <ele>192.46875</ele>
        <time>2021-10-23T09:09:03Z</time>
      </trkpt>
      <trkpt lat="43.22538" lon="5.61655">
        <ele>192.6953125</ele>
        <time>2021-10-23T09:09:04Z</time>
      </trkpt>
      <trkpt lat="43.22539" lon="5.6166">
        <ele>193.05078125</ele>
        <time>2021-10-23T09:09:05Z</time>
      </trkpt>
      <trkpt lat="43.22541" lon="5.61674">
        <ele>194.91796875</ele>
        <time>2021-10-23T09:09:06Z</time>
      </trkpt>
      <trkpt lat="43.22542" lon="5.61704">
        <ele>199.50390625</ele>
        <time>2021-10-23T09:09:09Z</time>
      </trkpt>
      <trkpt lat="43.22541" lon="5.61712">
        <ele>200.265625</ele>
        <time>2021-10-23T09:09:10Z</time>
      </trkpt>
      <trkpt lat="43.22537" lon="5.61728">
        <ele>203.0390625</ele>
        <time>2021-10-23T09:09:12Z</time>
      </trkpt>
      <trkpt lat="43.22533" lon="5.61734">
        <ele>203.05859375</ele>
        <time>2021-10-23T09:09:13Z</time>
      </trkpt>
      <trkpt lat="43.22529" lon="5.61738">
        <ele>202.828125</ele>
        <time>2021-10-23T09:09:14Z</time>
      </trkpt>
      <trkpt lat="43.22524" lon="5.61742">
        <ele>202.3515625</ele>
        <time>2021-10-23T09:09:15Z</time>
      </trkpt>
      <trkpt lat="43.22518" lon="5.61745">
        <ele>201.5234375</ele>
        <time>2021-10-23T09:09:16Z</time>
      </trkpt>
      <trkpt lat="43.22512" lon="5.61745">
        <ele>199.9765625</ele>
        <time>2021-10-23T09:09:17Z</time>
      </trkpt>
      <trkpt lat="43.22507" lon="5.61743">
        <ele>197.40234375</ele>
        <time>2021-10-23T09:09:18Z</time>
      </trkpt>
      <trkpt lat="43.22503" lon="5.61738">
        <ele>194.92578125</ele>
        <time>2021-10-23T09:09:19Z</time>
      </trkpt>
      <trkpt lat="43.22499" lon="5.61733">
        <ele>193.12890625</ele>
        <time>2021-10-23T09:09:20Z</time>
      </trkpt>
      <trkpt lat="43.22495" lon="5.61729">
        <ele>191.55078125</ele>
        <time>2021-10-23T09:09:21Z</time>
      </trkpt>
      <trkpt lat="43.22489" lon="5.61727">
        <ele>190.29296875</ele>
        <time>2021-10-23T09:09:22Z</time>
      </trkpt>
      <trkpt lat="43.22484" lon="5.61725">
        <ele>189.13671875</ele>
        <time>2021-10-23T09:09:23Z</time>
      </trkpt>
      <trkpt lat="43.22478" lon="5.61722">
        <ele>187.6171875</ele>
        <time>2021-10-23T09:09:24Z</time>
      </trkpt>
      <trkpt lat="43.22472" lon="5.61718">
        <ele>186.63671875</ele>
        <time>2021-10-23T09:09:25Z</time>
      </trkpt>
      <trkpt lat="43.22456" lon="5.61709">
        <ele>186.01953125</ele>
        <time>2021-10-23T09:09:28Z</time>
      </trkpt>
      <trkpt lat="43.2245" lon="5.61708">
        <ele>186.36328125</ele>
        <time>2021-10-23T09:09:29Z</time>
      </trkpt>
      <trkpt lat="43.22444" lon="5.61709">
        <ele>186.1015625</ele>
        <time>2021-10-23T09:09:30Z</time>
      </trkpt>
      <trkpt lat="43.22437" lon="5.61711">
        <ele>185.74609375</ele>
        <time>2021-10-23T09:09:31Z</time>
      </trkpt>
      <trkpt lat="43.22432" lon="5.61714">
        <ele>185.40625</ele>
        <time>2021-10-23T09:09:32Z</time>
      </trkpt>
      <trkpt lat="43.22427" lon="5.61716">
        <ele>185.96875</ele>
        <time>2021-10-23T09:09:33Z</time>
      </trkpt>
      <trkpt lat="43.22422" lon="5.61719">
        <ele>186.50390625</ele>
        <time>2021-10-23T09:09:34Z</time>
      </trkpt>
      <trkpt lat="43.22418" lon="5.61722">
        <ele>186.984375</ele>
        <time>2021-10-23T09:09:35Z</time>
      </trkpt>
      <trkpt lat="43.22413" lon="5.61725">
        <ele>187.35546875</ele>
        <time>2021-10-23T09:09:36Z</time>
      </trkpt>
      <trkpt lat="43.22408" lon="5.61727">
        <ele>187.4296875</ele>
        <time>2021-10-23T09:09:37Z</time>
      </trkpt>
      <trkpt lat="43.22404" lon="5.61728">
        <ele>187.39453125</ele>
        <time>2021-10-23T09:09:38Z</time>
      </trkpt>
      <trkpt lat="43.22399" lon="5.61728">
        <ele>187.0625</ele>
        <time>2021-10-23T09:09:39Z</time>
      </trkpt>
      <trkpt lat="43.22395" lon="5.61726">
        <ele>186.28125</ele>
        <time>2021-10-23T09:09:40Z</time>
      </trkpt>
      <trkpt lat="43.22391" lon="5.61722">
        <ele>185.0078125</ele>
        <time>2021-10-23T09:09:41Z</time>
      </trkpt>
      <trkpt lat="43.22387" lon="5.61717">
        <ele>183.640625</ele>
        <time>2021-10-23T09:09:42Z</time>
      </trkpt>
      <trkpt lat="43.22383" lon="5.61713">
        <ele>182.34375</ele>
        <time>2021-10-23T09:09:43Z</time>
      </trkpt>
      <trkpt lat="43.22378" lon="5.61711">
        <ele>181.8515625</ele>
        <time>2021-10-23T09:09:44Z</time>
      </trkpt>
      <trkpt lat="43.22373" lon="5.6171">
        <ele>181.24609375</ele>
        <time>2021-10-23T09:09:45Z</time>
      </trkpt>
      <trkpt lat="43.22368" lon="5.6171">
        <ele>180.53515625</ele>
        <time>2021-10-23T09:09:46Z</time>
      </trkpt>
      <trkpt lat="43.22362" lon="5.61711">
        <ele>179.89453125</ele>
        <time>2021-10-23T09:09:47Z</time>
      </trkpt>
      <trkpt lat="43.22357" lon="5.61712">
        <ele>179.0859375</ele>
        <time>2021-10-23T09:09:48Z</time>
      </trkpt>
      <trkpt lat="43.22352" lon="5.61716">
        <ele>178.6328125</ele>
        <time>2021-10-23T09:09:49Z</time>
      </trkpt>
      <trkpt lat="43.22347" lon="5.61721">
        <ele>178.28125</ele>
        <time>2021-10-23T09:09:50Z</time>
      </trkpt>
      <trkpt lat="43.22341" lon="5.61725">
        <ele>177.76171875</ele>
        <time>2021-10-23T09:09:51Z</time>
      </trkpt>
      <trkpt lat="43.22338" lon="5.61728">
        <ele>177.5</ele>
        <time>2021-10-23T09:09:52Z</time>
      </trkpt>
      <trkpt lat="43.22336" lon="5.61733">
        <ele>177.58203125</ele>
        <time>2021-10-23T09:09:53Z</time>
      </trkpt>
      <trkpt lat="43.22335" lon="5.61737">
        <ele>177.66796875</ele>
        <time>2021-10-23T09:09:54Z</time>
      </trkpt>
      <trkpt lat="43.22332" lon="5.61749">
        <ele>177.92578125</ele>
        <time>2021-10-23T09:09:56Z</time>
      </trkpt>
      <trkpt lat="43.22332" lon="5.61755">
        <ele>178.19921875</ele>
        <time>2021-10-23T09:09:57Z</time>
      </trkpt>
      <trkpt lat="43.22333" lon="5.61762">
        <ele>178.6640625</ele>
        <time>2021-10-23T09:09:58Z</time>
      </trkpt>
      <trkpt lat="43.22335" lon="5.61769">
        <ele>179.39453125</ele>
        <time>2021-10-23T09:09:59Z</time>
      </trkpt>
      <trkpt lat="43.22337" lon="5.61777">
        <ele>180.17578125</ele>
        <time>2021-10-23T09:10:00Z</time>
      </trkpt>
      <trkpt lat="43.22337" lon="5.61784">
        <ele>180.76171875</ele>
        <time>2021-10-23T09:10:01Z</time>
      </trkpt>
      <trkpt lat="43.22337" lon="5.61789">
        <ele>180.98046875</ele>
        <time>2021-10-23T09:10:02Z</time>
      </trkpt>
      <trkpt lat="43.22336" lon="5.61793">
        <ele>180.95703125</ele>
        <time>2021-10-23T09:10:03Z</time>
      </trkpt>
      <trkpt lat="43.22335" lon="5.61802">
        <ele>181.1640625</ele>
        <time>2021-10-23T09:10:16Z</time>
      </trkpt>
      <trkpt lat="43.22334" lon="5.61805">
        <ele>181.14453125</ele>
        <time>2021-10-23T09:10:28Z</time>
      </trkpt>
      <trkpt lat="43.22333" lon="5.61807">
        <ele>181.09765625</ele>
        <time>2021-10-23T09:10:29Z</time>
      </trkpt>
      <trkpt lat="43.22333" lon="5.61809">
        <ele>181.0390625</ele>
        <time>2021-10-23T09:10:30Z</time>
      </trkpt>
      <trkpt lat="43.22322" lon="5.61826">
        <ele>177.953125</ele>
        <time>2021-10-23T09:10:40Z</time>
      </trkpt>
      <trkpt lat="43.22304" lon="5.61855">
        <ele>173.40234375</ele>
        <time>2021-10-23T09:10:50Z</time>
      </trkpt>
      <trkpt lat="43.22302" lon="5.61891">
        <ele>172.3671875</ele>
        <time>2021-10-23T09:11:00Z</time>
      </trkpt>
      <trkpt lat="43.22303" lon="5.61894">
        <ele>172.15625</ele>
        <time>2021-10-23T09:11:01Z</time>
      </trkpt>
      <trkpt lat="43.22305" lon="5.61898">
        <ele>171.90625</ele>
        <time>2021-10-23T09:11:02Z</time>
      </trkpt>
      <trkpt lat="43.22306" lon="5.61904">
        <ele>171.6328125</ele>
        <time>2021-10-23T09:11:03Z</time>
      </trkpt>
      <trkpt lat="43.22308" lon="5.61907">
        <ele>171.359375</ele>
        <time>2021-10-23T09:11:04Z</time>
      </trkpt>
      <trkpt lat="43.22309" lon="5.6191">
        <ele>170.91796875</ele>
        <time>2021-10-23T09:11:05Z</time>
      </trkpt>
      <trkpt lat="43.22311" lon="5.61913">
        <ele>170.390625</ele>
        <time>2021-10-23T09:11:06Z</time>
      </trkpt>
      <trkpt lat="43.22311" lon="5.61917">
        <ele>170.15625</ele>
        <time>2021-10-23T09:11:07Z</time>
      </trkpt>
      <trkpt lat="43.22312" lon="5.6192">
        <ele>169.90625</ele>
        <time>2021-10-23T09:11:08Z</time>
      </trkpt>
      <trkpt lat="43.22312" lon="5.61923">
        <ele>169.73046875</ele>
        <time>2021-10-23T09:11:09Z</time>
      </trkpt>
      <trkpt lat="43.22312" lon="5.61926">
        <ele>169.58984375</ele>
        <time>2021-10-23T09:11:10Z</time>
      </trkpt>
      <trkpt lat="43.22313" lon="5.61929">
        <ele>169.32421875</ele>
        <time>2021-10-23T09:11:11Z</time>
      </trkpt>
      <trkpt lat="43.22312" lon="5.61932">
        <ele>168.87890625</ele>
        <time>2021-10-23T09:11:12Z</time>
      </trkpt>
      <trkpt lat="43.2231" lon="5.61972">
        <ele>164.640625</ele>
        <time>2021-10-23T09:11:24Z</time>
      </trkpt>
      <trkpt lat="43.22304" lon="5.61994">
        <ele>164.26171875</ele>
        <time>2021-10-23T09:11:33Z</time>
      </trkpt>
      <trkpt lat="43.223" lon="5.62001">
        <ele>164.34375</ele>
        <time>2021-10-23T09:11:37Z</time>
      </trkpt>
      <trkpt lat="43.22286" lon="5.62015">
        <ele>165.90234375</ele>
        <time>2021-10-23T09:11:48Z</time>
      </trkpt>
      <trkpt lat="43.22284" lon="5.62016">
        <ele>166.11328125</ele>
        <time>2021-10-23T09:11:49Z</time>
      </trkpt>
      <trkpt lat="43.22282" lon="5.62018">
        <ele>166.45703125</ele>
        <time>2021-10-23T09:11:50Z</time>
      </trkpt>
      <trkpt lat="43.22272" lon="5.62025">
        <ele>169.7734375</ele>
        <time>2021-10-23T09:11:56Z</time>
      </trkpt>
      <trkpt lat="43.22271" lon="5.62024">
        <ele>170.5390625</ele>
        <time>2021-10-23T09:11:57Z</time>
      </trkpt>
      <trkpt lat="43.2227" lon="5.62023">
        <ele>171.03515625</ele>
        <time>2021-10-23T09:11:58Z</time>
      </trkpt>
      <trkpt lat="43.2227" lon="5.62023">
        <ele>171.2109375</ele>
        <time>2021-10-23T09:11:59Z</time>
      </trkpt>
      <trkpt lat="43.2227" lon="5.62022">
        <ele>171.16015625</ele>
        <time>2021-10-23T09:12:00Z</time>
      </trkpt>
      <trkpt lat="43.2227" lon="5.6202">
        <ele>171.2421875</ele>
        <time>2021-10-23T09:12:02Z</time>
      </trkpt>
      <trkpt lat="43.2227" lon="5.62019">
        <ele>171.51171875</ele>
        <time>2021-10-23T09:12:03Z</time>
      </trkpt>
      <trkpt lat="43.2227" lon="5.62017">
        <ele>171.72265625</ele>
        <time>2021-10-23T09:12:04Z</time>
      </trkpt>
      <trkpt lat="43.2227" lon="5.62015">
        <ele>171.91796875</ele>
        <time>2021-10-23T09:12:05Z</time>
      </trkpt>
      <trkpt lat="43.2227" lon="5.62012">
        <ele>172.2578125</ele>
        <time>2021-10-23T09:12:06Z</time>
      </trkpt>
      <trkpt lat="43.2227" lon="5.62008">
        <ele>172.7890625</ele>
        <time>2021-10-23T09:12:08Z</time>
      </trkpt>
      <trkpt lat="43.2227" lon="5.61998">
        <ele>173.80859375</ele>
        <time>2021-10-23T09:12:13Z</time>
      </trkpt>
      <trkpt lat="43.2227" lon="5.61996">
        <ele>173.9609375</ele>
        <time>2021-10-23T09:12:14Z</time>
      </trkpt>
      <trkpt lat="43.22271" lon="5.6199">
        <ele>174.49609375</ele>
        <time>2021-10-23T09:12:17Z</time>
      </trkpt>
      <trkpt lat="43.2227" lon="5.61987">
        <ele>174.8125</ele>
        <time>2021-10-23T09:12:18Z</time>
      </trkpt>
      <trkpt lat="43.2227" lon="5.61985">
        <ele>175.29296875</ele>
        <time>2021-10-23T09:12:19Z</time>
      </trkpt>
      <trkpt lat="43.22265" lon="5.61946">
        <ele>179.3828125</ele>
        <time>2021-10-23T09:12:34Z</time>
      </trkpt>
      <trkpt lat="43.22257" lon="5.61908">
        <ele>181.68359375</ele>
        <time>2021-10-23T09:12:48Z</time>
      </trkpt>
      <trkpt lat="43.22255" lon="5.61907">
        <ele>182.140625</ele>
        <time>2021-10-23T09:12:49Z</time>
      </trkpt>
      <trkpt lat="43.22253" lon="5.61906">
        <ele>182.73046875</ele>
        <time>2021-10-23T09:12:50Z</time>
      </trkpt>
      <trkpt lat="43.22251" lon="5.61907">
        <ele>183.296875</ele>
        <time>2021-10-23T09:12:51Z</time>
      </trkpt>
      <trkpt lat="43.2225" lon="5.61909">
        <ele>183.72265625</ele>
        <time>2021-10-23T09:12:52Z</time>
      </trkpt>
      <trkpt lat="43.22249" lon="5.6191">
        <ele>183.99609375</ele>
        <time>2021-10-23T09:12:53Z</time>
      </trkpt>
      <trkpt lat="43.22248" lon="5.61913">
        <ele>184.16015625</ele>
        <time>2021-10-23T09:12:54Z</time>
      </trkpt>
      <trkpt lat="43.22248" lon="5.61915">
        <ele>184.45703125</ele>
        <time>2021-10-23T09:12:55Z</time>
      </trkpt>
      <trkpt lat="43.22247" lon="5.61917">
        <ele>184.73828125</ele>
        <time>2021-10-23T09:12:56Z</time>
      </trkpt>
      <trkpt lat="43.22246" lon="5.6192">
        <ele>185.015625</ele>
        <time>2021-10-23T09:12:57Z</time>
      </trkpt>
      <trkpt lat="43.22234" lon="5.61945">
        <ele>188.08203125</ele>
        <time>2021-10-23T09:13:09Z</time>
      </trkpt>
      <trkpt lat="43.22232" lon="5.61945">
        <ele>188.55078125</ele>
        <time>2021-10-23T09:13:10Z</time>
      </trkpt>
      <trkpt lat="43.2223" lon="5.61946">
        <ele>189.0390625</ele>
        <time>2021-10-23T09:13:11Z</time>
      </trkpt>
      <trkpt lat="43.22228" lon="5.61947">
        <ele>189.4296875</ele>
        <time>2021-10-23T09:13:12Z</time>
      </trkpt>
      <trkpt lat="43.22227" lon="5.61948">
        <ele>189.5859375</ele>
        <time>2021-10-23T09:13:13Z</time>
      </trkpt>
      <trkpt lat="43.22227" lon="5.61951">
        <ele>189.47265625</ele>
        <time>2021-10-23T09:13:14Z</time>
      </trkpt>
      <trkpt lat="43.22229" lon="5.61952">
        <ele>189.19140625</ele>
        <time>2021-10-23T09:13:15Z</time>
      </trkpt>
      <trkpt lat="43.2223" lon="5.6195">
        <ele>189.02734375</ele>
        <time>2021-10-23T09:13:16Z</time>
      </trkpt>
      <trkpt lat="43.22229" lon="5.61947">
        <ele>189.16015625</ele>
        <time>2021-10-23T09:13:17Z</time>
      </trkpt>
      <trkpt lat="43.22229" lon="5.61944">
        <ele>189.43359375</ele>
        <time>2021-10-23T09:13:18Z</time>
      </trkpt>
      <trkpt lat="43.22228" lon="5.6194">
        <ele>189.75</ele>
        <time>2021-10-23T09:13:19Z</time>
      </trkpt>
      <trkpt lat="43.22226" lon="5.61927">
        <ele>190.13671875</ele>
        <time>2021-10-23T09:13:30Z</time>
      </trkpt>
      <trkpt lat="43.22227" lon="5.61926">
        <ele>190.11328125</ele>
        <time>2021-10-23T09:14:00Z</time>
      </trkpt>
      <trkpt lat="43.22227" lon="5.61926">
        <ele>190.015625</ele>
        <time>2021-10-23T09:14:32Z</time>
      </trkpt>
      <trkpt lat="43.22227" lon="5.61917">
        <ele>190.13671875</ele>
        <time>2021-10-23T09:14:54Z</time>
      </trkpt>
      <trkpt lat="43.22227" lon="5.61878">
        <ele>190.078125</ele>
        <time>2021-10-23T09:15:07Z</time>
      </trkpt>
      <trkpt lat="43.22231" lon="5.61837">
        <ele>190.30078125</ele>
        <time>2021-10-23T09:15:21Z</time>
      </trkpt>
      <trkpt lat="43.22235" lon="5.61803">
        <ele>192.58203125</ele>
        <time>2021-10-23T09:15:33Z</time>
      </trkpt>
      <trkpt lat="43.22244" lon="5.61758">
        <ele>194.40234375</ele>
        <time>2021-10-23T09:15:49Z</time>
      </trkpt>
      <trkpt lat="43.2225" lon="5.6172">
        <ele>196.7109375</ele>
        <time>2021-10-23T09:16:02Z</time>
      </trkpt>
      <trkpt lat="43.22247" lon="5.6167">
        <ele>204.28515625</ele>
        <time>2021-10-23T09:16:17Z</time>
      </trkpt>
      <trkpt lat="43.22248" lon="5.61631">
        <ele>211.2734375</ele>
        <time>2021-10-23T09:16:29Z</time>
      </trkpt>
      <trkpt lat="43.22248" lon="5.61613">
        <ele>214.68359375</ele>
        <time>2021-10-23T09:16:35Z</time>
      </trkpt>
      <trkpt lat="43.2225" lon="5.6158">
        <ele>219.71875</ele>
        <time>2021-10-23T09:16:47Z</time>
      </trkpt>
      <trkpt lat="43.22252" lon="5.61578">
        <ele>220.1171875</ele>
        <time>2021-10-23T09:16:48Z</time>
      </trkpt>
      <trkpt lat="43.22253" lon="5.61576">
        <ele>220.54296875</ele>
        <time>2021-10-23T09:16:49Z</time>
      </trkpt>
      <trkpt lat="43.22276" lon="5.61566">
        <ele>221.12109375</ele>
        <time>2021-10-23T09:17:02Z</time>
      </trkpt>
      <trkpt lat="43.22305" lon="5.61556">
        <ele>223.61328125</ele>
        <time>2021-10-23T09:17:17Z</time>
      </trkpt>
      <trkpt lat="43.22332" lon="5.61541">
        <ele>228.74609375</ele>
        <time>2021-10-23T09:17:31Z</time>
      </trkpt>
      <trkpt lat="43.22353" lon="5.61512">
        <ele>236.34375</ele>
        <time>2021-10-23T09:17:46Z</time>
      </trkpt>
      <trkpt lat="43.22372" lon="5.61482">
        <ele>243.61328125</ele>
        <time>2021-10-23T09:18:01Z</time>
      </trkpt>
      <trkpt lat="43.22384" lon="5.61445">
        <ele>250.52734375</ele>
        <time>2021-10-23T09:18:15Z</time>
      </trkpt>
      <trkpt lat="43.22389" lon="5.61414">
        <ele>254.48046875</ele>
        <time>2021-10-23T09:18:26Z</time>
      </trkpt>
      <trkpt lat="43.2239" lon="5.61372">
        <ele>258.0859375</ele>
        <time>2021-10-23T09:18:41Z</time>
      </trkpt>
      <trkpt lat="43.22389" lon="5.61366">
        <ele>258.51171875</ele>
        <time>2021-10-23T09:18:43Z</time>
      </trkpt>
      <trkpt lat="43.22387" lon="5.61359">
        <ele>258.3046875</ele>
        <time>2021-10-23T09:18:55Z</time>
      </trkpt>
      <trkpt lat="43.22386" lon="5.6136">
        <ele>257.8515625</ele>
        <time>2021-10-23T09:19:11Z</time>
      </trkpt>
      <trkpt lat="43.22387" lon="5.61358">
        <ele>258.5078125</ele>
        <time>2021-10-23T09:19:50Z</time>
      </trkpt>
      <trkpt lat="43.22386" lon="5.61358">
        <ele>258.27734375</ele>
        <time>2021-10-23T09:20:11Z</time>
      </trkpt>
      <trkpt lat="43.22386" lon="5.61356">
        <ele>258.43359375</ele>
        <time>2021-10-23T09:20:24Z</time>
      </trkpt>
      <trkpt lat="43.22387" lon="5.61353">
        <ele>258.93359375</ele>
        <time>2021-10-23T09:20:25Z</time>
      </trkpt>
      <trkpt lat="43.22387" lon="5.6135">
        <ele>259.40625</ele>
        <time>2021-10-23T09:20:26Z</time>
      </trkpt>
      <trkpt lat="43.22387" lon="5.61347">
        <ele>259.671875</ele>
        <time>2021-10-23T09:20:27Z</time>
      </trkpt>
      <trkpt lat="43.22386" lon="5.61344">
        <ele>259.7890625</ele>
        <time>2021-10-23T09:20:28Z</time>
      </trkpt>
      <trkpt lat="43.22385" lon="5.61341">
        <ele>259.89453125</ele>
        <time>2021-10-23T09:20:29Z</time>
      </trkpt>
      <trkpt lat="43.22373" lon="5.61307">
        <ele>260.43359375</ele>
        <time>2021-10-23T09:20:41Z</time>
      </trkpt>
      <trkpt lat="43.22346" lon="5.61285">
        <ele>257.96484375</ele>
        <time>2021-10-23T09:20:55Z</time>
      </trkpt>
      <trkpt lat="43.22316" lon="5.61278">
        <ele>255.7265625</ele>
        <time>2021-10-23T09:21:09Z</time>
      </trkpt>
      <trkpt lat="43.22287" lon="5.61265">
        <ele>255.734375</ele>
        <time>2021-10-23T09:21:23Z</time>
      </trkpt>
      <trkpt lat="43.22277" lon="5.61245">
        <ele>260.25390625</ele>
        <time>2021-10-23T09:21:33Z</time>
      </trkpt>
      <trkpt lat="43.22278" lon="5.61242">
        <ele>261</ele>
        <time>2021-10-23T09:21:34Z</time>
      </trkpt>
      <trkpt lat="43.2228" lon="5.61241">
        <ele>261.5</ele>
        <time>2021-10-23T09:21:35Z</time>
      </trkpt>
      <trkpt lat="43.22281" lon="5.6124">
        <ele>261.7109375</ele>
        <time>2021-10-23T09:21:36Z</time>
      </trkpt>
      <trkpt lat="43.22283" lon="5.6124">
        <ele>261.9609375</ele>
        <time>2021-10-23T09:21:37Z</time>
      </trkpt>
      <trkpt lat="43.22285" lon="5.6124">
        <ele>262.19140625</ele>
        <time>2021-10-23T09:21:38Z</time>
      </trkpt>
      <trkpt lat="43.22307" lon="5.61245">
        <ele>264.40234375</ele>
        <time>2021-10-23T09:21:51Z</time>
      </trkpt>
      <trkpt lat="43.22332" lon="5.61244">
        <ele>267.58984375</ele>
        <time>2021-10-23T09:22:05Z</time>
      </trkpt>
      <trkpt lat="43.2236" lon="5.61237">
        <ele>273.69140625</ele>
        <time>2021-10-23T09:22:17Z</time>
      </trkpt>
      <trkpt lat="43.22379" lon="5.61234">
        <ele>277.98046875</ele>
        <time>2021-10-23T09:22:27Z</time>
      </trkpt>
      <trkpt lat="43.22386" lon="5.61235">
        <ele>279.50390625</ele>
        <time>2021-10-23T09:22:32Z</time>
      </trkpt>
      <trkpt lat="43.22387" lon="5.61236">
        <ele>279.765625</ele>
        <time>2021-10-23T09:22:33Z</time>
      </trkpt>
      <trkpt lat="43.22388" lon="5.61237">
        <ele>280.00390625</ele>
        <time>2021-10-23T09:22:34Z</time>
      </trkpt>
      <trkpt lat="43.224" lon="5.61243">
        <ele>281.91796875</ele>
        <time>2021-10-23T09:22:43Z</time>
      </trkpt>
      <trkpt lat="43.22401" lon="5.61244">
        <ele>282.06640625</ele>
        <time>2021-10-23T09:22:44Z</time>
      </trkpt>
      <trkpt lat="43.22403" lon="5.61244">
        <ele>282.2265625</ele>
        <time>2021-10-23T09:22:45Z</time>
      </trkpt>
      <trkpt lat="43.22404" lon="5.61245">
        <ele>282.36328125</ele>
        <time>2021-10-23T09:22:46Z</time>
      </trkpt>
      <trkpt lat="43.22406" lon="5.61246">
        <ele>282.52734375</ele>
        <time>2021-10-23T09:22:47Z</time>
      </trkpt>
      <trkpt lat="43.2242" lon="5.61256">
        <ele>283.921875</ele>
        <time>2021-10-23T09:22:58Z</time>
      </trkpt>
      <trkpt lat="43.22438" lon="5.61271">
        <ele>285.11328125</ele>
        <time>2021-10-23T09:23:11Z</time>
      </trkpt>
      <trkpt lat="43.22454" lon="5.61286">
        <ele>285.81640625</ele>
        <time>2021-10-23T09:23:23Z</time>
      </trkpt>
      <trkpt lat="43.22456" lon="5.61288">
        <ele>285.671875</ele>
        <time>2021-10-23T09:23:40Z</time>
      </trkpt>
      <trkpt lat="43.22456" lon="5.61288">
        <ele>285.65234375</ele>
        <time>2021-10-23T09:24:12Z</time>
      </trkpt>
      <trkpt lat="43.22455" lon="5.61289">
        <ele>285.5390625</ele>
        <time>2021-10-23T09:24:38Z</time>
      </trkpt>
      <trkpt lat="43.22462" lon="5.61294">
        <ele>285.2890625</ele>
        <time>2021-10-23T09:25:08Z</time>
      </trkpt>
      <trkpt lat="43.22505" lon="5.61324">
        <ele>284</ele>
        <time>2021-10-23T09:25:21Z</time>
      </trkpt>
      <trkpt lat="43.22527" lon="5.61339">
        <ele>279.6953125</ele>
        <time>2021-10-23T09:25:25Z</time>
      </trkpt>
      <trkpt lat="43.22534" lon="5.61342">
        <ele>278.8671875</ele>
        <time>2021-10-23T09:25:26Z</time>
      </trkpt>
      <trkpt lat="43.2254" lon="5.61344">
        <ele>277.90234375</ele>
        <time>2021-10-23T09:25:27Z</time>
      </trkpt>
      <trkpt lat="43.22567" lon="5.61349">
        <ele>274.19140625</ele>
        <time>2021-10-23T09:25:31Z</time>
      </trkpt>
      <trkpt lat="43.22574" lon="5.61349">
        <ele>273.7109375</ele>
        <time>2021-10-23T09:25:32Z</time>
      </trkpt>
      <trkpt lat="43.2258" lon="5.61348">
        <ele>273.4140625</ele>
        <time>2021-10-23T09:25:33Z</time>
      </trkpt>
      <trkpt lat="43.22586" lon="5.61346">
        <ele>273.2421875</ele>
        <time>2021-10-23T09:25:34Z</time>
      </trkpt>
      <trkpt lat="43.22592" lon="5.61344">
        <ele>273.36328125</ele>
        <time>2021-10-23T09:25:35Z</time>
      </trkpt>
      <trkpt lat="43.22602" lon="5.61338">
        <ele>274.32421875</ele>
        <time>2021-10-23T09:25:37Z</time>
      </trkpt>
      <trkpt lat="43.22629" lon="5.6132">
        <ele>279.28125</ele>
        <time>2021-10-23T09:25:43Z</time>
      </trkpt>
      <trkpt lat="43.22633" lon="5.61317">
        <ele>279.95703125</ele>
        <time>2021-10-23T09:25:44Z</time>
      </trkpt>
      <trkpt lat="43.22652" lon="5.61299">
        <ele>284.55078125</ele>
        <time>2021-10-23T09:25:52Z</time>
      </trkpt>
      <trkpt lat="43.22663" lon="5.61285">
        <ele>287.26171875</ele>
        <time>2021-10-23T09:25:58Z</time>
      </trkpt>
      <trkpt lat="43.22685" lon="5.61263">
        <ele>291.22265625</ele>
        <time>2021-10-23T09:26:08Z</time>
      </trkpt>
      <trkpt lat="43.22712" lon="5.61256">
        <ele>292.265625</ele>
        <time>2021-10-23T09:26:18Z</time>
      </trkpt>
      <trkpt lat="43.22715" lon="5.61256">
        <ele>292.30078125</ele>
        <time>2021-10-23T09:26:19Z</time>
      </trkpt>
      <trkpt lat="43.22752" lon="5.61275">
        <ele>293.28515625</ele>
        <time>2021-10-23T09:26:33Z</time>
      </trkpt>
      <trkpt lat="43.22785" lon="5.61307">
        <ele>293.18359375</ele>
        <time>2021-10-23T09:26:46Z</time>
      </trkpt>
      <trkpt lat="43.22828" lon="5.61345">
        <ele>292.76171875</ele>
        <time>2021-10-23T09:27:01Z</time>
      </trkpt>
      <trkpt lat="43.22869" lon="5.61398">
        <ele>299.546875</ele>
        <time>2021-10-23T09:27:17Z</time>
      </trkpt>
      <trkpt lat="43.22889" lon="5.61415">
        <ele>301.15234375</ele>
        <time>2021-10-23T09:27:26Z</time>
      </trkpt>
      <trkpt lat="43.22914" lon="5.61425">
        <ele>303.48828125</ele>
        <time>2021-10-23T09:27:37Z</time>
      </trkpt>
      <trkpt lat="43.22956" lon="5.61421">
        <ele>309.9296875</ele>
        <time>2021-10-23T09:27:52Z</time>
      </trkpt>
      <trkpt lat="43.22996" lon="5.61433">
        <ele>317.9765625</ele>
        <time>2021-10-23T09:28:07Z</time>
      </trkpt>
      <trkpt lat="43.23015" lon="5.61476">
        <ele>315.54296875</ele>
        <time>2021-10-23T09:28:20Z</time>
      </trkpt>
      <trkpt lat="43.23043" lon="5.61516">
        <ele>304.13671875</ele>
        <time>2021-10-23T09:28:35Z</time>
      </trkpt>
      <trkpt lat="43.23069" lon="5.61495">
        <ele>306.87890625</ele>
        <time>2021-10-23T09:28:45Z</time>
      </trkpt>
      <trkpt lat="43.23121" lon="5.61471">
        <ele>309.89453125</ele>
        <time>2021-10-23T09:28:59Z</time>
      </trkpt>
      <trkpt lat="43.23181" lon="5.61452">
        <ele>309.00390625</ele>
        <time>2021-10-23T09:29:15Z</time>
      </trkpt>
      <trkpt lat="43.23231" lon="5.61418">
        <ele>316.75390625</ele>
        <time>2021-10-23T09:29:29Z</time>
      </trkpt>
      <trkpt lat="43.23293" lon="5.61398">
        <ele>326.56640625</ele>
        <time>2021-10-23T09:29:45Z</time>
      </trkpt>
      <trkpt lat="43.23337" lon="5.61393">
        <ele>335.1953125</ele>
        <time>2021-10-23T09:29:57Z</time>
      </trkpt>
      <trkpt lat="43.23367" lon="5.61413">
        <ele>331.01953125</ele>
        <time>2021-10-23T09:30:08Z</time>
      </trkpt>
      <trkpt lat="43.23401" lon="5.61419">
        <ele>331.4140625</ele>
        <time>2021-10-23T09:30:22Z</time>
      </trkpt>
      <trkpt lat="43.23434" lon="5.61416">
        <ele>334.06640625</ele>
        <time>2021-10-23T09:30:36Z</time>
      </trkpt>
      <trkpt lat="43.23475" lon="5.61415">
        <ele>335.23046875</ele>
        <time>2021-10-23T09:30:51Z</time>
      </trkpt>
      <trkpt lat="43.23522" lon="5.61407">
        <ele>342.34765625</ele>
        <time>2021-10-23T09:31:07Z</time>
      </trkpt>
      <trkpt lat="43.23561" lon="5.61408">
        <ele>342.09375</ele>
        <time>2021-10-23T09:31:19Z</time>
      </trkpt>
      <trkpt lat="43.23596" lon="5.61401">
        <ele>342.09375</ele>
        <time>2021-10-23T09:31:32Z</time>
      </trkpt>
      <trkpt lat="43.23626" lon="5.61378">
        <ele>344.734375</ele>
        <time>2021-10-23T09:31:46Z</time>
      </trkpt>
      <trkpt lat="43.23645" lon="5.61358">
        <ele>347.23046875</ele>
        <time>2021-10-23T09:31:57Z</time>
      </trkpt>
      <trkpt lat="43.23662" lon="5.6133">
        <ele>349.421875</ele>
        <time>2021-10-23T09:32:09Z</time>
      </trkpt>
      <trkpt lat="43.23677" lon="5.61297">
        <ele>352.55078125</ele>
        <time>2021-10-23T09:32:21Z</time>
      </trkpt>
      <trkpt lat="43.23686" lon="5.6127">
        <ele>355.765625</ele>
        <time>2021-10-23T09:32:30Z</time>
      </trkpt>
      <trkpt lat="43.23693" lon="5.61212">
        <ele>361.53125</ele>
        <time>2021-10-23T09:32:47Z</time>
      </trkpt>
      <trkpt lat="43.23698" lon="5.61174">
        <ele>364.2734375</ele>
        <time>2021-10-23T09:32:57Z</time>
      </trkpt>
      <trkpt lat="43.23715" lon="5.61125">
        <ele>369.609375</ele>
        <time>2021-10-23T09:33:11Z</time>
      </trkpt>
      <trkpt lat="43.2373" lon="5.61095">
        <ele>373.375</ele>
        <time>2021-10-23T09:33:21Z</time>
      </trkpt>
      <trkpt lat="43.23756" lon="5.61064">
        <ele>378.703125</ele>
        <time>2021-10-23T09:33:37Z</time>
      </trkpt>
      <trkpt lat="43.23757" lon="5.61064">
        <ele>378.59765625</ele>
        <time>2021-10-23T09:33:49Z</time>
      </trkpt>
      <trkpt lat="43.23757" lon="5.61063">
        <ele>378.78125</ele>
        <time>2021-10-23T09:34:18Z</time>
      </trkpt>
      <trkpt lat="43.23756" lon="5.61063">
        <ele>378.7890625</ele>
        <time>2021-10-23T09:34:40Z</time>
      </trkpt>
      <trkpt lat="43.23756" lon="5.61066">
        <ele>378.3125</ele>
        <time>2021-10-23T09:35:05Z</time>
      </trkpt>
      <trkpt lat="43.23758" lon="5.61066">
        <ele>378.453125</ele>
        <time>2021-10-23T09:35:42Z</time>
      </trkpt>
      <trkpt lat="43.23758" lon="5.61065">
        <ele>378.61328125</ele>
        <time>2021-10-23T09:36:11Z</time>
      </trkpt>
      <trkpt lat="43.23758" lon="5.61067">
        <ele>378.28515625</ele>
        <time>2021-10-23T09:36:52Z</time>
      </trkpt>
      <trkpt lat="43.23758" lon="5.61066">
        <ele>378.39453125</ele>
        <time>2021-10-23T09:37:31Z</time>
      </trkpt>
      <trkpt lat="43.23759" lon="5.61065">
        <ele>378.640625</ele>
        <time>2021-10-23T09:38:08Z</time>
      </trkpt>
      <trkpt lat="43.2376" lon="5.61066">
        <ele>378.5234375</ele>
        <time>2021-10-23T09:38:15Z</time>
      </trkpt>
      <trkpt lat="43.23762" lon="5.61068">
        <ele>378.27734375</ele>
        <time>2021-10-23T09:38:16Z</time>
      </trkpt>
      <trkpt lat="43.23764" lon="5.6107">
        <ele>378.06640625</ele>
        <time>2021-10-23T09:38:17Z</time>
      </trkpt>
      <trkpt lat="43.23767" lon="5.61072">
        <ele>377.9453125</ele>
        <time>2021-10-23T09:38:18Z</time>
      </trkpt>
      <trkpt lat="43.23771" lon="5.61073">
        <ele>377.84765625</ele>
        <time>2021-10-23T09:38:19Z</time>
      </trkpt>
      <trkpt lat="43.23776" lon="5.61075">
        <ele>377.71875</ele>
        <time>2021-10-23T09:38:20Z</time>
      </trkpt>
      <trkpt lat="43.2381" lon="5.61093">
        <ele>377.41015625</ele>
        <time>2021-10-23T09:38:26Z</time>
      </trkpt>
      <trkpt lat="43.23816" lon="5.61097">
        <ele>377.515625</ele>
        <time>2021-10-23T09:38:27Z</time>
      </trkpt>
      <trkpt lat="43.2386" lon="5.61122">
        <ele>382.6953125</ele>
        <time>2021-10-23T09:38:34Z</time>
      </trkpt>
      <trkpt lat="43.23865" lon="5.61125">
        <ele>383.6953125</ele>
        <time>2021-10-23T09:38:35Z</time>
      </trkpt>
      <trkpt lat="43.23869" lon="5.61127">
        <ele>384.32421875</ele>
        <time>2021-10-23T09:38:36Z</time>
      </trkpt>
      <trkpt lat="43.2387" lon="5.61129">
        <ele>384.609375</ele>
        <time>2021-10-23T09:38:37Z</time>
      </trkpt>
      <trkpt lat="43.23869" lon="5.6113">
        <ele>384.55078125</ele>
        <time>2021-10-23T09:38:38Z</time>
      </trkpt>
      <trkpt lat="43.23868" lon="5.61131">
        <ele>384.34765625</ele>
        <time>2021-10-23T09:38:39Z</time>
      </trkpt>
      <trkpt lat="43.23866" lon="5.61131">
        <ele>384.17578125</ele>
        <time>2021-10-23T09:38:40Z</time>
      </trkpt>
      <trkpt lat="43.23864" lon="5.61132">
        <ele>384</ele>
        <time>2021-10-23T09:38:41Z</time>
      </trkpt>
      <trkpt lat="43.23862" lon="5.61134">
        <ele>383.90625</ele>
        <time>2021-10-23T09:38:42Z</time>
      </trkpt>
      <trkpt lat="43.2386" lon="5.61135">
        <ele>383.78515625</ele>
        <time>2021-10-23T09:38:43Z</time>
      </trkpt>
      <trkpt lat="43.23858" lon="5.61135">
        <ele>383.53125</ele>
        <time>2021-10-23T09:38:44Z</time>
      </trkpt>
      <trkpt lat="43.23854" lon="5.61136">
        <ele>382.8359375</ele>
        <time>2021-10-23T09:38:50Z</time>
      </trkpt>
      <trkpt lat="43.23851" lon="5.61137">
        <ele>382.48046875</ele>
        <time>2021-10-23T09:38:51Z</time>
      </trkpt>
      <trkpt lat="43.23848" lon="5.61137">
        <ele>381.93359375</ele>
        <time>2021-10-23T09:38:52Z</time>
      </trkpt>
      <trkpt lat="43.23826" lon="5.61141">
        <ele>378.09765625</ele>
        <time>2021-10-23T09:38:57Z</time>
      </trkpt>
      <trkpt lat="43.23821" lon="5.61143">
        <ele>377.28515625</ele>
        <time>2021-10-23T09:38:58Z</time>
      </trkpt>
      <trkpt lat="43.23817" lon="5.61145">
        <ele>376.5390625</ele>
        <time>2021-10-23T09:38:59Z</time>
      </trkpt>
      <trkpt lat="43.23813" lon="5.61146">
        <ele>375.68359375</ele>
        <time>2021-10-23T09:39:00Z</time>
      </trkpt>
      <trkpt lat="43.23808" lon="5.61147">
        <ele>374.875</ele>
        <time>2021-10-23T09:39:01Z</time>
      </trkpt>
      <trkpt lat="43.23803" lon="5.61149">
        <ele>374.1171875</ele>
        <time>2021-10-23T09:39:02Z</time>
      </trkpt>
      <trkpt lat="43.23797" lon="5.61152">
        <ele>373.35546875</ele>
        <time>2021-10-23T09:39:03Z</time>
      </trkpt>
      <trkpt lat="43.23792" lon="5.61155">
        <ele>372.5546875</ele>
        <time>2021-10-23T09:39:04Z</time>
      </trkpt>
      <trkpt lat="43.23786" lon="5.61157">
        <ele>371.671875</ele>
        <time>2021-10-23T09:39:05Z</time>
      </trkpt>
      <trkpt lat="43.23781" lon="5.61161">
        <ele>370.93359375</ele>
        <time>2021-10-23T09:39:06Z</time>
      </trkpt>
      <trkpt lat="43.23776" lon="5.61164">
        <ele>370.21875</ele>
        <time>2021-10-23T09:39:07Z</time>
      </trkpt>
      <trkpt lat="43.23757" lon="5.61178">
        <ele>366.0625</ele>
        <time>2021-10-23T09:39:11Z</time>
      </trkpt>
      <trkpt lat="43.23747" lon="5.61189">
        <ele>363.0546875</ele>
        <time>2021-10-23T09:39:13Z</time>
      </trkpt>
      <trkpt lat="43.23739" lon="5.612">
        <ele>360.44140625</ele>
        <time>2021-10-23T09:39:15Z</time>
      </trkpt>
      <trkpt lat="43.23736" lon="5.61206">
        <ele>359.33984375</ele>
        <time>2021-10-23T09:39:16Z</time>
      </trkpt>
      <trkpt lat="43.23734" lon="5.61212">
        <ele>358.53515625</ele>
        <time>2021-10-23T09:39:17Z</time>
      </trkpt>
      <trkpt lat="43.23733" lon="5.61218">
        <ele>357.88671875</ele>
        <time>2021-10-23T09:39:18Z</time>
      </trkpt>
      <trkpt lat="43.23732" lon="5.61225">
        <ele>357.41015625</ele>
        <time>2021-10-23T09:39:19Z</time>
      </trkpt>
      <trkpt lat="43.23732" lon="5.61233">
        <ele>357.01171875</ele>
        <time>2021-10-23T09:39:20Z</time>
      </trkpt>
      <trkpt lat="43.23732" lon="5.6124">
        <ele>356.71875</ele>
        <time>2021-10-23T09:39:21Z</time>
      </trkpt>
      <trkpt lat="43.23732" lon="5.61248">
        <ele>356.3125</ele>
        <time>2021-10-23T09:39:22Z</time>
      </trkpt>
      <trkpt lat="43.23732" lon="5.61256">
        <ele>355.79296875</ele>
        <time>2021-10-23T09:39:23Z</time>
      </trkpt>
      <trkpt lat="43.23731" lon="5.61264">
        <ele>355.04296875</ele>
        <time>2021-10-23T09:39:24Z</time>
      </trkpt>
      <trkpt lat="43.23727" lon="5.61292">
        <ele>352.4140625</ele>
        <time>2021-10-23T09:39:28Z</time>
      </trkpt>
      <trkpt lat="43.23726" lon="5.61318">
        <ele>351.171875</ele>
        <time>2021-10-23T09:39:31Z</time>
      </trkpt>
      <trkpt lat="43.23726" lon="5.61326">
        <ele>350.8515625</ele>
        <time>2021-10-23T09:39:32Z</time>
      </trkpt>
      <trkpt lat="43.23724" lon="5.61332">
        <ele>350.3984375</ele>
        <time>2021-10-23T09:39:33Z</time>
      </trkpt>
      <trkpt lat="43.23722" lon="5.61338">
        <ele>349.89453125</ele>
        <time>2021-10-23T09:39:34Z</time>
      </trkpt>
      <trkpt lat="43.23722" lon="5.61344">
        <ele>349.50390625</ele>
        <time>2021-10-23T09:39:35Z</time>
      </trkpt>
      <trkpt lat="43.23721" lon="5.61349">
        <ele>349.0625</ele>
        <time>2021-10-23T09:39:36Z</time>
      </trkpt>
      <trkpt lat="43.23719" lon="5.61355">
        <ele>348.53125</ele>
        <time>2021-10-23T09:39:37Z</time>
      </trkpt>
      <trkpt lat="43.23718" lon="5.61361">
        <ele>347.875</ele>
        <time>2021-10-23T09:39:38Z</time>
      </trkpt>
      <trkpt lat="43.23716" lon="5.61369">
        <ele>347.015625</ele>
        <time>2021-10-23T09:39:39Z</time>
      </trkpt>
      <trkpt lat="43.23713" lon="5.61376">
        <ele>345.88671875</ele>
        <time>2021-10-23T09:39:40Z</time>
      </trkpt>
      <trkpt lat="43.2371" lon="5.61383">
        <ele>344.81640625</ele>
        <time>2021-10-23T09:39:41Z</time>
      </trkpt>
      <trkpt lat="43.23706" lon="5.61398">
        <ele>343.55859375</ele>
        <time>2021-10-23T09:39:43Z</time>
      </trkpt>
      <trkpt lat="43.23704" lon="5.61405">
        <ele>343.02734375</ele>
        <time>2021-10-23T09:39:44Z</time>
      </trkpt>
      <trkpt lat="43.23697" lon="5.61417">
        <ele>342.546875</ele>
        <time>2021-10-23T09:39:46Z</time>
      </trkpt>
      <trkpt lat="43.23686" lon="5.6143">
        <ele>341.31640625</ele>
        <time>2021-10-23T09:39:49Z</time>
      </trkpt>
      <trkpt lat="43.23683" lon="5.61433">
        <ele>340.6640625</ele>
        <time>2021-10-23T09:39:50Z</time>
      </trkpt>
      <trkpt lat="43.23675" lon="5.61441">
        <ele>340.1796875</ele>
        <time>2021-10-23T09:39:52Z</time>
      </trkpt>
      <trkpt lat="43.23671" lon="5.61445">
        <ele>340.30078125</ele>
        <time>2021-10-23T09:39:53Z</time>
      </trkpt>
      <trkpt lat="43.23666" lon="5.61451">
        <ele>340.55859375</ele>
        <time>2021-10-23T09:39:54Z</time>
      </trkpt>
      <trkpt lat="43.23655" lon="5.61463">
        <ele>340.25</ele>
        <time>2021-10-23T09:39:56Z</time>
      </trkpt>
      <trkpt lat="43.23649" lon="5.61468">
        <ele>339.7265625</ele>
        <time>2021-10-23T09:39:57Z</time>
      </trkpt>
      <trkpt lat="43.23643" lon="5.61473">
        <ele>339.19921875</ele>
        <time>2021-10-23T09:39:58Z</time>
      </trkpt>
      <trkpt lat="43.23638" lon="5.61478">
        <ele>339.265625</ele>
        <time>2021-10-23T09:39:59Z</time>
      </trkpt>
      <trkpt lat="43.23633" lon="5.61483">
        <ele>339.10546875</ele>
        <time>2021-10-23T09:40:00Z</time>
      </trkpt>
      <trkpt lat="43.23629" lon="5.61486">
        <ele>338.51171875</ele>
        <time>2021-10-23T09:40:01Z</time>
      </trkpt>
      <trkpt lat="43.23623" lon="5.61488">
        <ele>337.55859375</ele>
        <time>2021-10-23T09:40:02Z</time>
      </trkpt>
      <trkpt lat="43.23618" lon="5.6149">
        <ele>336.453125</ele>
        <time>2021-10-23T09:40:03Z</time>
      </trkpt>
      <trkpt lat="43.23612" lon="5.61494">
        <ele>335.91796875</ele>
        <time>2021-10-23T09:40:04Z</time>
      </trkpt>
      <trkpt lat="43.23606" lon="5.61499">
        <ele>335.7109375</ele>
        <time>2021-10-23T09:40:05Z</time>
      </trkpt>
      <trkpt lat="43.23601" lon="5.61504">
        <ele>335.46875</ele>
        <time>2021-10-23T09:40:06Z</time>
      </trkpt>
      <trkpt lat="43.23596" lon="5.61507">
        <ele>334.8359375</ele>
        <time>2021-10-23T09:40:07Z</time>
      </trkpt>
      <trkpt lat="43.23591" lon="5.61508">
        <ele>333.77734375</ele>
        <time>2021-10-23T09:40:08Z</time>
      </trkpt>
      <trkpt lat="43.23586" lon="5.6151">
        <ele>332.95703125</ele>
        <time>2021-10-23T09:40:09Z</time>
      </trkpt>
      <trkpt lat="43.23581" lon="5.61513">
        <ele>332.6875</ele>
        <time>2021-10-23T09:40:10Z</time>
      </trkpt>
      <trkpt lat="43.23576" lon="5.61515">
        <ele>332.31640625</ele>
        <time>2021-10-23T09:40:11Z</time>
      </trkpt>
      <trkpt lat="43.23572" lon="5.61516">
        <ele>331.67578125</ele>
        <time>2021-10-23T09:40:12Z</time>
      </trkpt>
      <trkpt lat="43.23568" lon="5.61517">
        <ele>331.0859375</ele>
        <time>2021-10-23T09:40:13Z</time>
      </trkpt>
      <trkpt lat="43.23565" lon="5.61518">
        <ele>330.6875</ele>
        <time>2021-10-23T09:40:14Z</time>
      </trkpt>
      <trkpt lat="43.23565" lon="5.61521">
        <ele>331.5546875</ele>
        <time>2021-10-23T09:40:21Z</time>
      </trkpt>
      <trkpt lat="43.23562" lon="5.61521">
        <ele>330.921875</ele>
        <time>2021-10-23T09:40:35Z</time>
      </trkpt>
      <trkpt lat="43.2356" lon="5.6152">
        <ele>330.42578125</ele>
        <time>2021-10-23T09:40:37Z</time>
      </trkpt>
      <trkpt lat="43.23558" lon="5.61521">
        <ele>330.328125</ele>
        <time>2021-10-23T09:40:38Z</time>
      </trkpt>
      <trkpt lat="43.23557" lon="5.61522">
        <ele>330.50390625</ele>
        <time>2021-10-23T09:40:39Z</time>
      </trkpt>
      <trkpt lat="43.23554" lon="5.61524">
        <ele>330.8203125</ele>
        <time>2021-10-23T09:40:40Z</time>
      </trkpt>
      <trkpt lat="43.23552" lon="5.61525">
        <ele>331.12890625</ele>
        <time>2021-10-23T09:40:41Z</time>
      </trkpt>
      <trkpt lat="43.23545" lon="5.61528">
        <ele>330.88671875</ele>
        <time>2021-10-23T09:40:43Z</time>
      </trkpt>
      <trkpt lat="43.23541" lon="5.61526">
        <ele>329.7421875</ele>
        <time>2021-10-23T09:40:44Z</time>
      </trkpt>
      <trkpt lat="43.23538" lon="5.61524">
        <ele>328.421875</ele>
        <time>2021-10-23T09:40:45Z</time>
      </trkpt>
      <trkpt lat="43.23533" lon="5.61522">
        <ele>327.3671875</ele>
        <time>2021-10-23T09:40:46Z</time>
      </trkpt>
      <trkpt lat="43.23528" lon="5.61521">
        <ele>326.671875</ele>
        <time>2021-10-23T09:40:47Z</time>
      </trkpt>
      <trkpt lat="43.23523" lon="5.6152">
        <ele>325.93359375</ele>
        <time>2021-10-23T09:40:48Z</time>
      </trkpt>
      <trkpt lat="43.23516" lon="5.61518">
        <ele>325.25</ele>
        <time>2021-10-23T09:40:49Z</time>
      </trkpt>
      <trkpt lat="43.23509" lon="5.61516">
        <ele>324.62890625</ele>
        <time>2021-10-23T09:40:50Z</time>
      </trkpt>
      <trkpt lat="43.23503" lon="5.61514">
        <ele>324.12109375</ele>
        <time>2021-10-23T09:40:51Z</time>
      </trkpt>
      <trkpt lat="43.23484" lon="5.61512">
        <ele>322.86328125</ele>
        <time>2021-10-23T09:40:57Z</time>
      </trkpt>
      <trkpt lat="43.23479" lon="5.61512">
        <ele>322.5546875</ele>
        <time>2021-10-23T09:40:58Z</time>
      </trkpt>
      <trkpt lat="43.23474" lon="5.6151">
        <ele>322.046875</ele>
        <time>2021-10-23T09:40:59Z</time>
      </trkpt>
      <trkpt lat="43.23463" lon="5.61507">
        <ele>320.83203125</ele>
        <time>2021-10-23T09:41:01Z</time>
      </trkpt>
      <trkpt lat="43.2346" lon="5.61503">
        <ele>319.859375</ele>
        <time>2021-10-23T09:41:02Z</time>
      </trkpt>
      <trkpt lat="43.23457" lon="5.615">
        <ele>319.234375</ele>
        <time>2021-10-23T09:41:03Z</time>
      </trkpt>
      <trkpt lat="43.23454" lon="5.615">
        <ele>318.984375</ele>
        <time>2021-10-23T09:41:04Z</time>
      </trkpt>
      <trkpt lat="43.23451" lon="5.61499">
        <ele>318.7421875</ele>
        <time>2021-10-23T09:41:05Z</time>
      </trkpt>
      <trkpt lat="43.2344" lon="5.61498">
        <ele>317.98046875</ele>
        <time>2021-10-23T09:41:08Z</time>
      </trkpt>
      <trkpt lat="43.23434" lon="5.61501">
        <ele>318.14453125</ele>
        <time>2021-10-23T09:41:09Z</time>
      </trkpt>
      <trkpt lat="43.23429" lon="5.61502">
        <ele>318.2265625</ele>
        <time>2021-10-23T09:41:10Z</time>
      </trkpt>
      <trkpt lat="43.23417" lon="5.61505">
        <ele>318.26953125</ele>
        <time>2021-10-23T09:41:12Z</time>
      </trkpt>
      <trkpt lat="43.23412" lon="5.61507">
        <ele>318.390625</ele>
        <time>2021-10-23T09:41:13Z</time>
      </trkpt>
      <trkpt lat="43.23406" lon="5.6151">
        <ele>318.82421875</ele>
        <time>2021-10-23T09:41:14Z</time>
      </trkpt>
      <trkpt lat="43.2339" lon="5.61519">
        <ele>319.62109375</ele>
        <time>2021-10-23T09:41:17Z</time>
      </trkpt>
      <trkpt lat="43.23385" lon="5.61519">
        <ele>319.125</ele>
        <time>2021-10-23T09:41:18Z</time>
      </trkpt>
      <trkpt lat="43.23367" lon="5.61519">
        <ele>317.13671875</ele>
        <time>2021-10-23T09:41:22Z</time>
      </trkpt>
      <trkpt lat="43.23363" lon="5.61521">
        <ele>317.171875</ele>
        <time>2021-10-23T09:41:23Z</time>
      </trkpt>
      <trkpt lat="43.23358" lon="5.61521">
        <ele>316.6484375</ele>
        <time>2021-10-23T09:41:24Z</time>
      </trkpt>
      <trkpt lat="43.23348" lon="5.6152">
        <ele>314.78515625</ele>
        <time>2021-10-23T09:41:26Z</time>
      </trkpt>
      <trkpt lat="43.23342" lon="5.61519">
        <ele>313.76953125</ele>
        <time>2021-10-23T09:41:27Z</time>
      </trkpt>
      <trkpt lat="43.23337" lon="5.61518">
        <ele>312.73046875</ele>
        <time>2021-10-23T09:41:28Z</time>
      </trkpt>
      <trkpt lat="43.23331" lon="5.61517">
        <ele>311.98046875</ele>
        <time>2021-10-23T09:41:29Z</time>
      </trkpt>
      <trkpt lat="43.23326" lon="5.61517">
        <ele>311.40625</ele>
        <time>2021-10-23T09:41:30Z</time>
      </trkpt>
      <trkpt lat="43.23321" lon="5.61516">
        <ele>310.81640625</ele>
        <time>2021-10-23T09:41:31Z</time>
      </trkpt>
      <trkpt lat="43.23317" lon="5.61515">
        <ele>310.1328125</ele>
        <time>2021-10-23T09:41:32Z</time>
      </trkpt>
      <trkpt lat="43.23312" lon="5.61515">
        <ele>309.54296875</ele>
        <time>2021-10-23T09:41:33Z</time>
      </trkpt>
      <trkpt lat="43.23307" lon="5.61515">
        <ele>309.24609375</ele>
        <time>2021-10-23T09:41:34Z</time>
      </trkpt>
      <trkpt lat="43.23302" lon="5.61514">
        <ele>308.9375</ele>
        <time>2021-10-23T09:41:35Z</time>
      </trkpt>
      <trkpt lat="43.23298" lon="5.61512">
        <ele>308.44921875</ele>
        <time>2021-10-23T09:41:36Z</time>
      </trkpt>
      <trkpt lat="43.23293" lon="5.61511">
        <ele>308.03125</ele>
        <time>2021-10-23T09:41:37Z</time>
      </trkpt>
      <trkpt lat="43.23288" lon="5.6151">
        <ele>307.703125</ele>
        <time>2021-10-23T09:41:38Z</time>
      </trkpt>
      <trkpt lat="43.23282" lon="5.61511">
        <ele>307.5234375</ele>
        <time>2021-10-23T09:41:39Z</time>
      </trkpt>
      <trkpt lat="43.23277" lon="5.61513">
        <ele>307.703125</ele>
        <time>2021-10-23T09:41:40Z</time>
      </trkpt>
      <trkpt lat="43.23273" lon="5.61516">
        <ele>307.984375</ele>
        <time>2021-10-23T09:41:41Z</time>
      </trkpt>
      <trkpt lat="43.23268" lon="5.61517">
        <ele>308.11328125</ele>
        <time>2021-10-23T09:41:42Z</time>
      </trkpt>
      <trkpt lat="43.23261" lon="5.61521">
        <ele>309.01171875</ele>
        <time>2021-10-23T09:41:44Z</time>
      </trkpt>
      <trkpt lat="43.23252" lon="5.6152">
        <ele>307.9296875</ele>
        <time>2021-10-23T09:41:46Z</time>
      </trkpt>
      <trkpt lat="43.23244" lon="5.61517">
        <ele>305.8046875</ele>
        <time>2021-10-23T09:41:48Z</time>
      </trkpt>
      <trkpt lat="43.23242" lon="5.61516">
        <ele>305.34765625</ele>
        <time>2021-10-23T09:41:49Z</time>
      </trkpt>
      <trkpt lat="43.2324" lon="5.61515">
        <ele>304.73046875</ele>
        <time>2021-10-23T09:41:50Z</time>
      </trkpt>
      <trkpt lat="43.23237" lon="5.61514">
        <ele>304.10546875</ele>
        <time>2021-10-23T09:41:51Z</time>
      </trkpt>
      <trkpt lat="43.23233" lon="5.61514">
        <ele>303.4375</ele>
        <time>2021-10-23T09:41:52Z</time>
      </trkpt>
      <trkpt lat="43.23229" lon="5.61513">
        <ele>302.72265625</ele>
        <time>2021-10-23T09:41:53Z</time>
      </trkpt>
      <trkpt lat="43.23226" lon="5.61514">
        <ele>302.2734375</ele>
        <time>2021-10-23T09:41:54Z</time>
      </trkpt>
      <trkpt lat="43.23223" lon="5.61517">
        <ele>302.08203125</ele>
        <time>2021-10-23T09:41:55Z</time>
      </trkpt>
      <trkpt lat="43.2322" lon="5.61522">
        <ele>302.984375</ele>
        <time>2021-10-23T09:41:56Z</time>
      </trkpt>
      <trkpt lat="43.23216" lon="5.61527">
        <ele>304.203125</ele>
        <time>2021-10-23T09:41:57Z</time>
      </trkpt>
      <trkpt lat="43.23209" lon="5.61537">
        <ele>306.62109375</ele>
        <time>2021-10-23T09:41:59Z</time>
      </trkpt>
      <trkpt lat="43.23197" lon="5.61546">
        <ele>307.11328125</ele>
        <time>2021-10-23T09:42:02Z</time>
      </trkpt>
      <trkpt lat="43.23193" lon="5.61546">
        <ele>306.21484375</ele>
        <time>2021-10-23T09:42:03Z</time>
      </trkpt>
      <trkpt lat="43.23177" lon="5.61549">
        <ele>303.2265625</ele>
        <time>2021-10-23T09:42:06Z</time>
      </trkpt>
      <trkpt lat="43.23173" lon="5.61547">
        <ele>301.5234375</ele>
        <time>2021-10-23T09:42:07Z</time>
      </trkpt>
      <trkpt lat="43.23168" lon="5.61547">
        <ele>300.19921875</ele>
        <time>2021-10-23T09:42:08Z</time>
      </trkpt>
      <trkpt lat="43.23163" lon="5.61548">
        <ele>299.4296875</ele>
        <time>2021-10-23T09:42:09Z</time>
      </trkpt>
      <trkpt lat="43.23158" lon="5.6155">
        <ele>299.0078125</ele>
        <time>2021-10-23T09:42:10Z</time>
      </trkpt>
      <trkpt lat="43.23154" lon="5.61553">
        <ele>298.7890625</ele>
        <time>2021-10-23T09:42:11Z</time>
      </trkpt>
      <trkpt lat="43.2315" lon="5.61556">
        <ele>298.81640625</ele>
        <time>2021-10-23T09:42:12Z</time>
      </trkpt>
      <trkpt lat="43.23148" lon="5.61559">
        <ele>299.1328125</ele>
        <time>2021-10-23T09:42:13Z</time>
      </trkpt>
      <trkpt lat="43.23145" lon="5.61562">
        <ele>299.17578125</ele>
        <time>2021-10-23T09:42:14Z</time>
      </trkpt>
      <trkpt lat="43.23141" lon="5.61563">
        <ele>298.52734375</ele>
        <time>2021-10-23T09:42:15Z</time>
      </trkpt>
      <trkpt lat="43.23139" lon="5.6156">
        <ele>297.32421875</ele>
        <time>2021-10-23T09:42:16Z</time>
      </trkpt>
      <trkpt lat="43.23136" lon="5.61557">
        <ele>296.0234375</ele>
        <time>2021-10-23T09:42:17Z</time>
      </trkpt>
      <trkpt lat="43.23134" lon="5.61556">
        <ele>295.04296875</ele>
        <time>2021-10-23T09:42:18Z</time>
      </trkpt>
      <trkpt lat="43.2313" lon="5.61555">
        <ele>294.27734375</ele>
        <time>2021-10-23T09:42:19Z</time>
      </trkpt>
      <trkpt lat="43.23127" lon="5.61555">
        <ele>293.48828125</ele>
        <time>2021-10-23T09:42:20Z</time>
      </trkpt>
      <trkpt lat="43.23113" lon="5.61563">
        <ele>291.92578125</ele>
        <time>2021-10-23T09:42:24Z</time>
      </trkpt>
      <trkpt lat="43.23112" lon="5.61567">
        <ele>292.28125</ele>
        <time>2021-10-23T09:42:25Z</time>
      </trkpt>
      <trkpt lat="43.23111" lon="5.61571">
        <ele>292.625</ele>
        <time>2021-10-23T09:42:26Z</time>
      </trkpt>
      <trkpt lat="43.23106" lon="5.61583">
        <ele>293.62890625</ele>
        <time>2021-10-23T09:42:29Z</time>
      </trkpt>
      <trkpt lat="43.23105" lon="5.61587">
        <ele>294.15625</ele>
        <time>2021-10-23T09:42:30Z</time>
      </trkpt>
      <trkpt lat="43.23104" lon="5.61591">
        <ele>294.59765625</ele>
        <time>2021-10-23T09:42:31Z</time>
      </trkpt>
      <trkpt lat="43.23101" lon="5.61594">
        <ele>294.62890625</ele>
        <time>2021-10-23T09:42:32Z</time>
      </trkpt>
      <trkpt lat="43.23099" lon="5.61596">
        <ele>294.23828125</ele>
        <time>2021-10-23T09:42:33Z</time>
      </trkpt>
      <trkpt lat="43.23096" lon="5.61597">
        <ele>293.6171875</ele>
        <time>2021-10-23T09:42:34Z</time>
      </trkpt>
      <trkpt lat="43.23093" lon="5.61599">
        <ele>293.0703125</ele>
        <time>2021-10-23T09:42:35Z</time>
      </trkpt>
      <trkpt lat="43.23091" lon="5.61601">
        <ele>292.8125</ele>
        <time>2021-10-23T09:42:36Z</time>
      </trkpt>
      <trkpt lat="43.23089" lon="5.61605">
        <ele>292.4765625</ele>
        <time>2021-10-23T09:42:37Z</time>
      </trkpt>
      <trkpt lat="43.23087" lon="5.61609">
        <ele>292.078125</ele>
        <time>2021-10-23T09:42:38Z</time>
      </trkpt>
      <trkpt lat="43.23085" lon="5.61614">
        <ele>291.7734375</ele>
        <time>2021-10-23T09:42:39Z</time>
      </trkpt>
      <trkpt lat="43.23083" lon="5.61619">
        <ele>291.28515625</ele>
        <time>2021-10-23T09:42:40Z</time>
      </trkpt>
      <trkpt lat="43.23081" lon="5.61622">
        <ele>290.66015625</ele>
        <time>2021-10-23T09:42:41Z</time>
      </trkpt>
      <trkpt lat="43.23079" lon="5.61626">
        <ele>290.0625</ele>
        <time>2021-10-23T09:42:42Z</time>
      </trkpt>
      <trkpt lat="43.23076" lon="5.61629">
        <ele>289.16015625</ele>
        <time>2021-10-23T09:42:43Z</time>
      </trkpt>
      <trkpt lat="43.23073" lon="5.61633">
        <ele>288.26953125</ele>
        <time>2021-10-23T09:42:44Z</time>
      </trkpt>
      <trkpt lat="43.23071" lon="5.61637">
        <ele>287.69140625</ele>
        <time>2021-10-23T09:42:45Z</time>
      </trkpt>
      <trkpt lat="43.23069" lon="5.61642">
        <ele>287.23046875</ele>
        <time>2021-10-23T09:42:46Z</time>
      </trkpt>
      <trkpt lat="43.23067" lon="5.61646">
        <ele>286.5390625</ele>
        <time>2021-10-23T09:42:47Z</time>
      </trkpt>
      <trkpt lat="43.23065" lon="5.61649">
        <ele>285.88671875</ele>
        <time>2021-10-23T09:42:48Z</time>
      </trkpt>
      <trkpt lat="43.23064" lon="5.61653">
        <ele>285.5234375</ele>
        <time>2021-10-23T09:42:49Z</time>
      </trkpt>
      <trkpt lat="43.23062" lon="5.61656">
        <ele>284.8671875</ele>
        <time>2021-10-23T09:42:50Z</time>
      </trkpt>
      <trkpt lat="43.2306" lon="5.61659">
        <ele>283.9140625</ele>
        <time>2021-10-23T09:42:51Z</time>
      </trkpt>
      <trkpt lat="43.23038" lon="5.61684">
        <ele>277.48046875</ele>
        <time>2021-10-23T09:42:59Z</time>
      </trkpt>
      <trkpt lat="43.23035" lon="5.61687">
        <ele>276.6484375</ele>
        <time>2021-10-23T09:43:04Z</time>
      </trkpt>
      <trkpt lat="43.23033" lon="5.61688">
        <ele>276.05859375</ele>
        <time>2021-10-23T09:43:05Z</time>
      </trkpt>
      <trkpt lat="43.23026" lon="5.61692">
        <ele>274.3984375</ele>
        <time>2021-10-23T09:43:07Z</time>
      </trkpt>
      <trkpt lat="43.23023" lon="5.61696">
        <ele>273.4921875</ele>
        <time>2021-10-23T09:43:08Z</time>
      </trkpt>
      <trkpt lat="43.2302" lon="5.61701">
        <ele>272.69140625</ele>
        <time>2021-10-23T09:43:09Z</time>
      </trkpt>
      <trkpt lat="43.23017" lon="5.61703">
        <ele>272.00390625</ele>
        <time>2021-10-23T09:43:10Z</time>
      </trkpt>
      <trkpt lat="43.23015" lon="5.61704">
        <ele>271.5234375</ele>
        <time>2021-10-23T09:43:11Z</time>
      </trkpt>
      <trkpt lat="43.23012" lon="5.61706">
        <ele>270.73046875</ele>
        <time>2021-10-23T09:43:22Z</time>
      </trkpt>
      <trkpt lat="43.23009" lon="5.61704">
        <ele>270.30078125</ele>
        <time>2021-10-23T09:43:47Z</time>
      </trkpt>
      <trkpt lat="43.23009" lon="5.61702">
        <ele>270.27734375</ele>
        <time>2021-10-23T09:43:48Z</time>
      </trkpt>
      <trkpt lat="43.23008" lon="5.617">
        <ele>270.06640625</ele>
        <time>2021-10-23T09:43:49Z</time>
      </trkpt>
      <trkpt lat="43.23005" lon="5.61698">
        <ele>269.67578125</ele>
        <time>2021-10-23T09:43:50Z</time>
      </trkpt>
      <trkpt lat="43.23003" lon="5.61696">
        <ele>269.39453125</ele>
        <time>2021-10-23T09:43:51Z</time>
      </trkpt>
      <trkpt lat="43.22999" lon="5.61693">
        <ele>269.12109375</ele>
        <time>2021-10-23T09:43:52Z</time>
      </trkpt>
      <trkpt lat="43.22995" lon="5.61691">
        <ele>268.7421875</ele>
        <time>2021-10-23T09:43:53Z</time>
      </trkpt>
      <trkpt lat="43.22991" lon="5.6169">
        <ele>268.2734375</ele>
        <time>2021-10-23T09:43:54Z</time>
      </trkpt>
      <trkpt lat="43.22986" lon="5.61691">
        <ele>267.75</ele>
        <time>2021-10-23T09:43:55Z</time>
      </trkpt>
      <trkpt lat="43.22981" lon="5.6169">
        <ele>267.26953125</ele>
        <time>2021-10-23T09:43:56Z</time>
      </trkpt>
      <trkpt lat="43.22977" lon="5.6169">
        <ele>266.80859375</ele>
        <time>2021-10-23T09:43:57Z</time>
      </trkpt>
      <trkpt lat="43.22973" lon="5.61691">
        <ele>266.515625</ele>
        <time>2021-10-23T09:43:58Z</time>
      </trkpt>
      <trkpt lat="43.22969" lon="5.61689">
        <ele>266.3671875</ele>
        <time>2021-10-23T09:43:59Z</time>
      </trkpt>
      <trkpt lat="43.22967" lon="5.61684">
        <ele>266.3046875</ele>
        <time>2021-10-23T09:44:00Z</time>
      </trkpt>
      <trkpt lat="43.22964" lon="5.61679">
        <ele>266.19921875</ele>
        <time>2021-10-23T09:44:01Z</time>
      </trkpt>
      <trkpt lat="43.22961" lon="5.61675">
        <ele>266.03125</ele>
        <time>2021-10-23T09:44:02Z</time>
      </trkpt>
      <trkpt lat="43.22957" lon="5.61671">
        <ele>265.9296875</ele>
        <time>2021-10-23T09:44:03Z</time>
      </trkpt>
      <trkpt lat="43.22955" lon="5.61667">
        <ele>265.95703125</ele>
        <time>2021-10-23T09:44:04Z</time>
      </trkpt>
      <trkpt lat="43.22954" lon="5.61662">
        <ele>266.046875</ele>
        <time>2021-10-23T09:44:05Z</time>
      </trkpt>
      <trkpt lat="43.22953" lon="5.61657">
        <ele>266.14453125</ele>
        <time>2021-10-23T09:44:06Z</time>
      </trkpt>
      <trkpt lat="43.22952" lon="5.61649">
        <ele>266.17578125</ele>
        <time>2021-10-23T09:44:07Z</time>
      </trkpt>
      <trkpt lat="43.22951" lon="5.61641">
        <ele>266.1875</ele>
        <time>2021-10-23T09:44:08Z</time>
      </trkpt>
      <trkpt lat="43.2295" lon="5.61632">
        <ele>266.18359375</ele>
        <time>2021-10-23T09:44:09Z</time>
      </trkpt>
      <trkpt lat="43.22951" lon="5.61623">
        <ele>266.578125</ele>
        <time>2021-10-23T09:44:10Z</time>
      </trkpt>
      <trkpt lat="43.22953" lon="5.61615">
        <ele>267.2421875</ele>
        <time>2021-10-23T09:44:11Z</time>
      </trkpt>
      <trkpt lat="43.22953" lon="5.61609">
        <ele>267.66796875</ele>
        <time>2021-10-23T09:44:12Z</time>
      </trkpt>
      <trkpt lat="43.22953" lon="5.61604">
        <ele>267.73828125</ele>
        <time>2021-10-23T09:44:13Z</time>
      </trkpt>
      <trkpt lat="43.22951" lon="5.61598">
        <ele>267.6171875</ele>
        <time>2021-10-23T09:44:14Z</time>
      </trkpt>
      <trkpt lat="43.22949" lon="5.61592">
        <ele>267.08984375</ele>
        <time>2021-10-23T09:44:15Z</time>
      </trkpt>
      <trkpt lat="43.22944" lon="5.61586">
        <ele>265.71875</ele>
        <time>2021-10-23T09:44:16Z</time>
      </trkpt>
      <trkpt lat="43.22939" lon="5.61581">
        <ele>263.59375</ele>
        <time>2021-10-23T09:44:17Z</time>
      </trkpt>
      <trkpt lat="43.22933" lon="5.61577">
        <ele>261.23828125</ele>
        <time>2021-10-23T09:44:18Z</time>
      </trkpt>
      <trkpt lat="43.22928" lon="5.61575">
        <ele>258.82421875</ele>
        <time>2021-10-23T09:44:19Z</time>
      </trkpt>
      <trkpt lat="43.22923" lon="5.61576">
        <ele>256.65625</ele>
        <time>2021-10-23T09:44:20Z</time>
      </trkpt>
      <trkpt lat="43.22918" lon="5.61579">
        <ele>255.734375</ele>
        <time>2021-10-23T09:44:21Z</time>
      </trkpt>
      <trkpt lat="43.22913" lon="5.61583">
        <ele>255.390625</ele>
        <time>2021-10-23T09:44:22Z</time>
      </trkpt>
      <trkpt lat="43.2291" lon="5.61588">
        <ele>255.48046875</ele>
        <time>2021-10-23T09:44:23Z</time>
      </trkpt>
      <trkpt lat="43.22909" lon="5.61594">
        <ele>255.84375</ele>
        <time>2021-10-23T09:44:24Z</time>
      </trkpt>
      <trkpt lat="43.22907" lon="5.61601">
        <ele>256.12890625</ele>
        <time>2021-10-23T09:44:25Z</time>
      </trkpt>
      <trkpt lat="43.22904" lon="5.61606">
        <ele>256.30859375</ele>
        <time>2021-10-23T09:44:26Z</time>
      </trkpt>
      <trkpt lat="43.22903" lon="5.61612">
        <ele>256.6953125</ele>
        <time>2021-10-23T09:44:27Z</time>
      </trkpt>
      <trkpt lat="43.22902" lon="5.61617">
        <ele>257.03125</ele>
        <time>2021-10-23T09:44:28Z</time>
      </trkpt>
      <trkpt lat="43.22899" lon="5.61621">
        <ele>256.97265625</ele>
        <time>2021-10-23T09:44:29Z</time>
      </trkpt>
      <trkpt lat="43.22896" lon="5.61624">
        <ele>256.68359375</ele>
        <time>2021-10-23T09:44:30Z</time>
      </trkpt>
      <trkpt lat="43.22892" lon="5.61627">
        <ele>256.2578125</ele>
        <time>2021-10-23T09:44:31Z</time>
      </trkpt>
      <trkpt lat="43.22888" lon="5.61626">
        <ele>255.5078125</ele>
        <time>2021-10-23T09:44:32Z</time>
      </trkpt>
      <trkpt lat="43.2288" lon="5.61624">
        <ele>253.83203125</ele>
        <time>2021-10-23T09:44:34Z</time>
      </trkpt>
      <trkpt lat="43.22876" lon="5.61624">
        <ele>253.140625</ele>
        <time>2021-10-23T09:44:35Z</time>
      </trkpt>
      <trkpt lat="43.22871" lon="5.61626">
        <ele>252.48828125</ele>
        <time>2021-10-23T09:44:36Z</time>
      </trkpt>
      <trkpt lat="43.22867" lon="5.6163">
        <ele>252.0546875</ele>
        <time>2021-10-23T09:44:37Z</time>
      </trkpt>
      <trkpt lat="43.22863" lon="5.61634">
        <ele>251.703125</ele>
        <time>2021-10-23T09:44:38Z</time>
      </trkpt>
      <trkpt lat="43.22859" lon="5.61637">
        <ele>251.078125</ele>
        <time>2021-10-23T09:44:39Z</time>
      </trkpt>
      <trkpt lat="43.22855" lon="5.61639">
        <ele>249.890625</ele>
        <time>2021-10-23T09:44:40Z</time>
      </trkpt>
      <trkpt lat="43.2285" lon="5.61638">
        <ele>248.1953125</ele>
        <time>2021-10-23T09:44:41Z</time>
      </trkpt>
      <trkpt lat="43.22846" lon="5.61635">
        <ele>246.58203125</ele>
        <time>2021-10-23T09:44:42Z</time>
      </trkpt>
      <trkpt lat="43.22844" lon="5.61629">
        <ele>245.6640625</ele>
        <time>2021-10-23T09:44:43Z</time>
      </trkpt>
      <trkpt lat="43.22845" lon="5.61622">
        <ele>245.46484375</ele>
        <time>2021-10-23T09:44:44Z</time>
      </trkpt>
      <trkpt lat="43.22846" lon="5.61615">
        <ele>245.25</ele>
        <time>2021-10-23T09:44:45Z</time>
      </trkpt>
      <trkpt lat="43.22846" lon="5.61608">
        <ele>244.84375</ele>
        <time>2021-10-23T09:44:46Z</time>
      </trkpt>
      <trkpt lat="43.22845" lon="5.61602">
        <ele>244.3203125</ele>
        <time>2021-10-23T09:44:47Z</time>
      </trkpt>
      <trkpt lat="43.22842" lon="5.61597">
        <ele>243.6796875</ele>
        <time>2021-10-23T09:44:48Z</time>
      </trkpt>
      <trkpt lat="43.22839" lon="5.61595">
        <ele>242.80078125</ele>
        <time>2021-10-23T09:44:49Z</time>
      </trkpt>
      <trkpt lat="43.22834" lon="5.61595">
        <ele>242.0859375</ele>
        <time>2021-10-23T09:44:50Z</time>
      </trkpt>
      <trkpt lat="43.2283" lon="5.61597">
        <ele>241.43359375</ele>
        <time>2021-10-23T09:44:51Z</time>
      </trkpt>
      <trkpt lat="43.22827" lon="5.61597">
        <ele>240.77734375</ele>
        <time>2021-10-23T09:44:52Z</time>
      </trkpt>
      <trkpt lat="43.22822" lon="5.61595">
        <ele>239.94921875</ele>
        <time>2021-10-23T09:44:53Z</time>
      </trkpt>
      <trkpt lat="43.22817" lon="5.61594">
        <ele>239.125</ele>
        <time>2021-10-23T09:44:54Z</time>
      </trkpt>
      <trkpt lat="43.22813" lon="5.61594">
        <ele>238.3671875</ele>
        <time>2021-10-23T09:44:55Z</time>
      </trkpt>
      <trkpt lat="43.22808" lon="5.61596">
        <ele>237.75</ele>
        <time>2021-10-23T09:44:56Z</time>
      </trkpt>
      <trkpt lat="43.22802" lon="5.61598">
        <ele>237.26953125</ele>
        <time>2021-10-23T09:44:57Z</time>
      </trkpt>
      <trkpt lat="43.22795" lon="5.61599">
        <ele>236.765625</ele>
        <time>2021-10-23T09:44:58Z</time>
      </trkpt>
      <trkpt lat="43.22788" lon="5.616">
        <ele>236.2578125</ele>
        <time>2021-10-23T09:44:59Z</time>
      </trkpt>
      <trkpt lat="43.22781" lon="5.61601">
        <ele>235.75</ele>
        <time>2021-10-23T09:45:00Z</time>
      </trkpt>
      <trkpt lat="43.22774" lon="5.61601">
        <ele>235.26953125</ele>
        <time>2021-10-23T09:45:01Z</time>
      </trkpt>
      <trkpt lat="43.22767" lon="5.616">
        <ele>234.703125</ele>
        <time>2021-10-23T09:45:02Z</time>
      </trkpt>
      <trkpt lat="43.22761" lon="5.616">
        <ele>234.1328125</ele>
        <time>2021-10-23T09:45:03Z</time>
      </trkpt>
      <trkpt lat="43.22754" lon="5.61599">
        <ele>233.58203125</ele>
        <time>2021-10-23T09:45:04Z</time>
      </trkpt>
      <trkpt lat="43.22748" lon="5.61598">
        <ele>233.015625</ele>
        <time>2021-10-23T09:45:05Z</time>
      </trkpt>
      <trkpt lat="43.22743" lon="5.61595">
        <ele>232.296875</ele>
        <time>2021-10-23T09:45:06Z</time>
      </trkpt>
      <trkpt lat="43.22739" lon="5.6159">
        <ele>231.29296875</ele>
        <time>2021-10-23T09:45:07Z</time>
      </trkpt>
      <trkpt lat="43.22737" lon="5.61583">
        <ele>230.1796875</ele>
        <time>2021-10-23T09:45:08Z</time>
      </trkpt>
      <trkpt lat="43.22735" lon="5.61577">
        <ele>229.15234375</ele>
        <time>2021-10-23T09:45:09Z</time>
      </trkpt>
      <trkpt lat="43.22735" lon="5.61571">
        <ele>228.40625</ele>
        <time>2021-10-23T09:45:10Z</time>
      </trkpt>
      <trkpt lat="43.22738" lon="5.61566">
        <ele>228.1875</ele>
        <time>2021-10-23T09:45:11Z</time>
      </trkpt>
      <trkpt lat="43.22742" lon="5.61562">
        <ele>228.17578125</ele>
        <time>2021-10-23T09:45:12Z</time>
      </trkpt>
      <trkpt lat="43.22745" lon="5.61556">
        <ele>228.09375</ele>
        <time>2021-10-23T09:45:13Z</time>
      </trkpt>
      <trkpt lat="43.22748" lon="5.61551">
        <ele>228.06640625</ele>
        <time>2021-10-23T09:45:14Z</time>
      </trkpt>
      <trkpt lat="43.22751" lon="5.61544">
        <ele>228.171875</ele>
        <time>2021-10-23T09:45:15Z</time>
      </trkpt>
      <trkpt lat="43.22753" lon="5.61537">
        <ele>228.4609375</ele>
        <time>2021-10-23T09:45:16Z</time>
      </trkpt>
      <trkpt lat="43.22754" lon="5.61529">
        <ele>228.58984375</ele>
        <time>2021-10-23T09:45:17Z</time>
      </trkpt>
      <trkpt lat="43.22754" lon="5.61523">
        <ele>228.58203125</ele>
        <time>2021-10-23T09:45:18Z</time>
      </trkpt>
      <trkpt lat="43.22755" lon="5.61517">
        <ele>229.0625</ele>
        <time>2021-10-23T09:45:19Z</time>
      </trkpt>
      <trkpt lat="43.22757" lon="5.61512">
        <ele>230.359375</ele>
        <time>2021-10-23T09:45:20Z</time>
      </trkpt>
      <trkpt lat="43.22759" lon="5.61506">
        <ele>231.44921875</ele>
        <time>2021-10-23T09:45:21Z</time>
      </trkpt>
      <trkpt lat="43.22758" lon="5.61501">
        <ele>231.3515625</ele>
        <time>2021-10-23T09:45:22Z</time>
      </trkpt>
      <trkpt lat="43.22754" lon="5.61498">
        <ele>230.22265625</ele>
        <time>2021-10-23T09:45:23Z</time>
      </trkpt>
      <trkpt lat="43.2275" lon="5.61495">
        <ele>228.85546875</ele>
        <time>2021-10-23T09:45:24Z</time>
      </trkpt>
      <trkpt lat="43.22746" lon="5.61492">
        <ele>227.24609375</ele>
        <time>2021-10-23T09:45:25Z</time>
      </trkpt>
      <trkpt lat="43.2274" lon="5.61489">
        <ele>225.2265625</ele>
        <time>2021-10-23T09:45:26Z</time>
      </trkpt>
      <trkpt lat="43.22733" lon="5.61487">
        <ele>222.73828125</ele>
        <time>2021-10-23T09:45:27Z</time>
      </trkpt>
      <trkpt lat="43.22726" lon="5.61486">
        <ele>220.734375</ele>
        <time>2021-10-23T09:45:28Z</time>
      </trkpt>
      <trkpt lat="43.2272" lon="5.61484">
        <ele>221.57421875</ele>
        <time>2021-10-23T09:45:29Z</time>
      </trkpt>
      <trkpt lat="43.22703" lon="5.61484">
        <ele>223.375</ele>
        <time>2021-10-23T09:45:33Z</time>
      </trkpt>
      <trkpt lat="43.22698" lon="5.61485">
        <ele>223.7421875</ele>
        <time>2021-10-23T09:45:34Z</time>
      </trkpt>
      <trkpt lat="43.22693" lon="5.61485">
        <ele>223.65625</ele>
        <time>2021-10-23T09:45:35Z</time>
      </trkpt>
      <trkpt lat="43.22685" lon="5.61485">
        <ele>223.53125</ele>
        <time>2021-10-23T09:45:37Z</time>
      </trkpt>
      <trkpt lat="43.2268" lon="5.61487">
        <ele>223.5859375</ele>
        <time>2021-10-23T09:45:38Z</time>
      </trkpt>
      <trkpt lat="43.22667" lon="5.61491">
        <ele>223.00390625</ele>
        <time>2021-10-23T09:45:40Z</time>
      </trkpt>
      <trkpt lat="43.22662" lon="5.61493">
        <ele>222.2109375</ele>
        <time>2021-10-23T09:45:41Z</time>
      </trkpt>
      <trkpt lat="43.22658" lon="5.61495">
        <ele>221.68359375</ele>
        <time>2021-10-23T09:45:42Z</time>
      </trkpt>
      <trkpt lat="43.22654" lon="5.61498">
        <ele>221.1484375</ele>
        <time>2021-10-23T09:45:43Z</time>
      </trkpt>
      <trkpt lat="43.22644" lon="5.61505">
        <ele>219.61328125</ele>
        <time>2021-10-23T09:45:45Z</time>
      </trkpt>
      <trkpt lat="43.2264" lon="5.6151">
        <ele>218.83203125</ele>
        <time>2021-10-23T09:45:46Z</time>
      </trkpt>
      <trkpt lat="43.22635" lon="5.61515">
        <ele>217.85546875</ele>
        <time>2021-10-23T09:45:47Z</time>
      </trkpt>
      <trkpt lat="43.2263" lon="5.61521">
        <ele>216.71484375</ele>
        <time>2021-10-23T09:45:48Z</time>
      </trkpt>
      <trkpt lat="43.22626" lon="5.61526">
        <ele>215.6328125</ele>
        <time>2021-10-23T09:45:49Z</time>
      </trkpt>
      <trkpt lat="43.22622" lon="5.61532">
        <ele>214.72265625</ele>
        <time>2021-10-23T09:45:50Z</time>
      </trkpt>
      <trkpt lat="43.2262" lon="5.61539">
        <ele>214.2890625</ele>
        <time>2021-10-23T09:45:51Z</time>
      </trkpt>
      <trkpt lat="43.22618" lon="5.61546">
        <ele>213.94140625</ele>
        <time>2021-10-23T09:45:52Z</time>
      </trkpt>
      <trkpt lat="43.22616" lon="5.61551">
        <ele>212.65234375</ele>
        <time>2021-10-23T09:45:53Z</time>
      </trkpt>
      <trkpt lat="43.22612" lon="5.61555">
        <ele>210.48046875</ele>
        <time>2021-10-23T09:45:54Z</time>
      </trkpt>
      <trkpt lat="43.22608" lon="5.61559">
        <ele>207.68359375</ele>
        <time>2021-10-23T09:45:55Z</time>
      </trkpt>
      <trkpt lat="43.22603" lon="5.61562">
        <ele>204.578125</ele>
        <time>2021-10-23T09:45:56Z</time>
      </trkpt>
      <trkpt lat="43.22598" lon="5.61565">
        <ele>201.58203125</ele>
        <time>2021-10-23T09:45:57Z</time>
      </trkpt>
      <trkpt lat="43.22584" lon="5.61581">
        <ele>194.41796875</ele>
        <time>2021-10-23T09:46:00Z</time>
      </trkpt>
      <trkpt lat="43.22579" lon="5.61586">
        <ele>193.98828125</ele>
        <time>2021-10-23T09:46:01Z</time>
      </trkpt>
      <trkpt lat="43.22555" lon="5.61607">
        <ele>193.08984375</ele>
        <time>2021-10-23T09:46:05Z</time>
      </trkpt>
      <trkpt lat="43.22544" lon="5.61619">
        <ele>192.8828125</ele>
        <time>2021-10-23T09:46:07Z</time>
      </trkpt>
      <trkpt lat="43.22541" lon="5.61627">
        <ele>192.61328125</ele>
        <time>2021-10-23T09:46:08Z</time>
      </trkpt>
      <trkpt lat="43.22539" lon="5.61635">
        <ele>192.46875</ele>
        <time>2021-10-23T09:46:09Z</time>
      </trkpt>
      <trkpt lat="43.22538" lon="5.61643">
        <ele>192.52734375</ele>
        <time>2021-10-23T09:46:10Z</time>
      </trkpt>
      <trkpt lat="43.22539" lon="5.61651">
        <ele>192.73828125</ele>
        <time>2021-10-23T09:46:11Z</time>
      </trkpt>
      <trkpt lat="43.2254" lon="5.61659">
        <ele>193.20703125</ele>
        <time>2021-10-23T09:46:12Z</time>
      </trkpt>
      <trkpt lat="43.22544" lon="5.61686">
        <ele>197.1484375</ele>
        <time>2021-10-23T09:46:15Z</time>
      </trkpt>
      <trkpt lat="43.22544" lon="5.61694">
        <ele>198.625</ele>
        <time>2021-10-23T09:46:16Z</time>
      </trkpt>
      <trkpt lat="43.22544" lon="5.61703">
        <ele>199.859375</ele>
        <time>2021-10-23T09:46:17Z</time>
      </trkpt>
      <trkpt lat="43.22542" lon="5.61711">
        <ele>200.54296875</ele>
        <time>2021-10-23T09:46:18Z</time>
      </trkpt>
      <trkpt lat="43.2254" lon="5.61718">
        <ele>201.76171875</ele>
        <time>2021-10-23T09:46:19Z</time>
      </trkpt>
      <trkpt lat="43.22538" lon="5.61725">
        <ele>202.73828125</ele>
        <time>2021-10-23T09:46:20Z</time>
      </trkpt>
      <trkpt lat="43.22534" lon="5.6173">
        <ele>202.5390625</ele>
        <time>2021-10-23T09:46:21Z</time>
      </trkpt>
      <trkpt lat="43.2253" lon="5.61734">
        <ele>202.1796875</ele>
        <time>2021-10-23T09:46:22Z</time>
      </trkpt>
      <trkpt lat="43.22526" lon="5.61738">
        <ele>201.88671875</ele>
        <time>2021-10-23T09:46:23Z</time>
      </trkpt>
      <trkpt lat="43.22521" lon="5.61741">
        <ele>201.16796875</ele>
        <time>2021-10-23T09:46:24Z</time>
      </trkpt>
      <trkpt lat="43.22516" lon="5.61742">
        <ele>200.046875</ele>
        <time>2021-10-23T09:46:25Z</time>
      </trkpt>
      <trkpt lat="43.22511" lon="5.61742">
        <ele>198.265625</ele>
        <time>2021-10-23T09:46:26Z</time>
      </trkpt>
      <trkpt lat="43.22507" lon="5.61739">
        <ele>196.01171875</ele>
        <time>2021-10-23T09:46:27Z</time>
      </trkpt>
      <trkpt lat="43.22503" lon="5.61736">
        <ele>194.30859375</ele>
        <time>2021-10-23T09:46:28Z</time>
      </trkpt>
      <trkpt lat="43.22499" lon="5.61733">
        <ele>192.921875</ele>
        <time>2021-10-23T09:46:29Z</time>
      </trkpt>
      <trkpt lat="43.22494" lon="5.6173">
        <ele>191.6640625</ele>
        <time>2021-10-23T09:46:30Z</time>
      </trkpt>
      <trkpt lat="43.22489" lon="5.61728">
        <ele>190.5546875</ele>
        <time>2021-10-23T09:46:31Z</time>
      </trkpt>
      <trkpt lat="43.22484" lon="5.61726">
        <ele>189.296875</ele>
        <time>2021-10-23T09:46:32Z</time>
      </trkpt>
      <trkpt lat="43.22478" lon="5.61723">
        <ele>187.76953125</ele>
        <time>2021-10-23T09:46:33Z</time>
      </trkpt>
      <trkpt lat="43.22473" lon="5.61719">
        <ele>186.7890625</ele>
        <time>2021-10-23T09:46:34Z</time>
      </trkpt>
      <trkpt lat="43.22467" lon="5.61716">
        <ele>186.171875</ele>
        <time>2021-10-23T09:46:35Z</time>
      </trkpt>
      <trkpt lat="43.22462" lon="5.61714">
        <ele>185.78515625</ele>
        <time>2021-10-23T09:46:36Z</time>
      </trkpt>
      <trkpt lat="43.22456" lon="5.61713">
        <ele>185.79296875</ele>
        <time>2021-10-23T09:46:37Z</time>
      </trkpt>
      <trkpt lat="43.2245" lon="5.61713">
        <ele>186.00390625</ele>
        <time>2021-10-23T09:46:38Z</time>
      </trkpt>
      <trkpt lat="43.22445" lon="5.61714">
        <ele>186</ele>
        <time>2021-10-23T09:46:39Z</time>
      </trkpt>
      <trkpt lat="43.22439" lon="5.61716">
        <ele>186.27734375</ele>
        <time>2021-10-23T09:46:40Z</time>
      </trkpt>
      <trkpt lat="43.22435" lon="5.61719">
        <ele>186.80078125</ele>
        <time>2021-10-23T09:46:41Z</time>
      </trkpt>
      <trkpt lat="43.22431" lon="5.61721">
        <ele>187.2890625</ele>
        <time>2021-10-23T09:46:42Z</time>
      </trkpt>
      <trkpt lat="43.22426" lon="5.61723">
        <ele>187.578125</ele>
        <time>2021-10-23T09:46:43Z</time>
      </trkpt>
      <trkpt lat="43.22422" lon="5.61725">
        <ele>187.984375</ele>
        <time>2021-10-23T09:46:44Z</time>
      </trkpt>
      <trkpt lat="43.22414" lon="5.6173">
        <ele>188.5078125</ele>
        <time>2021-10-23T09:46:46Z</time>
      </trkpt>
      <trkpt lat="43.2241" lon="5.61731">
        <ele>188.40234375</ele>
        <time>2021-10-23T09:46:47Z</time>
      </trkpt>
      <trkpt lat="43.22405" lon="5.61732">
        <ele>188.21484375</ele>
        <time>2021-10-23T09:46:48Z</time>
      </trkpt>
      <trkpt lat="43.224" lon="5.61731">
        <ele>187.68359375</ele>
        <time>2021-10-23T09:46:49Z</time>
      </trkpt>
      <trkpt lat="43.22396" lon="5.61728">
        <ele>186.7890625</ele>
        <time>2021-10-23T09:46:50Z</time>
      </trkpt>
      <trkpt lat="43.22392" lon="5.61724">
        <ele>185.5625</ele>
        <time>2021-10-23T09:46:51Z</time>
      </trkpt>
      <trkpt lat="43.22387" lon="5.6172">
        <ele>184.09375</ele>
        <time>2021-10-23T09:46:52Z</time>
      </trkpt>
      <trkpt lat="43.22382" lon="5.61717">
        <ele>182.859375</ele>
        <time>2021-10-23T09:46:53Z</time>
      </trkpt>
      <trkpt lat="43.22377" lon="5.61716">
        <ele>181.8984375</ele>
        <time>2021-10-23T09:46:54Z</time>
      </trkpt>
      <trkpt lat="43.22372" lon="5.61716">
        <ele>181.16796875</ele>
        <time>2021-10-23T09:46:55Z</time>
      </trkpt>
      <trkpt lat="43.22368" lon="5.61717">
        <ele>180.51171875</ele>
        <time>2021-10-23T09:46:56Z</time>
      </trkpt>
      <trkpt lat="43.22363" lon="5.61718">
        <ele>180.04296875</ele>
        <time>2021-10-23T09:46:57Z</time>
      </trkpt>
      <trkpt lat="43.22358" lon="5.6172">
        <ele>179.7109375</ele>
        <time>2021-10-23T09:46:58Z</time>
      </trkpt>
      <trkpt lat="43.22355" lon="5.61722">
        <ele>179.45703125</ele>
        <time>2021-10-23T09:46:59Z</time>
      </trkpt>
      <trkpt lat="43.22351" lon="5.61725">
        <ele>179.14453125</ele>
        <time>2021-10-23T09:47:00Z</time>
      </trkpt>
      <trkpt lat="43.22347" lon="5.61727">
        <ele>178.74609375</ele>
        <time>2021-10-23T09:47:01Z</time>
      </trkpt>
      <trkpt lat="43.22344" lon="5.6173">
        <ele>178.41015625</ele>
        <time>2021-10-23T09:47:02Z</time>
      </trkpt>
      <trkpt lat="43.22342" lon="5.61734">
        <ele>178.28125</ele>
        <time>2021-10-23T09:47:03Z</time>
      </trkpt>
      <trkpt lat="43.2234" lon="5.61739">
        <ele>178.1796875</ele>
        <time>2021-10-23T09:47:04Z</time>
      </trkpt>
      <trkpt lat="43.22338" lon="5.61745">
        <ele>178.20703125</ele>
        <time>2021-10-23T09:47:05Z</time>
      </trkpt>
      <trkpt lat="43.22337" lon="5.61751">
        <ele>178.49609375</ele>
        <time>2021-10-23T09:47:06Z</time>
      </trkpt>
      <trkpt lat="43.22337" lon="5.61758">
        <ele>178.953125</ele>
        <time>2021-10-23T09:47:07Z</time>
      </trkpt>
      <trkpt lat="43.22338" lon="5.61765">
        <ele>179.546875</ele>
        <time>2021-10-23T09:47:08Z</time>
      </trkpt>
      <trkpt lat="43.22338" lon="5.6177">
        <ele>180.0546875</ele>
        <time>2021-10-23T09:47:09Z</time>
      </trkpt>
      <trkpt lat="43.22337" lon="5.61784">
        <ele>180.71484375</ele>
        <time>2021-10-23T09:47:19Z</time>
      </trkpt>
      <trkpt lat="43.22337" lon="5.6179">
        <ele>181.046875</ele>
        <time>2021-10-23T09:47:36Z</time>
      </trkpt>
      <trkpt lat="43.22337" lon="5.61824">
        <ele>183.42578125</ele>
        <time>2021-10-23T09:47:46Z</time>
      </trkpt>
      <trkpt lat="43.22335" lon="5.61827">
        <ele>182.6796875</ele>
        <time>2021-10-23T09:47:47Z</time>
      </trkpt>
      <trkpt lat="43.22325" lon="5.61842">
        <ele>178.9296875</ele>
        <time>2021-10-23T09:47:50Z</time>
      </trkpt>
      <trkpt lat="43.22322" lon="5.61848">
        <ele>177.671875</ele>
        <time>2021-10-23T09:47:51Z</time>
      </trkpt>
      <trkpt lat="43.22319" lon="5.61854">
        <ele>176.171875</ele>
        <time>2021-10-23T09:47:52Z</time>
      </trkpt>
      <trkpt lat="43.22316" lon="5.6186">
        <ele>174.84765625</ele>
        <time>2021-10-23T09:47:53Z</time>
      </trkpt>
      <trkpt lat="43.22314" lon="5.61865">
        <ele>173.90234375</ele>
        <time>2021-10-23T09:47:54Z</time>
      </trkpt>
      <trkpt lat="43.22314" lon="5.61871">
        <ele>173.3984375</ele>
        <time>2021-10-23T09:47:55Z</time>
      </trkpt>
      <trkpt lat="43.22315" lon="5.61877">
        <ele>173.75</ele>
        <time>2021-10-23T09:47:56Z</time>
      </trkpt>
      <trkpt lat="43.22318" lon="5.61881">
        <ele>174.828125</ele>
        <time>2021-10-23T09:47:57Z</time>
      </trkpt>
      <trkpt lat="43.22322" lon="5.61885">
        <ele>176.03515625</ele>
        <time>2021-10-23T09:47:58Z</time>
      </trkpt>
      <trkpt lat="43.22325" lon="5.6189">
        <ele>177.21484375</ele>
        <time>2021-10-23T09:47:59Z</time>
      </trkpt>
      <trkpt lat="43.22328" lon="5.61894">
        <ele>177.92578125</ele>
        <time>2021-10-23T09:48:00Z</time>
      </trkpt>
      <trkpt lat="43.2233" lon="5.61898">
        <ele>178.42578125</ele>
        <time>2021-10-23T09:48:01Z</time>
      </trkpt>
      <trkpt lat="43.22331" lon="5.61901">
        <ele>178.6015625</ele>
        <time>2021-10-23T09:48:02Z</time>
      </trkpt>
      <trkpt lat="43.22331" lon="5.61904">
        <ele>178.47265625</ele>
        <time>2021-10-23T09:48:03Z</time>
      </trkpt>
      <trkpt lat="43.22331" lon="5.61907">
        <ele>178.3203125</ele>
        <time>2021-10-23T09:48:04Z</time>
      </trkpt>
      <trkpt lat="43.22332" lon="5.61911">
        <ele>178.125</ele>
        <time>2021-10-23T09:48:05Z</time>
      </trkpt>
      <trkpt lat="43.22331" lon="5.61914">
        <ele>177.7734375</ele>
        <time>2021-10-23T09:48:06Z</time>
      </trkpt>
      <trkpt lat="43.22332" lon="5.61939">
        <ele>175.296875</ele>
        <time>2021-10-23T09:48:11Z</time>
      </trkpt>
      <trkpt lat="43.22335" lon="5.61962">
        <ele>174.60546875</ele>
        <time>2021-10-23T09:48:14Z</time>
      </trkpt>
      <trkpt lat="43.22337" lon="5.6197">
        <ele>174.515625</ele>
        <time>2021-10-23T09:48:15Z</time>
      </trkpt>
      <trkpt lat="43.22338" lon="5.61977">
        <ele>174.05859375</ele>
        <time>2021-10-23T09:48:16Z</time>
      </trkpt>
      <trkpt lat="43.22338" lon="5.6199">
        <ele>172.8984375</ele>
        <time>2021-10-23T09:48:18Z</time>
      </trkpt>
      <trkpt lat="43.22339" lon="5.61996">
        <ele>172.80859375</ele>
        <time>2021-10-23T09:48:19Z</time>
      </trkpt>
      <trkpt lat="43.22341" lon="5.62002">
        <ele>173.08984375</ele>
        <time>2021-10-23T09:48:20Z</time>
      </trkpt>
      <trkpt lat="43.22342" lon="5.62007">
        <ele>173.27734375</ele>
        <time>2021-10-23T09:48:21Z</time>
      </trkpt>
      <trkpt lat="43.22342" lon="5.62012">
        <ele>173.0078125</ele>
        <time>2021-10-23T09:48:22Z</time>
      </trkpt>
      <trkpt lat="43.22342" lon="5.62018">
        <ele>172.52734375</ele>
        <time>2021-10-23T09:48:23Z</time>
      </trkpt>
      <trkpt lat="43.22342" lon="5.62023">
        <ele>172.55078125</ele>
        <time>2021-10-23T09:48:24Z</time>
      </trkpt>
      <trkpt lat="43.22343" lon="5.62029">
        <ele>172.6953125</ele>
        <time>2021-10-23T09:48:25Z</time>
      </trkpt>
      <trkpt lat="43.22343" lon="5.6205">
        <ele>173.09765625</ele>
        <time>2021-10-23T09:48:28Z</time>
      </trkpt>
      <trkpt lat="43.22343" lon="5.62058">
        <ele>173.15234375</ele>
        <time>2021-10-23T09:48:29Z</time>
      </trkpt>
      <trkpt lat="43.22341" lon="5.62066">
        <ele>172.80078125</ele>
        <time>2021-10-23T09:48:30Z</time>
      </trkpt>
      <trkpt lat="43.22338" lon="5.62073">
        <ele>171.80078125</ele>
        <time>2021-10-23T09:48:31Z</time>
      </trkpt>
      <trkpt lat="43.22335" lon="5.6208">
        <ele>170.68359375</ele>
        <time>2021-10-23T09:48:32Z</time>
      </trkpt>
      <trkpt lat="43.22332" lon="5.62087">
        <ele>170.1484375</ele>
        <time>2021-10-23T09:48:33Z</time>
      </trkpt>
      <trkpt lat="43.22331" lon="5.62094">
        <ele>170.21875</ele>
        <time>2021-10-23T09:48:34Z</time>
      </trkpt>
      <trkpt lat="43.2233" lon="5.62101">
        <ele>170.34765625</ele>
        <time>2021-10-23T09:48:35Z</time>
      </trkpt>
      <trkpt lat="43.22329" lon="5.62107">
        <ele>170.265625</ele>
        <time>2021-10-23T09:48:36Z</time>
      </trkpt>
      <trkpt lat="43.22326" lon="5.62114">
        <ele>169.765625</ele>
        <time>2021-10-23T09:48:37Z</time>
      </trkpt>
      <trkpt lat="43.22323" lon="5.62121">
        <ele>168.83203125</ele>
        <time>2021-10-23T09:48:38Z</time>
      </trkpt>
      <trkpt lat="43.2231" lon="5.62142">
        <ele>164.65234375</ele>
        <time>2021-10-23T09:48:43Z</time>
      </trkpt>
      <trkpt lat="43.22303" lon="5.62151">
        <ele>163.0625</ele>
        <time>2021-10-23T09:48:46Z</time>
      </trkpt>
      <trkpt lat="43.223" lon="5.62155">
        <ele>162.0390625</ele>
        <time>2021-10-23T09:48:47Z</time>
      </trkpt>
      <trkpt lat="43.22298" lon="5.6216">
        <ele>161.6484375</ele>
        <time>2021-10-23T09:48:48Z</time>
      </trkpt>
      <trkpt lat="43.22299" lon="5.62165">
        <ele>162.234375</ele>
        <time>2021-10-23T09:48:49Z</time>
      </trkpt>
      <trkpt lat="43.223" lon="5.6217">
        <ele>163.27734375</ele>
        <time>2021-10-23T09:48:50Z</time>
      </trkpt>
      <trkpt lat="43.223" lon="5.62175">
        <ele>163.8828125</ele>
        <time>2021-10-23T09:48:51Z</time>
      </trkpt>
      <trkpt lat="43.223" lon="5.6218">
        <ele>163.8515625</ele>
        <time>2021-10-23T09:48:52Z</time>
      </trkpt>
      <trkpt lat="43.22298" lon="5.62185">
        <ele>163.61328125</ele>
        <time>2021-10-23T09:48:53Z</time>
      </trkpt>
      <trkpt lat="43.22298" lon="5.62191">
        <ele>163.5546875</ele>
        <time>2021-10-23T09:48:54Z</time>
      </trkpt>
      <trkpt lat="43.22296" lon="5.62197">
        <ele>163.34765625</ele>
        <time>2021-10-23T09:48:55Z</time>
      </trkpt>
      <trkpt lat="43.22295" lon="5.62204">
        <ele>162.76953125</ele>
        <time>2021-10-23T09:48:56Z</time>
      </trkpt>
      <trkpt lat="43.22291" lon="5.62221">
        <ele>161.640625</ele>
        <time>2021-10-23T09:48:58Z</time>
      </trkpt>
      <trkpt lat="43.22289" lon="5.62227">
        <ele>160.9453125</ele>
        <time>2021-10-23T09:48:59Z</time>
      </trkpt>
      <trkpt lat="43.22285" lon="5.62234">
        <ele>159.7265625</ele>
        <time>2021-10-23T09:49:00Z</time>
      </trkpt>
      <trkpt lat="43.22281" lon="5.6224">
        <ele>157.90234375</ele>
        <time>2021-10-23T09:49:01Z</time>
      </trkpt>
      <trkpt lat="43.22269" lon="5.62254">
        <ele>152.61328125</ele>
        <time>2021-10-23T09:49:04Z</time>
      </trkpt>
      <trkpt lat="43.22266" lon="5.62259">
        <ele>151.4453125</ele>
        <time>2021-10-23T09:49:05Z</time>
      </trkpt>
      <trkpt lat="43.22264" lon="5.62264">
        <ele>150.734375</ele>
        <time>2021-10-23T09:49:06Z</time>
      </trkpt>
      <trkpt lat="43.2226" lon="5.62274">
        <ele>149.15234375</ele>
        <time>2021-10-23T09:49:08Z</time>
      </trkpt>
      <trkpt lat="43.22257" lon="5.62278">
        <ele>147.875</ele>
        <time>2021-10-23T09:49:09Z</time>
      </trkpt>
      <trkpt lat="43.22254" lon="5.62282">
        <ele>147.0078125</ele>
        <time>2021-10-23T09:49:10Z</time>
      </trkpt>
      <trkpt lat="43.22251" lon="5.62288">
        <ele>146.50390625</ele>
        <time>2021-10-23T09:49:11Z</time>
      </trkpt>
      <trkpt lat="43.22249" lon="5.62294">
        <ele>146.046875</ele>
        <time>2021-10-23T09:49:12Z</time>
      </trkpt>
      <trkpt lat="43.22248" lon="5.623">
        <ele>145.8984375</ele>
        <time>2021-10-23T09:49:13Z</time>
      </trkpt>
      <trkpt lat="43.22246" lon="5.62307">
        <ele>145.546875</ele>
        <time>2021-10-23T09:49:14Z</time>
      </trkpt>
      <trkpt lat="43.22244" lon="5.62313">
        <ele>145.06640625</ele>
        <time>2021-10-23T09:49:15Z</time>
      </trkpt>
      <trkpt lat="43.2224" lon="5.62327">
        <ele>143.05859375</ele>
        <time>2021-10-23T09:49:18Z</time>
      </trkpt>
      <trkpt lat="43.22234" lon="5.62338">
        <ele>138.75390625</ele>
        <time>2021-10-23T09:49:21Z</time>
      </trkpt>
      <trkpt lat="43.22231" lon="5.62349">
        <ele>136.51171875</ele>
        <time>2021-10-23T09:49:23Z</time>
      </trkpt>
      <trkpt lat="43.22225" lon="5.62375">
        <ele>133.4765625</ele>
        <time>2021-10-23T09:49:27Z</time>
      </trkpt>
      <trkpt lat="43.22221" lon="5.62387">
        <ele>131.8359375</ele>
        <time>2021-10-23T09:49:29Z</time>
      </trkpt>
      <trkpt lat="43.22218" lon="5.62393">
        <ele>130.82421875</ele>
        <time>2021-10-23T09:49:30Z</time>
      </trkpt>
      <trkpt lat="43.22212" lon="5.62406">
        <ele>128.64453125</ele>
        <time>2021-10-23T09:49:32Z</time>
      </trkpt>
      <trkpt lat="43.22199" lon="5.62436">
        <ele>125.96484375</ele>
        <time>2021-10-23T09:49:37Z</time>
      </trkpt>
      <trkpt lat="43.22195" lon="5.62439">
        <ele>125.890625</ele>
        <time>2021-10-23T09:49:38Z</time>
      </trkpt>
      <trkpt lat="43.2219" lon="5.62441">
        <ele>125.88671875</ele>
        <time>2021-10-23T09:49:39Z</time>
      </trkpt>
      <trkpt lat="43.22185" lon="5.62443">
        <ele>125.91015625</ele>
        <time>2021-10-23T09:49:40Z</time>
      </trkpt>
      <trkpt lat="43.2218" lon="5.62442">
        <ele>125.8515625</ele>
        <time>2021-10-23T09:49:41Z</time>
      </trkpt>
      <trkpt lat="43.22176" lon="5.6244">
        <ele>125.609375</ele>
        <time>2021-10-23T09:49:42Z</time>
      </trkpt>
      <trkpt lat="43.22172" lon="5.62437">
        <ele>125.17578125</ele>
        <time>2021-10-23T09:49:43Z</time>
      </trkpt>
      <trkpt lat="43.22169" lon="5.62433">
        <ele>124.87890625</ele>
        <time>2021-10-23T09:49:44Z</time>
      </trkpt>
      <trkpt lat="43.22165" lon="5.62428">
        <ele>124.5546875</ele>
        <time>2021-10-23T09:49:45Z</time>
      </trkpt>
      <trkpt lat="43.22162" lon="5.62423">
        <ele>124.08203125</ele>
        <time>2021-10-23T09:49:46Z</time>
      </trkpt>
      <trkpt lat="43.22159" lon="5.62418">
        <ele>123.49609375</ele>
        <time>2021-10-23T09:49:47Z</time>
      </trkpt>
      <trkpt lat="43.22147" lon="5.62404">
        <ele>121.41796875</ele>
        <time>2021-10-23T09:49:55Z</time>
      </trkpt>
      <trkpt lat="43.22143" lon="5.62406">
        <ele>120.9453125</ele>
        <time>2021-10-23T09:50:12Z</time>
      </trkpt>
      <trkpt lat="43.22144" lon="5.62404">
        <ele>121.0859375</ele>
        <time>2021-10-23T09:50:34Z</time>
      </trkpt>
      <trkpt lat="43.22144" lon="5.62408">
        <ele>121.00390625</ele>
        <time>2021-10-23T09:51:03Z</time>
      </trkpt>
      <trkpt lat="43.22141" lon="5.62404">
        <ele>120.66015625</ele>
        <time>2021-10-23T09:51:38Z</time>
      </trkpt>
      <trkpt lat="43.22142" lon="5.62405">
        <ele>120.84375</ele>
        <time>2021-10-23T09:52:05Z</time>
      </trkpt>
      <trkpt lat="43.22143" lon="5.62403">
        <ele>120.94140625</ele>
        <time>2021-10-23T09:52:33Z</time>
      </trkpt>
      <trkpt lat="43.2214" lon="5.62401">
        <ele>120.64453125</ele>
        <time>2021-10-23T09:52:52Z</time>
      </trkpt>
      <trkpt lat="43.22139" lon="5.62401">
        <ele>120.48046875</ele>
        <time>2021-10-23T09:52:53Z</time>
      </trkpt>
      <trkpt lat="43.22138" lon="5.62402">
        <ele>120.31640625</ele>
        <time>2021-10-23T09:52:54Z</time>
      </trkpt>
      <trkpt lat="43.22136" lon="5.62402">
        <ele>120.1640625</ele>
        <time>2021-10-23T09:52:55Z</time>
      </trkpt>
      <trkpt lat="43.22135" lon="5.62402">
        <ele>119.99609375</ele>
        <time>2021-10-23T09:52:56Z</time>
      </trkpt>
      <trkpt lat="43.22134" lon="5.62402">
        <ele>119.81640625</ele>
        <time>2021-10-23T09:52:57Z</time>
      </trkpt>
      <trkpt lat="43.22132" lon="5.62402">
        <ele>119.63671875</ele>
        <time>2021-10-23T09:52:58Z</time>
      </trkpt>
      <trkpt lat="43.22131" lon="5.62402">
        <ele>119.4375</ele>
        <time>2021-10-23T09:52:59Z</time>
      </trkpt>
      <trkpt lat="43.22129" lon="5.62402">
        <ele>119.2265625</ele>
        <time>2021-10-23T09:53:00Z</time>
      </trkpt>
      <trkpt lat="43.22127" lon="5.62402">
        <ele>119.0078125</ele>
        <time>2021-10-23T09:53:01Z</time>
      </trkpt>
      <trkpt lat="43.22126" lon="5.62402">
        <ele>118.78515625</ele>
        <time>2021-10-23T09:53:02Z</time>
      </trkpt>
      <trkpt lat="43.22123" lon="5.62402">
        <ele>118.51953125</ele>
        <time>2021-10-23T09:53:03Z</time>
      </trkpt>
      <trkpt lat="43.22122" lon="5.62402">
        <ele>118.28125</ele>
        <time>2021-10-23T09:53:04Z</time>
      </trkpt>
      <trkpt lat="43.2212" lon="5.62402">
        <ele>118.046875</ele>
        <time>2021-10-23T09:53:05Z</time>
      </trkpt>
      <trkpt lat="43.22118" lon="5.62402">
        <ele>117.78125</ele>
        <time>2021-10-23T09:53:06Z</time>
      </trkpt>
      <trkpt lat="43.22092" lon="5.62419">
        <ele>122.66796875</ele>
        <time>2021-10-23T09:53:19Z</time>
      </trkpt>
      <trkpt lat="43.22059" lon="5.62431">
        <ele>127.77734375</ele>
        <time>2021-10-23T09:53:34Z</time>
      </trkpt>
      <trkpt lat="43.22039" lon="5.62453">
        <ele>132.234375</ele>
        <time>2021-10-23T09:53:47Z</time>
      </trkpt>
      <trkpt lat="43.22023" lon="5.6247">
        <ele>135.85546875</ele>
        <time>2021-10-23T09:53:57Z</time>
      </trkpt>
      <trkpt lat="43.21995" lon="5.6248">
        <ele>135.57421875</ele>
        <time>2021-10-23T09:54:11Z</time>
      </trkpt>
      <trkpt lat="43.21993" lon="5.6248">
        <ele>135.13671875</ele>
        <time>2021-10-23T09:54:12Z</time>
      </trkpt>
      <trkpt lat="43.21991" lon="5.6248">
        <ele>134.90625</ele>
        <time>2021-10-23T09:54:13Z</time>
      </trkpt>
      <trkpt lat="43.21988" lon="5.62481">
        <ele>134.67578125</ele>
        <time>2021-10-23T09:54:14Z</time>
      </trkpt>
      <trkpt lat="43.21986" lon="5.62481">
        <ele>134.4296875</ele>
        <time>2021-10-23T09:54:15Z</time>
      </trkpt>
      <trkpt lat="43.21956" lon="5.62488">
        <ele>133.7890625</ele>
        <time>2021-10-23T09:54:29Z</time>
      </trkpt>
      <trkpt lat="43.2193" lon="5.62504">
        <ele>136.37890625</ele>
        <time>2021-10-23T09:54:40Z</time>
      </trkpt>
      <trkpt lat="43.21895" lon="5.62533">
        <ele>138.26953125</ele>
        <time>2021-10-23T09:54:57Z</time>
      </trkpt>
      <trkpt lat="43.21886" lon="5.62554">
        <ele>139.65625</ele>
        <time>2021-10-23T09:55:05Z</time>
      </trkpt>
      <trkpt lat="43.21887" lon="5.62557">
        <ele>139.96484375</ele>
        <time>2021-10-23T09:55:06Z</time>
      </trkpt>
      <trkpt lat="43.21889" lon="5.62559">
        <ele>140.3125</ele>
        <time>2021-10-23T09:55:07Z</time>
      </trkpt>
      <trkpt lat="43.2189" lon="5.62561">
        <ele>140.63671875</ele>
        <time>2021-10-23T09:55:08Z</time>
      </trkpt>
      <trkpt lat="43.21892" lon="5.62563">
        <ele>140.94140625</ele>
        <time>2021-10-23T09:55:09Z</time>
      </trkpt>
      <trkpt lat="43.21894" lon="5.62563">
        <ele>141.16796875</ele>
        <time>2021-10-23T09:55:10Z</time>
      </trkpt>
      <trkpt lat="43.21896" lon="5.62562">
        <ele>141.421875</ele>
        <time>2021-10-23T09:55:11Z</time>
      </trkpt>
      <trkpt lat="43.21899" lon="5.62561">
        <ele>141.69140625</ele>
        <time>2021-10-23T09:55:12Z</time>
      </trkpt>
      <trkpt lat="43.21901" lon="5.6256">
        <ele>142.0234375</ele>
        <time>2021-10-23T09:55:13Z</time>
      </trkpt>
      <trkpt lat="43.21904" lon="5.6256">
        <ele>142.30859375</ele>
        <time>2021-10-23T09:55:14Z</time>
      </trkpt>
      <trkpt lat="43.21934" lon="5.62557">
        <ele>145.75390625</ele>
        <time>2021-10-23T09:55:27Z</time>
      </trkpt>
      <trkpt lat="43.21968" lon="5.62554">
        <ele>148.81640625</ele>
        <time>2021-10-23T09:55:41Z</time>
      </trkpt>
      <trkpt lat="43.21998" lon="5.62557">
        <ele>152.390625</ele>
        <time>2021-10-23T09:55:54Z</time>
      </trkpt>
      <trkpt lat="43.22013" lon="5.62559">
        <ele>154.2265625</ele>
        <time>2021-10-23T09:56:01Z</time>
      </trkpt>
      <trkpt lat="43.22037" lon="5.62558">
        <ele>156.74609375</ele>
        <time>2021-10-23T09:56:11Z</time>
      </trkpt>
      <trkpt lat="43.22072" lon="5.62551">
        <ele>158.9609375</ele>
        <time>2021-10-23T09:56:23Z</time>
      </trkpt>
      <trkpt lat="43.22102" lon="5.62555">
        <ele>160.11328125</ele>
        <time>2021-10-23T09:56:34Z</time>
      </trkpt>
      <trkpt lat="43.22129" lon="5.62578">
        <ele>162.88671875</ele>
        <time>2021-10-23T09:56:46Z</time>
      </trkpt>
      <trkpt lat="43.22166" lon="5.626">
        <ele>164.05859375</ele>
        <time>2021-10-23T09:57:00Z</time>
      </trkpt>
      <trkpt lat="43.22201" lon="5.62642">
        <ele>163.6484375</ele>
        <time>2021-10-23T09:57:16Z</time>
      </trkpt>
      <trkpt lat="43.22218" lon="5.62702">
        <ele>168.546875</ele>
        <time>2021-10-23T09:57:31Z</time>
      </trkpt>
      <trkpt lat="43.22239" lon="5.62756">
        <ele>171.69140625</ele>
        <time>2021-10-23T09:57:45Z</time>
      </trkpt>
      <trkpt lat="43.22253" lon="5.62788">
        <ele>173.4609375</ele>
        <time>2021-10-23T09:57:54Z</time>
      </trkpt>
      <trkpt lat="43.22251" lon="5.62834">
        <ele>177.80859375</ele>
        <time>2021-10-23T09:58:06Z</time>
      </trkpt>
      <trkpt lat="43.2224" lon="5.62856">
        <ele>179.15625</ele>
        <time>2021-10-23T09:58:13Z</time>
      </trkpt>
      <trkpt lat="43.22227" lon="5.62901">
        <ele>179.984375</ele>
        <time>2021-10-23T09:58:24Z</time>
      </trkpt>
      <trkpt lat="43.22218" lon="5.62945">
        <ele>179.50390625</ele>
        <time>2021-10-23T09:58:32Z</time>
      </trkpt>
      <trkpt lat="43.22218" lon="5.62951">
        <ele>179.1953125</ele>
        <time>2021-10-23T09:58:33Z</time>
      </trkpt>
      <trkpt lat="43.22218" lon="5.62956">
        <ele>178.97265625</ele>
        <time>2021-10-23T09:58:34Z</time>
      </trkpt>
      <trkpt lat="43.22218" lon="5.62959">
        <ele>178.71875</ele>
        <time>2021-10-23T09:58:35Z</time>
      </trkpt>
      <trkpt lat="43.22217" lon="5.62963">
        <ele>178.4609375</ele>
        <time>2021-10-23T09:58:36Z</time>
      </trkpt>
      <trkpt lat="43.22216" lon="5.62967">
        <ele>178.2265625</ele>
        <time>2021-10-23T09:58:37Z</time>
      </trkpt>
      <trkpt lat="43.2221" lon="5.62982">
        <ele>176.73046875</ele>
        <time>2021-10-23T09:58:45Z</time>
      </trkpt>
      <trkpt lat="43.22211" lon="5.62984">
        <ele>176.89453125</ele>
        <time>2021-10-23T09:59:19Z</time>
      </trkpt>
    </trkseg>
  </trk>
</gpx>